     2.11           OBSERVATION DATA    G (GPS)             RINEX VERSION / TYPE
teqc 2010Oct21 OPUS Account 20111028 21:22:46UTC            PGM / RUN BY / DATE
K 1528                                                      MARKER NAME
3094                                                        MARKER NUMBER
CSMIDDLETON NGS                                             OBSERVER / AGENCY
4624K01648 TRIMBLE NETR5 4.41                               REC # / TYPE / VERS
12611996 TRM41249.00 NONE                                   ANT # / TYPE
  -692543.7492 -5591864.6643  2978587.5364                  APPROX POSITION XYZ
        2.0000        0.0000        0.0000                  ANTENNA: DELTA H/E/N
     1     1                                                WAVELENGTH FACT L1/2
     5    L1    L2    C1    P1    P2                        # / TYPES OF OBSERV
    15                                                      LEAP SECONDS
  2011     8    29     0     0    0.0000000     GPS         TIME OF FIRST OBS
                                                            END OF HEADER
 11  8 29  0  0  0.0000000  0  9G17G10G04G12G05G25G09G02G30
 123453769.72017  96197810.15216  23492475.586                    23492486.434
 109993192.91718  85709210.89856  20931015.328                    20931024.363
 116542412.41317  90812380.42355  22177267.992                    22177278.199
 111216206.97018  86662053.63417  21163742.727                    21163751.051
 112627203.35218  87761529.18417  21432224.008                    21432234.168
 123994011.08517  96618755.47816  23595277.648                    23595290.148
 127048520.37716  98998997.14854  24176566.344                    24176580.457
 108662662.58518  84672317.25556  20677793.367                    20677800.168
 125626887.34816  97891146.98853  23906008.281                    23906018.871
 11  8 29  0  0 30.0000000  0  9G17G10G04G12G05G25G09G02G30
 123510851.577 7  96242289.476 6  23503337.852                    23503349.340
 110015562.677 8  85726641.89746  20935271.953                    20935281.070
 116621758.817 7  90874208.75245  22192367.469                    22192377.504
 111169992.158 8  86626042.094 7  21154948.719                    21154956.863
 112549108.678 7  87700676.251 7  21417363.117                    21417372.844
 123901280.006 7  96546497.511 6  23577632.375                    23577644.367
 127129206.804 6  99061869.55143  24191920.117                    24191934.250
 108670290.750 8  84678261.29046  20679244.727                    20679251.563
 125530342.877 6  97815917.57643  23887636.836                    23887646.414
 11  8 29  0  1  0.0000000  0  9G17G10G04G12G05G25G09G02G30
 123568110.560 7  96286906.791 6  23514233.672                    23514244.895
 110038552.192 8  85744555.80746  20939646.656                    20939656.066
 116701177.277 7  90936093.20445  22207480.828                    22207490.254
 111124272.937 8  86590416.732 7  21146248.266                    21146256.922
 112471411.213 8  87640132.838 7  21402578.055                    21402587.559
 123808807.576 7  96474441.068 7  23560034.734                    23560047.336
 127209948.681 6  99124785.16343  24207284.695                    24207299.031
 108678162.326 8  84684394.99446  20680743.016                    20680749.531
 125434083.024 6  97740909.98243  23869318.688                    23869328.816
 11  8 29  0  1 30.0000000  0  9G17G10G04G12G05G25G09G02G30
 123625547.368 6  96331662.657 6  23525163.594                    23525175.566
 110062160.893 8  85762952.19646  20944139.523                    20944148.457
 116780666.448 7  90998032.78045  22222606.383                    22222617.152
 111079051.423 8  86555179.206 7  21137643.117                    21137651.410
 112394113.874 8  87579901.213 7  21387868.523                    21387878.434
 123716596.513 7  96402588.321 7  23542488.156                    23542500.418
 127290743.052 6  99187741.73243  24222658.883                    24222673.703
 108686276.315 8  84690717.58946  20682286.922                    20682293.871
 125338110.744 6  97666126.41843  23851055.586                    23851065.422
 11  8 29  0  2  0.0000000  0  9G17G10G04G12G05G25G09G02G30
 123683162.326 6  96376557.370 6  23536127.938                    23536139.168
 110086388.222 7  85781830.63946  20948750.078                    20948758.594
 116860224.598 7  91060026.09445  22237746.086                    22237756.477
 111034329.319 7  86520330.828 7  21129132.734                    21129140.957
 112317219.162 7  87519983.328 7  21373235.906                    21373245.844
 123624649.781 7  96330941.525 6  23524991.188                    23525003.039
 127371586.716 6  99250736.63143  24238043.508                    24238057.867
 108694631.619 7  84697228.21546  20683877.234                    20683883.961
 125242429.058 6  97591569.26043  23832848.180                    23832857.488
 11  8 29  0  2 30.0000000  0  9G17G10G04G12G05G25G09G02G30
 123740955.857 6  96421591.186 6  23547125.375                    23547137.379
 110111232.709 8  85801189.98346  20953477.508                    20953486.531
 116939849.991 7  91122071.80645  22252898.719                    22252908.391
 110990108.995 8  86485873.458 7  21120717.953                    21120726.125
 112240729.469 8  87460381.037 7  21358680.313                    21358690.332
 123532969.732 7  96259502.529 6  23507545.422                    23507556.512
 127452476.538 7  99313767.51043  24253436.656                    24253451.184
 108703226.843 8  84703925.78846  20685512.797                    20685519.383
 125147040.566 6  97517240.62243  23814696.367                    23814705.723
 11  8 29  0  3  0.0000000  0  9G17G10G04G12G05G25G09G02G30
 123798928.253 7  96466764.410 6  23558157.367                    23558169.156
 110136693.539 8  85821029.60046  20958322.359                    20958331.586
 117019541.049 7  91184168.68745  22268063.172                    22268073.172
 110946391.796 8  86451808.132 7  21112398.703                    21112407.125
 112164647.251 7  87401096.263 7  21344202.336                    21344212.059
 123441559.093 7  96188273.482 6  23490149.711                    23490162.504
 127533409.156 6  99376831.81043  24268837.023                    24268851.719
 108712060.735 8  84710809.34546  20687193.797                    20687200.387
 125051948.087 6  97443142.59943  23796601.477                    23796610.676
 11  8 29  0  3 30.0000000  0  9G17G10G04G12G05G25G09G02G30
 123857080.088 6  96512077.448 6  23569223.227                    23569235.301
 110162769.740 8  85841348.72146  20963284.445                    20963293.703
 117099295.949 7  91246315.31145  22283240.313                    22283250.000
 110903179.431 8  86418136.167 7  21104175.633                    21104184.004
 112088975.067 8  87342130.985 7  21329802.438                    21329812.293
 123350420.462 7  96117256.403 7  23472806.969                    23472818.570
 127614381.179 6  99439926.71643  24284246.516                    24284259.648
 108721131.938 8  84717877.81546  20688919.898                    20688926.367
 124957154.207 6  97369277.24443  23778562.484                    23778571.941
 11  8 29  0  4  0.0000000  0  9G17G10G04G12G05G25G09G02G30
 123915411.873 6  96557530.685 7  23580323.320                    23580335.355
 110189460.497 8  85862146.71146  20968364.031                    20968372.750
 117179113.295 7  91308510.59545  22298428.859                    22298438.965
 110860473.896 8  86384859.157 7  21096049.164                    21096057.469
 112013715.298 8  87283487.079 7  21315481.016                    21315490.527
 123259556.484 7  96046453.304 7  23455515.891                    23455527.805
 127695389.330 6  99503049.87943  24299660.578                    24299676.367
 108730439.285 8  84725130.29946  20690691.313                    20690697.520
 124862661.935 6  97295646.93143  23760581.203                    23760590.293
 11  8 29  0  4 30.0000000  0  9G17G10G04G12G05G25G09G02G30
 123973923.769 6  96603124.301 6  23591458.477                    23591470.297
 110216764.909 7  85883422.87346  20973559.563                    20973568.695
 117258991.582 7  91370753.36245  22313629.297                    22313639.293
 110818277.276 8  86351978.690 7  21088018.891                    21088027.879
 111938870.918 8  87225166.842 7  21301238.250                    21301248.074
 123168970.223 7  95975866.632 7  23438277.969                    23438290.234
 127776430.935 6  99566198.97243  24315083.273                    24315098.238
 108739981.991 8  84732566.16646  20692506.891                    20692513.184
 124768474.425 6  97222254.05643  23742657.672                    23742667.129
 11  8 29  0  5  0.0000000  0  9G17G10G04G12G05G25G09G02G30
 124032616.135 6  96648858.496 6  23602626.969                    23602638.953
 110244681.805 8  85905176.29846  20978871.805                    20978881.047
 117338929.165 7  91433042.34745  22328841.109                    22328850.988
 110776591.052 8  86319495.937 7  21080086.352                    21080095.254
 111864444.093 7  87167171.990 7  21287075.531                    21287085.246
 123078663.993 7  95905498.190 6  23421093.758                    23421105.387
 127857502.596 6  99629371.57143  24330510.703                    24330525.766
 108749758.425 8  84740184.16646  20694367.281                    20694373.777
 124674594.075 6  97149100.54943  23724792.375                    23724802.492
 11  8 29  0  5 30.0000000  0  9G17G10G04G12G05G25G09G02G30
 124091489.691 6  96694733.905 6  23613830.852                    23613841.676
 110273210.132 7  85927406.15546  20984300.820                    20984310.211
 117418924.404 7  91495376.24544  22344063.391                    22344073.352
 110735417.295 8  86287412.510 7  21072251.430                    21072259.539
 111790436.997 8  87109504.178 7  21272992.273                    21273001.766
 122988640.609 7  95835350.107 6  23403962.484                    23403974.016
 127938600.865 6  99692564.92043  24345943.117                    24345958.043
 108759767.480 8  84747983.42646  20696271.906                    20696278.500
 124581023.715 6  97076188.62644  23706987.156                    23706996.832
 11  8 29  0  6  0.0000000  0  9G17G10G04G12G05G25G09G02G30
 124150544.926 6  96740750.888 6  23625067.844                    23625079.738
 110302349.066 8  85950111.81946  20989845.602                    20989854.586
 117498975.962 7  91557754.02645  22359297.070                    22359306.922
 110694757.461 8  86255729.522 7  21064514.164                    21064522.941
 111716852.309 8  87052165.520 7  21258989.461                    21258999.012
 122898902.656 7  95765424.507 6  23386885.328                    23386897.797
 128019722.712 6  99755776.60243  24361379.953                    24361395.094
 108770008.214 8  84755963.22946  20698220.516                    20698227.281
 124487766.317 6  97003520.55844  23689240.734                    23689250.695
 11  8 29  0  6 30.0000000  0  9G17G10G04G12G05G25G09G02G30
 124209781.843 6  96786909.429 6  23636341.055                    23636352.426
 110332097.477 8  85973292.39546  20995506.297                    20995515.664
 117579082.037 7  91620174.31045  22374541.055                    22374551.188
 110654613.293 8  86224448.371 7  21056875.320                    21056883.473
 111643692.554 8  86995157.976 7  21245067.805                    21245077.484
 122809452.964 7  95695723.520 7  23369863.539                    23369876.242
 128100865.115 6  99819004.25343  24376821.945                    24376836.711
 108780479.267 8  84764122.49946  20700213.133                    20700219.965
 124394824.709 6  96931098.58544  23671554.367                    23671564.430
 11  8 29  0  7  0.0000000  0  9G17G10G04G12G05G25G09G02G30
 124269201.073 6  96833210.030 6  23647647.461                    23647659.852
 110362454.358 8  85996947.11246  21001283.156                    21001292.184
 117659241.158 7  91682635.92545  22389794.820                    22389804.387
 110614986.750 8  86193570.551 7  21049334.555                    21049342.781
 111570960.347 8  86938483.593 7  21231227.219                    21231236.832
 122720294.210 7  95626249.223 6  23352897.711                    23352909.367
 128182024.833 6  99882245.48443  24392266.289                    24392280.785
 108791179.464 8  84772460.32346  20702249.445                    20702256.355
 124302201.653 6  96858924.82244  23653928.547                    23653938.551
 11  8 29  0  7 30.0000000  0  9G17G10G04G12G05G25G09G02G30
 124328802.872 6  96879652.922 6  23658989.656                    23659000.996
 110393418.159 8  86021074.74346  21007175.422                    21007184.516
 117739451.938 7  91745137.78745  22405057.984                    22405067.680
 110575879.221 8  86163097.152 7  21041892.383                    21041900.984
 111498657.649 8  86882143.888 7  21217467.969                    21217477.762
 122631428.768 7  95557003.483 7  23335986.891                    23335998.859
 128263198.193 6  99945497.30443  24407713.070                    24407727.707
 108802107.245 8  84780975.47446  20704329.117                    20704335.824
 124209899.583 6  96787001.17044  23636364.383                    23636374.070
 11  8 29  0  8  0.0000000  0  9G17G10G04G12G05G25G09G02G30
 124388587.812 6  96926238.517 6  23670366.266                    23670377.969
 110424988.096 8  86045674.69346  21013182.883                    21013192.117
 117819712.932 7  91807678.77144  22420331.500                    22420341.543
 110537292.890 8  86133029.881 7  21034549.766                    21034558.223
 111426787.244 8  86826141.028 7  21203791.766                    21203801.313
 122542859.698 7  95487988.707 7  23319132.297                    23319144.977
 128344382.486 6 100008757.60143  24423161.125                    24423176.262
 108813262.099 8  84789667.57546  20706451.750                    20706458.063
 124117921.880 7  96715330.28644  23618861.273                    23618871.219
 11  8 29  0  8 30.0000000  0  9G17G10G04G12G05G25G09G02G30
 124448556.088 6  96972966.987 6  23681778.250                    23681790.125
 110457162.792 8  86070745.87646  21019305.711                    21019314.398
 117900022.709 7  91870257.80544  22435614.031                    22435623.891
 110499229.407 8  86103370.023 7  21027306.453                    21027314.508
 111355351.597 8  86770476.953 7  21190198.406                    21190207.383
 122454589.681 7  95419206.941 6  23302335.648                    23302347.340
 128425574.758 6 100072024.09843  24438612.680                    24438626.551
 108824642.820 8  84798535.68146  20708617.586                    20708623.730
 124026271.236 6  96643914.24944  23601420.656                    23601430.621
 11  8 29  0  9  0.0000000  0  9G17G10G04G12G05G25G09G02G30
 124508708.005 6  97019838.505 6  23693224.656                    23693236.375
 110489940.852 8  86096287.22746  21025543.000                    21025552.055
 117980379.280 7  91932873.26145  22450904.938                    22450915.152
 110461689.815 8  86074118.382 7  21020162.938                    21020171.215
 111284352.551 8  86715153.079 7  21176687.227                    21176696.590
 122366620.957 7  95350659.960 6  23285595.617                    23285607.582
 128506771.583 6 100135294.19543  24454063.891                    24454078.813
 108836247.479 8  84807578.28546  20710825.359                    20710832.066
 123934950.137 6  96572754.97844  23584043.516                    23584053.043
 11  8 29  0  9 30.0000000  0  9G17G10G04G12G05G25G09G02G30
 124569044.007 7  97066853.505 6  23704706.492                    23704718.027
 110523321.123 8  86122297.81946  21031895.539                    21031904.379
 118060781.225 7  91995524.08944  22466205.375                    22466215.441
 110424675.924 8  86045276.393 7  21013119.234                    21013127.566
 111213792.615 8  86660171.356 7  21163260.180                    21163269.797
 122278956.210 7  95282349.829 7  23268913.461                    23268925.102
 128587969.719 6 100198565.30543  24469515.555                    24469529.773
 108848075.048 8  84816794.57546  20713076.492                    20713082.836
 123843961.328 6  96501854.62343  23566728.359                    23566737.836
 11  8 29  0 10  0.0000000  0  9G17G10G04G12G05G25G09G02G30
 124629564.358 6  97114012.158 6  23716222.828                    23716235.164
 110557302.040 7  86148776.45746  21038361.516                    21038370.863
 118141227.400 7  92058209.39544  22481513.648                    22481523.418
 110388189.388 8  86016845.319 7  21006176.141                    21006184.797
 111143674.092 8  86605533.604 7  21149917.359                    21149926.594
 122191598.184 7  95214278.708 7  23252289.625                    23252301.734
 128669166.011 6 100261834.95243  24484966.992                    24484981.605
 108860124.566 8  84826183.84646  20715369.203                    20715375.906
 123753307.599 6  96431215.38544  23549477.891                    23549487.219
 11  8 29  0 10 30.0000000  0  9G17G10G04G12G05G25G09G02G30
 124690269.449 7  97161314.771 6  23727775.328                    23727787.047
 110591882.884 8  86175722.56246  21044942.219                    21044951.348
 118221716.179 7  92120927.87544  22496830.250                    22496840.109
 110352232.335 8  85988826.818 7  20999333.813                    20999341.988
 111073999.640 8  86551241.892 7  21136658.828                    21136667.656
 122104549.869 7  95146448.909 7  23235724.930                    23235737.094
 128750357.643 6 100325100.98043  24500416.648                    24500432.008
 108872395.104 8  84835745.31846  20717704.430                    20717710.664
 123662992.124 7  96360839.71844  23532290.500                    23532300.922
 11  8 29  0 11  0.0000000  0  9G17G10G04G12G05G25G09G02G30
 124751159.618 7  97208761.599 6  23739362.328                    23739373.930
 110627062.124 8  86203134.95646  21051636.531                    21051645.555
 118302246.278 7  92183678.56244  22512154.195                    22512164.559
 110316805.797 8  85961221.707 7  20992592.445                    20992600.891
 111004771.502 8  86497297.937 7  21123484.594                    21123494.023
 122017813.656 7  95078862.296 7  23219219.227                    23219231.477
 128831541.260 6 100388360.74843  24515865.320                    24515880.781
 108884885.057 8  84845477.76146  20720080.914                    20720087.367
 123573017.414 6  96290729.56444  23515168.836                    23515178.883
 11  8 29  0 11 30.0000000  0  9G17G10G04G12G05G25G09G02G30
 124812235.279 7  97256352.935 6  23750984.813                    23750996.285
 110662838.524 8  86231012.66846  21058444.398                    21058453.398
 118382816.297 7  92246460.35844  22527486.164                    22527496.520
 110281911.614 8  85934031.437 7  20985952.000                    20985960.453
 110935992.021 8  86443703.579 7  21110396.414                    21110405.773
 121931392.347 7  95011521.048 7  23202773.891                    23202786.094
 128912713.835 6 100451611.91144  24531312.688                    24531327.984
 108897593.637 8  84855380.56146  20722499.172                    20722505.898
 123483386.443 6  96220887.26244  23498113.602                    23498122.980
 11  8 29  0 12  0.0000000  0  9G17G10G04G12G05G25G09G02G30
 124873496.553 6  97304088.920 6  23762641.703                    23762653.449
 110699210.486 8  86259354.45446  21065365.828                    21065374.602
 118463424.396 7  92309271.80945  22542825.680                    22542836.016
 110247550.930 8  85907256.864 7  20979413.766                    20979422.113
 110867662.995 8  86390460.239 7  21097393.516                    21097403.289
 121845288.231 7  94944426.995 7  23186388.844                    23186401.172
 128993872.308 6 100514852.09943  24546756.258                    24546771.781
 108910519.016 8  84865452.29646  20724959.102                    20724965.645
 123394101.489 7  96151314.58543  23481122.750                    23481132.340
 11  8 29  0 12 30.0000000  0  9G17G10G04G12G05G25G09G02G30
 124934943.967 6  97351969.957 6  23774335.734                    23774347.145
 110736176.602 8  86288159.21546  21072400.563                    21072409.184
 118544069.264 7  92372111.93045  22558172.367                    22558182.281
 110213725.707 8  85880899.536 7  20972976.844                    20972985.453
 110799787.264 8  86337570.123 7  21084477.000                    21084486.996
 121759504.162 7  94877582.277 7  23170065.266                    23170076.492
 129075013.464 6 100578078.78243  24562197.195                    24562212.031
 108923660.364 8  84875692.32146  20727459.828                    20727465.992
 123305165.545 7  96082013.87143  23464198.867                    23464208.609
 11  8 29  0 13  0.0000000  0  9G17G10G04G12G05G25G09G02G30
 124996577.527 6  97399996.012 6  23786063.508                    23786075.539
 110773735.287 8  86317425.71546  21079547.531                    21079556.383
 118624749.744 7  92434979.79844  22573524.961                    22573535.211
 110180436.770 8  85854960.107 7  20966642.375                    20966650.711
 110732366.275 8  86285034.337 7  21071647.000                    21071656.977
 121674042.671 7  94810988.950 7  23153801.828                    23153814.414
 129156134.354 6 100641289.67643  24577635.313                    24577649.422
 108937016.582 8  84886099.78846  20730001.094                    20730007.543
 123216581.382 7  96012987.28844  23447341.438                    23447351.645
 11  8 29  0 13 30.0000000  0  9G17G10G04G12G05G25G09G02G30
 125058397.670 6  97448167.487 6  23797827.984                    23797839.250
 110811885.550 8  86347153.19546  21086807.383                    21086816.668
 118705464.204 7  92497874.13844  22588884.766                    22588894.469
 110147686.089 8  85829440.109 7  20960409.930                    20960418.434
 110665402.680 8  86232854.973 7  21058904.641                    21058914.281
 121588906.523 7  94744649.130 7  23137601.102                    23137613.070
 129237232.039 6 100704482.50443  24593067.086                    24593082.453
 108950586.359 8  84896673.66146  20732583.539                    20732589.832
 123128351.726 6  95944236.95544  23430552.258                    23430562.234
 11  8 29  0 14  0.0000000  0  9G17G10G04G12G05G25G09G02G30
 125120404.946 6  97496484.760 6  23809627.703                    23809639.359
 110850625.809 8  86377340.40046  21094179.117                    21094188.066
 118786211.365 7  92560793.96444  22604250.164                    22604260.414
 110115475.143 8  85804340.659 7  20954280.711                    20954288.840
 110598899.017 8  86181033.997 7  21046249.719                    21046258.934
 121504098.320 7  94678564.845 6  23121462.445                    23121474.230
 129318303.290 6 100767654.66643  24608494.477                    24608509.445
 108964368.636 8  84907413.11946  20735206.188                    20735212.469
 123040479.389 6  95875765.06644  23413830.750                    23413840.824
 11  8 29  0 14 30.0000000  0  9G17G10G04G12G05G25G09G02G30
 125182599.291 6  97544947.827 6  23821462.477                    23821474.242
 110889954.622 8  86407986.23346  21101663.469                    21101672.594
 118866989.930 7  92623738.24745  22619621.828                    22619632.188
 110083805.374 8  85779662.928 7  20948253.883                    20948262.480
 110532857.443 8  86129573.087 7  21033682.211                    21033691.672
 121419620.783 7  94612738.230 7  23105387.000                    23105399.156
 129399345.187 6 100830803.96643  24623916.203                    24623931.578
 108978362.117 8  84918317.12446  20737869.133                    20737875.523
 122952967.124 7  95807573.74544  23397177.625                    23397187.230
 11  8 29  0 15  0.0000000  0  9G17G10G04G12G05G25G09G02G30
 125244981.139 6  97593556.946 6  23833333.469                    23833345.406
 110929870.330 8  86439089.38046  21109259.063                    21109267.973
 118947798.375 7  92686705.82844  22634999.914                    22635009.633
 110052678.148 8  85755407.958 7  20942330.828                    20942338.676
 110467280.010 8  86078473.842 7  21021203.070                    21021212.898
 121335476.480 7  94547171.281 7  23089375.188                    23089386.777
 129480354.501 6 100893927.90443  24639332.516                    24639347.113
 108992565.561 8  84929384.74246  20740571.789                    20740578.113
 122865817.738 6  95739665.17944  23380593.195                    23380603.063
 11  8 29  0 15 30.0000000  0  9G17G10G04G12G05G25G09G02G30
 125307550.641 6  97642312.366 6  23845240.211                    23845252.414
 110970371.188 8  86470648.48946  21116966.023                    21116975.027
 119028635.444 7  92749695.71444  22650382.469                    22650392.371
 110022094.586 8  85731576.621 7  20936510.969                    20936519.313
 110402168.787 8  86027737.875 7  21008812.656                    21008822.277
 121251667.998 7  94481866.027 7  23073426.227                    23073438.781
 129561328.420 6 100957024.26143  24654741.375                    24654756.500
 109006978.042 8  84940615.25346  20743314.344                    20743320.973
 122779033.825 6  95672041.40444  23364078.805                    23364088.668
 11  8 29  0 16  0.0000000  0  9G17G10G04G12G05G25G09G02G30
 125370308.129 6  97691214.235 6  23857182.844                    23857194.496
 111011455.091 8  86502661.91346  21124784.203                    21124792.793
 119109499.517 7  92812706.64644  22665769.945                    22665779.992
 109992056.169 8  85708170.074 7  20930794.555                    20930802.875
 110337525.206 8  85977366.309 7  20996511.414                    20996521.109
 121168197.679 7  94416824.274 7  23057542.711                    23057554.531
 129642263.489 6 101020090.27843  24670143.055                    24670158.125
 109021597.873 8  84952007.33946  20746096.563                    20746103.152
 122692617.753 6  95604704.28544  23347634.023                    23347644.410
 11  8 29  0 16 30.0000000  0  9G17G10G04G12G05G25G09G02G30
 125433253.953 6  97740262.846 6  23869160.906                    23869173.621
 111053121.364 8  86535129.14245  21132712.570                    21132722.156
 119190389.534 7  92875737.78544  22681163.141                    22681172.941
 109962564.018 8  85685189.196 7  20925182.117                    20925191.281
 110273352.313 8  85927361.504 7  20984299.898                    20984309.328
 121085068.412 7  94352048.254 7  23041723.398                    23041735.695
 129723157.046 6 101083124.03643  24685535.930                    24685551.770
 109036424.269 8  84963560.37746  20748917.695                    20748924.391
 122606572.570 7  95537656.14044  23331260.602                    23331270.383
 11  8 29  0 17  0.0000000  0  9G17G10G04G12G05G25G09G02G30
 125496388.271 6  97789458.349 6  23881175.508                    23881187.086
 111095368.235 8  86568048.77346  21140752.016                    21140761.113
 119271304.106 7  92938788.05144  22696560.422                    22696570.531
 109933619.863 8  85662635.332 7  20919674.859                    20919682.645
 110209652.249 8  85877725.150 7  20972178.258                    20972187.234
 121002282.833 7  94287540.024 7  23025970.172                    23025982.020
 129804006.096 6 101146123.15143  24700920.781                    24700936.695
 109051455.993 8  84975273.41446  20751778.141                    20751784.680
 122520901.022 7  95470899.15144  23314958.227                    23314967.102
 11  8 29  0 17 30.0000000  0  9G17G10G04G12G05G25G09G02G30
 125559711.160 6  97838800.766 6  23893224.555                    23893236.996
 111138193.612 7  86601419.19946  21148901.453                    21148910.645
 119352241.818 7  93001856.35544  22711963.023                    22711972.461
 109905224.693 8  85640509.226 7  20914270.875                    20914279.512
 110146426.544 8  85828458.416 7  20960146.641                    20960155.848
 120919843.290 7  94223301.455 7  23010282.438                    23010294.121
 129884807.535 6 101209085.10842  24716298.133                    24716313.703
 109066691.436 8  84987145.18346  20754677.594                    20754683.754
 122435605.532 6  95404435.20744  23298726.133                    23298736.082
 11  8 29  0 18  0.0000000  0  9G17G10G04G12G05G25G09G02G30
 125623222.882 6  97888290.337 6  23905310.602                    23905323.512
 111181596.245 8  86635239.41346  21157160.859                    21157170.012
 119433201.519 7  93064941.78644  22727368.805                    22727378.586
 109877380.117 8  85618812.165 7  20908972.242                    20908980.949
 110083677.434 8  85779563.069 7  20948205.758                    20948215.344
 120837752.477 7  94159334.636 7  22994661.117                    22994672.840
 129965558.443 6 101272007.63243  24731665.047                    24731679.367
 109082130.051 8  84999175.27346  20757615.078                    20757621.621
 122350688.882 6  95338266.44444  23282567.141                    23282577.309
 11  8 29  0 18 30.0000000  0  9G17G10G04G12G05G25G09G02G30
 125686923.984 6  97937927.489 6  23917433.156                    23917445.992
 111225574.529 8  86669508.20646  21165529.961                    21165538.703
 119514181.915 7  93128043.34944  22742779.078                    22742789.383
 109850087.781 8  85597545.431 7  20903778.875                    20903787.098
 110021407.266 8  85731040.909 7  20936355.844                    20936365.191
 120756013.247 7  94095641.752 7  22979106.359                    22979118.254
 130046255.734 7 101334888.41443  24747021.477                    24747036.230
 109097770.708 8  85011362.79146  20760591.898                    20760597.996
 122266154.015 7  95272395.15244  23266480.992                    23266490.469
 11  8 29  0 19  0.0000000  0  9G17G10G04G12G05G25G09G02G30
 125750814.378 6  97987712.143 6  23929590.570                    23929603.152
 111270126.424 8  86704223.95646  21174007.828                    21174016.590
 119595181.655 7  93191159.99144  22758192.273                    22758202.816
 109823347.682 8  85576708.994 7  20898690.500                    20898698.484
 109959617.735 8  85682893.265 7  20924597.813                    20924607.215
 120674627.835 7  94032224.569 7  22963619.625                    22963631.051
 130126896.260 6 101397725.04743  24762367.430                    24762381.500
 109113611.732 8  85023706.44646  20763605.984                    20763612.723
 122182003.251 6  95206823.18144  23250467.352                    23250477.316
 11  8 29  0 19 30.0000000  0  9G17G10G04G12G05G25G09G02G30
 125814894.651 6  98037644.727 6  23941785.195                    23941797.102
 111315250.629 8  86739385.67446  21182594.313                    21182603.277
 119676199.426 7  93254290.67144  22773609.703                    22773620.066
 109797162.026 8  85556304.584 7  20893707.734                    20893715.840
 109898311.183 8  85635121.987 7  20912931.656                    20912940.824
 120593599.094 7  93969085.322 7  22948200.180                    22948211.648
 130207477.337 7 101460515.33043  24777700.578                    24777715.848
 109129652.344 8  85036205.62346  20766658.438                    20766665.285
 122098239.663 6  95141552.88144  23234528.375                    23234537.684
 11  8 29  0 20  0.0000000  0  9G17G10G04G12G05G25G09G02G30
 125879164.811 6  98087725.310 6  23954014.867                    23954027.656
 111360945.365 8  86774991.95945  21191290.016                    21191298.949
 119757234.291 7  93317434.68544  22789030.445                    22789040.262
 109771531.830 8  85536333.011 7  20888829.922                    20888838.664
 109837489.830 8  85587728.780 7  20901357.859                    20901366.781
 120512929.647 7  93906226.045 7  22932849.320                    22932860.973
 130287996.021 7 101523256.96344  24793022.930                    24793038.652
 109145891.510 8  85048859.51346  20769748.648                    20769755.480
 122014865.721 6  95076586.23244  23218662.344                    23218671.734
 11  8 29  0 20 30.0000000  0  9G17G10G04G12G05G25G09G02G30
 125943624.839 6  98137953.802 6  23966281.289                    23966293.859
 111407208.494 8  86811041.14445  21200093.086                    21200102.254
 119838284.628 7  93380590.73144  22804453.039                    22804463.930
 109746458.137 8  85516795.074 7  20884059.008                    20884067.563
 109777155.081 8  85540714.734 7  20889876.445                    20889885.320
 120432621.871 7  93843648.583 7  22917567.141                    22917578.848
 130368449.209 6 101585947.59844  24808332.750                    24808348.941
 109162327.726 8  85061666.95246  20772876.516                    20772882.949
 121931884.091 7  95011925.26644  23202871.148                    23202880.824
 11  8 29  0 21  0.0000000  0  9G17G10G04G12G05G25G09G02G30
 126008275.196 6  98188330.602 6  23978583.992                    23978596.844
 111454038.148 8  86847531.77745  21209004.750                    21209013.758
 119919349.312 7  93443757.97144  22819879.305                    22819889.457
 109721942.290 8  85497691.817 7  20879393.445                    20879402.066
 109717309.253 8  85494081.671 7  20878488.008                    20878496.887
 120352678.370 8  93781354.966 7  22902354.336                    22902365.906
 130448834.116 6 101648584.98043  24823629.453                    24823645.371
 109178960.123 8  85074627.25746  20776041.656                    20776048.551
 121849297.455 7  94947572.08044  23187155.250                    23187165.438
 11  8 29  0 21 30.0000000  0  9G17G10G04G12G05G25G09G02G30
 126073116.101 6  98238855.896 6  23990923.430                    23990935.750
 111501432.551 8  86884462.47446  21218024.016                    21218032.902
 120000427.026 7  93506935.36544  22835308.211                    22835318.602
 109697985.187 8  85479023.943 7  20874834.633                    20874843.070
 109657954.152 8  85447830.994 7  20867193.141                    20867202.516
 120273101.619 7  93719347.117 7  22887211.695                    22887222.973
 130529147.590 6 101711166.68743  24838912.891                    24838928.609
 109195787.339 8  85087739.37046  20779243.625                    20779250.395
 121767108.172 6  94883528.55644  23171515.063                    23171525.422
 11  8 29  0 22  0.0000000  0  9G17G10G04G12G05G25G09G02G30
 126138147.609 6  98289529.744 6  24003298.609                    24003311.043
 111549390.315 7  86921832.15645  21227149.813                    21227158.883
 120081516.610 7  93570122.02544  22850738.727                    22850749.727
 109674587.839 8  85460792.253 7  20870382.328                    20870390.855
 109599091.855 8  85401964.319 7  20855991.695                    20856001.242
 120193894.169 7  93657627.063 7  22872138.297                    22872149.988
 130609386.957 7 101773690.69544  24854182.406                    24854197.520
 109212808.151 8  85101002.34646  20782482.727                    20782489.367
 121685319.091 6  94819796.85444  23155951.422                    23155961.066
 11  8 29  0 22 30.0000000  0  8G17G10G04G12G05G25G02G30
 126203371.661 6  98340353.642 6  24015710.531                    24015722.176
 111597911.051 8  86959640.51845  21236382.883                    21236391.746
 120162618.729 7  93633318.42144  22866172.508                    22866182.336
 109651753.503 8  85442999.272 7  20866036.906                    20866045.578
 109540725.971 8  85356484.461 7  20844885.055                    20844894.219
 120115060.427 7  93596198.200 7  22857136.695                    22857148.641
 109230023.343 8  85114416.77646  20785758.523                    20785765.059
 121603934.570 7  94756380.39144  23140463.914                    23140474.102
 11  8 29  0 23  0.0000000  0  8G17G10G04G12G05G25G02G30
 126268786.962 6  98391326.523 6  24028158.445                    24028170.895
 111646991.202 8  86997884.78445  21245722.469                    21245731.531
 120243730.645 7  93696522.45644  22881607.836                    22881618.613
 109629481.100 8  85425644.151 7  20861798.813                    20861807.086
 109482857.036 8  85311391.828 7  20833872.922                    20833882.102
 120036601.412 7  93535061.340 7  22842206.406                    22842218.629
 109247430.079 8  85127980.47546  20789070.773                    20789077.496
 121522955.647 7  94693279.98744  23125054.258                    23125064.043
 11  8 29  0 23 30.0000000  0  8G17G10G04G12G05G25G02G30
 126334393.151 6  98442448.160 6  24040643.047                    24040654.984
 111696628.495 7  87036563.19745  21255167.773                    21255177.180
 120324850.513 7  93759732.71144  22897043.906                    22897054.559
 109607771.740 8  85408727.765 7  20857667.500                    20857675.949
 109425486.182 8  85266687.326 8  20822955.930                    20822964.836
 119958519.066 7  93474218.002 7  22827348.008                    22827359.363
 109265027.074 8  85141692.42546  20792419.406                    20792426.117
 121442384.508 6  94630497.32244  23109722.461                    23109732.371
 11  8 29  0 24  0.0000000  0  8G17G10G04G12G05G25G02G30
 126400190.436 6  98493718.703 6  24053163.430                    24053176.133
 111746821.189 7  87075674.37246  21264719.711                    21264728.621
 120405977.288 7  93822948.31144  22912482.078                    22912492.469
 109586626.381 8  85392250.878 7  20853643.828                    20853652.355
 109368615.345 8  85222372.419 7  20812133.250                    20812142.891
 119880816.111 7  93413670.257 7  22812561.656                    22812572.887
 109282813.150 8  85155551.71446  20795803.625                    20795810.805
 121362223.805 7  94568034.47244  23094467.984                    23094477.996
 11  8 29  0 24 30.0000000  0  8G17G10G04G12G05G25G02G30
 126466178.531 6  98545137.950 6  24065720.680                    24065733.129
 111797566.806 8  87115216.40446  21274376.453                    21274384.934
 120487109.757 7  93886168.38244  22927920.977                    22927931.313
 109566045.599 8  85376213.901 7  20849727.484                    20849735.598
 109312246.269 8  85178448.524 8  20801406.656                    20801415.828
 119803494.699 7  93353419.823 7  22797847.852                    22797859.770
 109300786.662 8  85169557.05446  20799223.953                    20799231.035
 121282475.837 7  94505893.25244  23079292.969                    23079302.063
 11  8 29  0 25  0.0000000  0  8G17G10G04G12G05G25G02G30
 126532358.166 6  98596706.438 6  24078314.867                    24078326.680
 111848864.177 8  87155188.38045  21284137.789                    21284146.781
 120568247.043 7  93949392.20244  22943361.094                    22943371.867
 109546030.681 8  85360617.858 7  20845918.719                    20845927.176
 109256381.247 8  85134917.373 8  20790775.938                    20790785.320
 119726557.783 7  93293469.002 7  22783207.125                    22783218.609
 109318947.131 8  85183708.07946  20802680.000                    20802686.695
 121203143.557 7  94444075.91544  23064195.766                    23064206.355
 11  8 29  0 25 30.0000000  0  8G17G10G04G12G05G25G02G30
 126598729.433 7  98648424.221 6  24090944.531                    24090957.047
 111900710.913 7  87195588.42945  21294003.805                    21294012.910
 120649387.719 7  94012618.64344  22958801.672                    22958811.711
 109526582.743 8  85345463.620 7  20842217.727                    20842226.664
 109201021.807 8  85091780.195 8  20780241.547                    20780250.625
 119650007.583 7  93233819.528 7  22768640.023                    22768651.621
 109337293.335 8  85198003.82246  20806171.391                    20806177.891
 121124229.385 7  94382584.40444  23049179.109                    23049189.098
 11  8 29  0 26  0.0000000  0  8G17G10G04G12G05G25G02G30
 126665292.096 6  98700291.157 6  24103610.977                    24103622.984
 111953105.107 7  87236415.06745  21303974.234                    21303983.488
 120730530.741 6  94075846.89944  22974242.266                    22974253.355
 109507702.538 8  85330751.781 7  20838625.195                    20838633.590
 109146169.384 8  85049038.097 8  20769803.242                    20769812.445
 119573846.740 7  93174473.470 7  22754147.227                    22754159.113
 109355823.827 8  85212443.17646  20809697.336                    20809703.969
 121045735.888 6  94321420.68544  23034242.359                    23034251.832
 11  8 29  0 26 30.0000000  0  8G17G10G04G12G05G25G02G30
 126732046.529 7  98752307.514 6  24116313.773                    24116326.555
 112006045.017 8  87277666.93945  21314048.547                    21314057.629
 120811675.267 7  94139076.36144  22989683.711                    22989694.270
 109489391.204 8  85316483.220 7  20835140.367                    20835148.984
 109091826.294 8  85006692.877 7  20759462.328                    20759471.066
 119498077.995 7  93115432.889 7  22739729.344                    22739740.871
 109374538.130 8  85227025.75846  20813258.672                    20813265.605
 120967665.850 7  94260586.90644  23019386.008                    23019395.859
 11  8 29  0 27  0.0000000  0  8G17G10G04G12G05G25G02G30
 126798992.661 6  98804473.230 6  24129053.367                    24129065.922
 112059528.027 8  87319342.00345  21324225.914                    21324234.984
 120892819.658 7  94202305.69544  23005125.539                    23005135.871
 109471649.331 8  85302658.374 7  20831764.227                    20831772.328
 109037993.926 8  84964745.625 8  20749218.445                    20749227.324
 119422703.447 7  93056699.499 7  22725385.641                    22725397.695
 109393434.582 8  85241750.26846  20816854.688                    20816861.238
 120890021.560 7  94200084.88744  23004610.930                    23004620.746
 11  8 29  0 27 30.0000000  0  8G17G10G04G12G05G25G02G30
 126866130.863 6  98856788.642 6  24141829.945                    24141841.762
 112113552.441 8  87361438.94645  21334506.156                    21334515.340
 120973963.344 7  94265534.49344  23020566.805                    23020576.988
 109454477.830 8  85289277.973 7  20828496.828                    20828505.313
 108984674.451 8  84923198.024 7  20739071.781                    20739080.918
 119347725.625 7  92998275.248 7  22711117.977                    22711129.727
 109412512.302 8  85256616.03046  20820484.766                    20820491.566
 120812805.531 7  94139916.58044  22989917.227                    22989927.402
 11  8 29  0 28  0.0000000  0  8G17G10G04G12G05G25G02G30
 126933461.105 6  98909253.660 6  24154641.383                    24154654.484
 112168115.816 8  87403955.84845  21344889.141                    21344898.613
 121055104.855 7  94328761.58944  23036007.297                    23036017.375
 109437877.343 8  85276342.527 8  20825337.539                    20825346.230
 108931868.894 8  84882050.870 8  20729023.156                    20729032.262
 119273146.771 7  92940161.884 7  22696926.273                    22696937.633
 109431769.879 8  85271621.94346  20824149.688                    20824156.406
 120736020.132 7  94080083.83644  22975305.367                    22975315.512
 11  8 29  0 28 30.0000000  0  8G17G10G04G12G05G25G02G30
 127000983.584 6  98961868.509 6  24167490.695                    24167503.797
 112223216.775 8  87446891.65545  21355374.797                    21355383.707
 121136243.260 7  94391986.23144  23051447.703                    23051458.051
 109421849.386 8  85263853.214 8  20822287.430                    20822296.199
 108879579.572 8  84841306.002 8  20719072.523                    20719081.633
 119198969.834 7  92882361.683 7  22682810.344                    22682822.008
 109451206.774 8  85286767.57746  20827848.203                    20827855.164
 120659668.254 7  94020588.87044  22960775.984                    22960785.633
 11  8 29  0 29  0.0000000  0  8G17G10G04G12G05G25G02G30
 127068698.271 6  99014633.105 6  24180377.859                    24180389.609
 112278853.196 8  87490244.68945  21365962.195                    21365970.840
 121217377.916 7  94455207.98444  23066886.789                    23066897.258
 109406394.001 8  85251810.044 7  20819346.578                    20819355.012
 108827808.135 8  84800964.653 8  20709221.125                    20709229.902
 119125197.346 7  92824876.646 7  22668771.703                    22668783.910
 109470821.763 8  85302051.98946  20831580.797                    20831587.813
 120583752.463 7  93961433.72644  22946329.758                    22946339.023
 11  8 29  0 29 30.0000000  0  8G17G10G04G12G05G25G02G30
 127136605.076 6  99067547.457 6  24193298.969                    24193311.820
 112335022.247 8  87534012.78545  21376650.766                    21376659.801
 121298507.236 7  94518425.57744  23082325.563                    23082335.270
 109391512.083 8  85240213.733 7  20816514.820                    20816522.910
 108776556.112 8  84761028.060 8  20699467.805                    20699477.137
 119051831.237 7  92767708.283 7  22654811.234                    22654822.758
 109490613.364 8  85317474.00746  20835347.211                    20835353.953
 120508274.878 6  93902620.04644  22931966.398                    22931976.309
 11  8 29  0 30  0.0000000  0  8G17G10G04G12G05G25G02G30
 127204704.014 6  99120611.501 5  24206258.016                    24206270.703
 112391721.369 8  87578193.89845  21387440.055                    21387449.375
 121379629.890 7  94581637.96744  23097762.609                    23097772.738
 109377204.191 8  85229064.709 8  20813791.945                    20813800.754
 108725824.791 8  84721497.195 8  20689814.180                    20689823.484
 118978873.667 7  92710858.228 7  22640928.023                    22640939.160
 109510580.087 8  85333032.50446  20839146.641                    20839152.738
 120433237.523 7  93844149.39744  22917687.406                    22917697.309
 11  8 29  0 30 30.0000000  0  8G17G10G04G12G05G25G02G30
 127272995.322 6  99173825.438 6  24219253.227                    24219265.711
 112448949.159 8  87622786.96445  21398330.484                    21398339.535
 121460745.199 7  94644844.63844  23113198.070                    23113208.695
 109363471.440 8  85218363.866 7  20811178.867                    20811187.172
 108675615.779 8  84682373.332 8  20680259.805                    20680268.777
 118906327.477 7  92654328.742 7  22627122.266                    22627133.613
 109530721.542 8  85348727.13846  20842979.125                    20842985.828
 120358643.452 7  93786024.17544  22903492.773                    22903502.918
 11  8 29  0 31  0.0000000  0  8G17G10G04G12G05G25G02G30
 127341479.296 6  99227189.515 6  24232284.969                    24232297.887
 112506703.358 8  87667790.22845  21409320.133                    21409329.523
 121541852.330 7  94708044.92844  23128632.820                    23128643.238
 109350314.653 8  85208111.816 7  20808675.273                    20808683.582
 108625930.713 8  84643657.739 8  20670804.820                    20670814.160
 118834195.152 7  92598121.753 7  22613396.695                    22613407.516
 109551036.997 8  85364557.35946  20846845.125                    20846851.441
 120284495.174 7  93728246.31744  22889383.055                    22889392.438
 11  8 29  0 31 30.0000000  0  8G17G10G04G12G05G25G02G30
 127410155.546 6  99280703.467 6  24245354.531                    24245367.074
 112564981.718 7  87713201.91945  21420410.617                    21420419.781
 121622950.186 7  94771237.98544  23144064.797                    23144075.402
 109337733.818 8  85198308.555 7  20806280.789                    20806289.398
 108576771.232 8  84605351.693 8  20661450.063                    20661459.203
 118762479.057 7  92542239.084 7  22599749.391                    22599760.906
 109571524.856 8  85380521.92246  20850744.148                    20850750.637
 120210794.978 7  93670817.60044  22875357.758                    22875367.984
 11  8 29  0 32  0.0000000  0  8G17G10G04G12G05G25G02G30
 127479024.255 6  99334367.348 6  24258459.469                    24258472.477
 112623782.053 8  87759020.34545  21431599.875                    21431608.809
 121704037.779 7  94834423.06544  23159495.922                    23159505.836
 109325730.055 8  85188954.959 7  20803997.063                    20804005.262
 108528139.069 8  84567456.547 8  20652195.766                    20652204.691
 118691181.620 7  92486682.639 7  22586181.906                    22586193.582
 109592184.290 8  85396620.17946  20854675.234                    20854682.180
 120137545.399 7  93613740.03244  22861419.445                    22861429.387
 11  8 29  0 32 30.0000000  0  8G17G10G04G12G05G25G02G30
 127548085.325 6  99388181.136 6  24271601.789                    24271613.848
 112683102.000 7  87805243.65745  21442888.117                    21442897.500
 121785113.824 7  94897599.14244  23174924.125                    23174934.480
 109314303.567 8  85180051.192 7  20801822.578                    20801831.098
 108480035.223 8  84529973.068 8  20643041.617                    20643050.914
 118620304.953 7  92431454.074 7  22572694.203                    22572706.059
 109613013.528 8  85412850.75346  20858639.164                    20858645.738
 120064748.587 6  93557015.28844  22847566.609                    22847576.336
 11  8 29  0 33  0.0000000  0  8G17G10G04G12G05G25G02G30
 127617338.962 6  99442144.966 6  24284780.023                    24284793.172
 112742939.314 8  87851870.12645  21454274.758                    21454284.227
 121866177.507 7  94960765.58344  23190349.070                    23190360.590
 109303455.056 8  85171597.797 7  20799758.102                    20799766.805
 108432461.642 8  84492902.791 8  20633988.922                    20633998.070
 118549851.492 7  92376555.274 7  22559287.602                    22559299.348
 109634012.166 8  85429213.31946  20862634.766                    20862641.223
 119992406.962 7  93500645.20844  22833800.516                    22833810.012
 11  8 29  0 33 30.0000000  0  8G17G10G04G12G05G25G02G30
 127686785.262 6  99496258.914 6  24297995.000                    24298007.945
 112803292.068 8  87898898.22845  21465759.727                    21465768.371
 121947228.026 7  95023921.76744  23205773.172                    23205784.098
 109293185.538 8  85163595.575 7  20797803.836                    20797812.055
 108385420.160 8  84456247.134 8  20625037.086                    20625046.305
 118479823.907 7  92321988.326 7  22545961.891                    22545973.391
 109655179.495 8  85445707.32546  20866663.195                    20866669.211
 119920523.235 7  93444631.94344  22820121.195                    22820131.059
 11  8 29  0 34  0.0000000  0  8G17G10G04G12G05G25G02G30
 127756424.038 7  99550522.849 6  24311247.109                    24311259.699
 112864158.019 8  87946326.22745  21477341.938                    21477350.797
 122028264.356 7  95087066.92144  23221194.148                    23221204.137
 109283495.482 8  85156044.872 7  20795960.008                    20795968.398
 108338911.799 8  84420006.885 7  20616186.688                    20616195.496
 118410224.515 7  92267755.054 7  22532717.250                    22532728.668
 109676514.187 8  85462331.74546  20870723.164                    20870729.188
 119849099.716 7  93388977.27744  22806529.406                    22806539.313
 11  8 29  0 34 30.0000000  0  8G17G10G04G12G05G25G02G30
 127826255.276 6  99604936.740 6  24324535.734                    24324548.398
 112925534.475 8  87994152.02045  21489021.805                    21489030.797
 122109285.504 7  95150200.20744  23236611.359                    23236622.371
 109274385.112 8  85148945.880 7  20794226.180                    20794234.512
 108292937.868 8  84384183.082 8  20607438.172                    20607447.223
 118341055.365 7  92213857.035 7  22519554.867                    22519566.633
 109698015.171 8  85479085.74346  20874814.711                    20874820.793
 119778138.514 6  93333682.85244  22793026.523                    22793035.234
 11  8 29  0 35  0.0000000  0  8G17G10G04G12G05G25G02G30
 127896279.007 7  99659500.674 6  24337860.844                    24337873.391
 112987419.729 7  88042374.27045  21500797.516                    21500807.039
 122190290.739 7  95213321.11044  23252026.594                    23252037.250
 109265855.147 8  85142299.147 7  20792603.164                    20792611.723
 108247499.863 8  84348776.885 8  20598791.383                    20598800.707
 118272319.013 7  92160296.257 7  22506474.938                    22506486.211
 109719681.404 8  85495968.51046  20878937.313                    20878943.746
 119707642.304 6  93278750.74544  22779611.328                    22779620.598
 11  8 29  0 35 30.0000000  0  8G17G10G04G12G05G25G02G30
 127966494.982 7  99714214.364 6  24351223.055                    24351234.879
 113049810.660 7  88090990.56545  21512670.523                    21512679.531
 122271278.746 7  95276428.60444  23267438.016                    23267448.996
 109257905.471 8  85136104.577 7  20791090.523                    20791098.746
 108202599.017 8  84313789.260 8  20590247.266                    20590256.148
 118204017.509 7  92107074.321 7  22493477.328                    22493488.691
 109741511.389 8  85512978.88746  20883091.727                    20883097.797
 119637613.000 7  93224182.49045  22766285.422                    22766295.227
 11  8 29  0 36  0.0000000  0  8G17G10G04G12G05G25G02G30
 128036903.258 7  99769077.907 6  24364621.164                    24364633.695
 113112705.036 7  88139999.16345  21524638.805                    21524647.762
 122352248.573 6  95339521.91944  23282846.539                    23282857.031
 109250537.022 8  85130362.933 7  20789688.352                    20789697.004
 108158236.587 8  84279221.181 8  20581805.242                    20581814.141
 118136153.022 7  92054192.919 7  22480563.094                    22480574.508
 109763504.332 8  85530116.23346  20887276.727                    20887282.988
 119568052.848 7  93169979.80844  22753048.469                    22753058.508
 11  8 29  0 36 30.0000000  0  9G17G10G04G12G05G25G29G02G30
 128107503.916 7  99824091.342 6  24378055.563                    24378068.527
 113176100.736 7  88189398.39345  21536702.297                    21536711.680
 122433199.540 6  95402600.53344  23298250.234                    23298262.043
 109243749.994 8  85125074.331 7  20788396.703                    20788405.172
 108114414.414 8  84245074.069 8  20573466.289                    20573475.277
 118068728.030 7  92001654.025 7  22467732.516                    22467743.824
 129570193.76416 100963830.49216  24656398.078                    24656407.484
 109785659.275 8  85547379.80946  20891492.742                    20891498.801
 119498964.383 7  93116144.64944  22739900.633                    22739911.316
 11  8 29  0 37  0.0000000  0  9G17G10G04G12G05G25G29G02G30
 128178297.129 6  99879254.882 6  24391527.453                    24391539.945
 113239995.786 7  88239186.72245  21548861.492                    21548871.078
 122514131.296 6  95465664.18943  23313651.711                    23313662.293
 109237545.186 7  85120239.413 7  20787216.133                    20787224.555
 108071133.937 8  84211349.073 8  20565230.234                    20565239.531
 118001745.360 7  91949459.761 7  22454986.125                    22454997.672
 129489899.106 6 100901263.233 6  24641118.914                    24641128.660
 109807975.821 8  85564769.31246  20895739.375                    20895745.348
 119430350.434 7  93062679.23844  22726844.414                    22726854.504
 11  8 29  0 37 30.0000000  0  9G17G10G04G12G05G25G29G02G30
 128249283.310 7  99934568.769 6  24405035.828                    24405048.145
 113304387.701 8  88289362.22745  21561114.969                    21561124.012
 122595042.827 6  95528712.08744  23329049.070                    23329059.629
 109231923.360 8  85115858.758 7  20786146.031                    20786154.695
 108028396.552 8  84178047.265 8  20557097.656                    20557106.359
 117935207.309 7  91897611.983 7  22442324.359                    22442335.465
 129409524.136 6 100838633.404 6  24625823.203                    24625834.000
 109830452.858 8  85582283.88146  20900016.648                    20900022.762
 119362213.206 6  93009585.27944  22713878.063                    22713888.234
 11  8 29  0 38  0.0000000  0  9G17G10G04G12G05G25G29G02G30
 128320461.251 7  99990032.086 6  24418579.664                    24418593.043
 113369273.392 8  88339922.48445  21573462.461                    21573471.594
 122675932.767 6  95591743.11444  23344441.805                    23344453.070
 109226883.790 8  85111931.817 7  20785187.188                    20785195.582
 107986203.167 8  84145169.338 8  20549068.070                    20549076.910
 117869115.298 7  91846111.744 7  22429747.734                    22429758.477
 129329068.470 6 100775940.726 6  24610513.102                    24610524.039
 109853088.705 8  85599922.19446  20904324.039                    20904330.582
 119294554.210 7  92956863.99944  22701003.414                    22701012.730
 11  8 29  0 38 30.0000000  0  9G17G10G04G12G05G25G29G02G30
 128391830.847 7 100045644.748 6  24432161.734                    24432174.223
 113434650.285 8  88390865.51245  21585903.594                    21585912.551
 122756799.851 6  95654756.39144  23359830.508                    23359841.012
 109222426.583 7  85108458.667 7  20784338.703                    20784347.473
 107944554.324 8  84112715.744 8  20541142.656                    20541151.633
 117803471.498 7  91794960.765 7  22417255.797                    22417267.859
 129248532.762 7 100713185.663 6  24595188.102                    24595198.465
 109875882.023 8  85617683.22346  20908661.172                    20908667.566
 119227375.658 7  92904517.08345  22688219.203                    22688229.320
 11  8 29  0 39  0.0000000  0  9G17G10G04G12G05G25G29G02G30
 128463392.095 6 100101406.799 6  24445779.617                    24445791.887
 113500516.060 8  88442189.47145  21598436.938                    21598445.992
 122837643.413 6  95717751.31544  23375213.633                    23375224.691
 109218552.181 8  85105439.643 7  20783601.813                    20783610.125
 107903451.466 8  84080687.600 8  20533320.969                    20533329.691
 117738278.130 7  91744160.785 7  22404850.039                    22404861.773
 129167917.584 7 100650368.640 6  24579846.570                    24579857.727
 109898831.861 7  85635566.21046  20913028.578                    20913035.227
 119160679.844 7  92852546.32244  22675527.500                    22675537.496
 11  8 29  0 39 30.0000000  0  9G17G10G04G12G05G25G29G02G30
 128535145.139 6 100157318.260 6  24459433.000                    24459445.473
 113566868.660 7  88493892.77545  21611063.219                    21611072.273
 122918462.671 6  95780727.25543  23390593.133                    23390604.316
 109215261.331 7  85102875.341 7  20782975.531                    20782983.773
 107862896.219 8  84049086.139 8  20525603.445                    20525612.215
 117673537.775 7  91693713.789 7  22392530.164                    22392541.824
 129087224.014 6 100587490.528 6  24564491.633                    24564502.297
 109921938.052 8  85653571.04946  20917425.438                    20917432.484
 119094469.074 7  92800953.52945  22662928.484                    22662937.719
 11  8 29  0 40  0.0000000  0  9G17G10G04G12G05G25G29G02G30
 128607090.033 6 100213379.194 6  24473124.039                    24473136.289
 113633705.624 8  88545973.52445  21623781.633                    21623791.621
 122999256.858 6  95843683.71144  23405968.500                    23405979.281
 109212553.735 8  85100765.523 7  20782460.328                    20782468.957
 107822889.387 8  84017912.037 8  20517990.711                    20517998.922
 117609252.429 7  91643621.355 7  22380297.016                    22380307.770
 129006452.398 7 100524551.624 6  24549121.469                    24549131.805
 109945199.168 8  85671696.60146  20921852.195                    20921858.859
 119028745.655 7  92749740.47344  22650421.531                    22650431.402
 11  8 29  0 40 30.0000000  0  9G17G10G04G12G05G25G29G02G30
 128679226.277 6 100269589.247 6  24486850.992                    24486863.145
 113701024.240 7  88598429.56045  21636592.516                    21636601.563
 123080025.216 7  95906620.02543  23421337.992                    23421349.363
 109210430.039 8  85099110.692 7  20782055.969                    20782064.828
 107783432.253 8  83987166.257 8  20510482.039                    20510490.938
 117545424.287 7  91593885.187 7  22368151.305                    22368162.180
 128925603.482 7 100461552.536 6  24533736.398                    24533746.668
 109968614.377 8  85689942.22346  20926307.641                    20926314.121
 118963511.604 7  92698908.75744  22638007.813                    22638017.477
 11  8 29  0 41  0.0000000  0  9G17G10G04G12G05G25G29G02G30
 128751554.092 7 100325948.563 6  24500615.070                    24500627.004
 113768822.575 8  88651259.42245  21649494.156                    21649503.137
 123160767.111 7  95969535.78244  23436702.125                    23436713.109
 109208890.320 8  85097910.913 7  20781763.250                    20781771.750
 107744526.407 8  83956850.061 8  20503078.414                    20503087.160
 117482055.787 7  91544507.162 7  22356092.422                    22356104.023
 128844678.108 7 100398493.824 6  24518336.906                    24518347.496
 109992182.592 8  85708307.07646  20930792.484                    20930799.055
 118898769.480 6  92648460.36444  22625688.359                    22625697.172
 11  8 29  0 41 30.0000000  0  8G10G04G12G05G25G29G02G30
 113837099.374 7  88704462.11645  21662486.570                    21662496.336
 123241483.515 6  96032431.62043  23452062.469                    23452073.566
 109207936.644 8  85097167.786 7  20781581.852                    20781590.410
 107706174.704 8  83926965.657 8  20495780.461                    20495789.227
 117419150.945 7  91495490.451 7  22344121.875                    22344133.625
 128763679.008 7 100335377.675 5  24502922.570                    24502932.871
 110015904.984 8  85726792.06946  20935306.656                    20935313.512
 118834523.153 7  92598398.31144  22613462.211                    22613471.160
 11  8 29  0 42  0.0000000  0  8G10G04G12G05G25G29G02G30
 113905849.901 8  88758033.93245  21675569.594                    21675578.609
 123322171.222 7  96095305.07043  23467416.984                    23467427.570
 109207566.545 8  85096879.391 7  20781511.414                    20781519.453
 107668375.492 8  83897511.763 8  20488587.242                    20488596.016
 117356709.329 7  91446834.680 7  22332239.758                    22332251.289
 128682604.262 7 100272202.556 5  24487494.984                    24487504.754
 110039777.896 8  85745394.34946  20939849.211                    20939856.102
 118770772.204 7  92548722.26745  22601330.945                    22601340.438
 11  8 29  0 42 30.0000000  0  8G10G04G12G05G25G29G02G30
 113975071.656 7  88811972.95745  21688741.906                    21688751.434
 123402829.162 7  96158155.38144  23482765.703                    23482776.605
 109207780.009 8  85097045.717 7  20781551.891                    20781560.227
 107631129.819 8  83868489.204 8  20481499.492                    20481508.629
 117294732.952 7  91398541.446 7  22320445.906                    22320457.449
 128601454.038 6 100208968.691 5  24472053.078                    24472063.035
 110063800.084 8  85764112.94046  20944421.063                    20944427.488
 118707518.663 7  92499433.83844  22589294.102                    22589303.938
 11  8 29  0 43  0.0000000  0  8G10G04G12G05G25G29G02G30
 114044762.536 7  88866277.52645  21702003.781                    21702012.988
 123483457.218 6  96220982.37444  23498109.578                    23498119.758
 109208578.046 8  85097667.553 7  20781703.781                    20781711.789
 107594439.223 8  83839899.177 8  20474517.945                    20474526.500
 117233224.508 7  91350612.820 7  22308741.063                    22308752.500
 128520229.921 6 100145677.193 5  24456595.484                    24456606.277
 110087971.598 8  85782947.91046  20949020.633                    20949027.254
 118644765.291 7  92450535.11444  22577352.055                    22577362.590
 11  8 29  0 43 30.0000000  0  8G10G04G12G05G25G29G02G30
 114114919.494 7  88920945.26645  21715354.305                    21715362.949
 123564054.254 7  96283785.22743  23513446.492                    23513456.730
 109209959.999 8  85098744.394 7  20781966.594                    20781975.336
 107558304.484 8  83811742.280 8  20467641.672                    20467650.063
 117172185.643 7  91303050.111 7  22297125.422                    22297137.387
 128438932.296 6 100082328.420 5  24441125.078                    24441135.379
 110112290.858 8  85801898.00746  20953648.523                    20953654.754
 118582513.559 7  92402027.30144  22565505.891                    22565515.277
 11  8 29  0 44  0.0000000  0  8G10G04G12G05G25G29G02G30
 114185539.977 7  88975974.20645  21728793.117                    21728802.168
 123644619.590 7  96346563.35044  23528777.188                    23528787.637
 109211925.647 7  85100276.048 7  20782340.539                    20782349.059
 107522726.433 8  83784019.171 8  20460871.008                    20460879.773
 117111618.487 8  91255854.951 7  22285600.063                    22285611.613
 128357561.586 5 100018922.769 5  24425641.016                    24425650.707
 110136756.821 8  85820962.41046  20958303.883                    20958310.789
 118520765.725 7  92353912.12644  22553755.852                    22553765.422
 11  8 29  0 44 30.0000000  0  8G10G04G12G05G25G29G02G30
 114256622.054 8  89031362.83145  21742319.406                    21742328.457
 123725152.614 7  96409316.31044  23544101.750                    23544113.035
 109214475.683 8  85102263.081 8  20782826.117                    20782834.547
 107487706.580 8  83756731.011 8  20454206.969                    20454215.672
 117051525.563 7  91209029.326 7  22274164.969                    22274175.938
 128276119.242 5  99955461.321 5  24410142.180                    24410152.844
 110161369.145 8  85840140.85246  20962987.781                    20962994.332
 118459524.177 7  92306191.47744  22542102.469                    22542111.645
 11  8 29  0 45  0.0000000  0  8G10G04G12G05G25G29G02G30
 114328162.923 8  89087108.95945  21755933.156                    21755942.195
 123805652.545 7  96472043.46244  23559421.297                    23559431.664
 109217609.890 8  85104705.301 7  20783422.492                    20783430.980
 107453245.628 8  83729878.369 8  20447649.125                    20447657.785
 116991908.780 7  91162574.724 7  22262820.031                    22262831.648
 128194605.676 6  99891944.357 6  24394632.023                    24394642.156
 110186126.615 8  85859432.39346  20967699.203                    20967705.500
 118398790.788 7  92258866.80345  22530545.039                    22530554.594
 11  8 29  0 45 30.0000000  0  8G10G04G12G05G25G29G02G30
 114400159.231 8  89143209.96945  21769633.141                    21769642.770
 123886118.512 7  96534744.13744  23574732.836                    23574743.906
 109221327.634 8  85107602.234 7  20784129.977                    20784138.289
 107419343.923 8  83703461.495 8  20441197.789                    20441206.703
 116932769.568 7  91116492.246 7  22251566.195                    22251577.539
 128113021.330 6  99828372.263 5  24379106.156                    24379116.605
 110211027.806 8  85878835.93846  20972437.500                    20972444.160
 118338567.075 7  92211939.29345  22519084.531                    22519094.348
 11  8 29  0 46  0.0000000  0  8G10G04G12G05G25G29G02G30
 114472609.392 8  89199664.63645  21783420.367                    21783429.570
 123966549.991 6  96597417.90643  23590038.234                    23590049.754
 109225629.528 8  85110954.347 7  20784948.883                    20784957.285
 107386003.167 8  83677481.733 8  20434853.484                    20434862.375
 116874110.653 7  91070784.008 7  22240403.695                    22240415.441
 128031367.296 6  99764745.883 6  24363568.484                    24363578.453
 110236072.545 8  85898351.31946  20977203.305                    20977209.723
 118278855.701 7  92165410.98744  22507722.055                    22507731.984
 11  8 29  0 46 30.0000000  0  8G10G04G12G05G25G29G02G30
 114545510.186 7  89256470.44845  21797292.984                    21797302.246
 124046946.248 7  96660064.30544  23605337.789                    23605348.824
 109230515.039 8  85114761.224 7  20785878.148                    20785887.129
 107353223.932 8  83651939.509 8  20428615.781                    20428624.703
 116815933.696 7  91025451.327 7  22229333.422                    22229344.676
 127949644.226 6  99701065.649 6  24348015.672                    24348026.496
 110261259.587 8  85917977.58246  20981996.219                    20982002.668
 118219658.194 7  92119283.12344  22496456.648                    22496466.328
 11  8 29  0 47  0.0000000  0  8G10G04G12G05G25G29G02G30
 114618859.223 8  89313625.53245  21811250.602                    21811260.086
 124127306.393 7  96722682.53043  23620629.000                    23620640.949
 109235984.460 8  85119023.093 7  20786918.914                    20786927.336
 107321007.202 8  83626835.604 8  20422485.070                    20422493.840
 116758240.842 7  90980495.858 7  22218354.758                    22218365.910
 127867852.919 6  99637332.245 6  24332452.016                    24332462.664
 110286588.049 8  85937714.04546  20986816.211                    20986822.488
 118160976.752 7  92073557.35845  22485290.641                    22485299.477
 11  8 29  0 47 30.0000000  0  8G10G04G12G05G25G29G02G30
 114692653.886 8  89371127.86645  21825293.273                    21825302.680
 124207629.885 7  96785272.16243  23635914.664                    23635925.980
 109242037.257 8  85123739.538 7  20788071.016                    20788079.309
 107289353.217 8  83602170.205 8  20416461.258                    20416469.934
 116701033.999 7  90935919.096 7  22207468.797                    22207479.824
 127785994.189 7  99573546.308 6  24316875.531                    24316885.309
 110312056.921 8  85957559.92346  20991662.398                    20991669.230
 118102813.263 7  92028235.21545  22474221.961                    22474231.781
 11  8 29  0 48  0.0000000  0  8G10G04G12G05G25G29G02G30
 114766891.360 7  89428975.24045  21839420.219                    21839429.383
 124287916.023 7  96847832.71543  23651192.688                    23651203.609
 109248673.401 8  85128910.536 7  20789333.750                    20789341.809
 107258263.335 8  83577944.361 8  20410545.242                    20410553.621
 116644315.125 8  90891722.562 7  22196675.375                    22196685.855
 127704068.747 7  99509708.409 6  24301284.953                    24301295.129
 110337665.534 8  85977514.68546  20996535.813                    20996542.383
 118045169.519 7  91983318.04945  22463252.938                    22463262.910
 11  8 29  0 48 30.0000000  0  8G10G04G12G05G25G29G02G30
 114841568.990 7  89487165.58245  21853631.031                    21853640.328
 124368164.383 6  96910363.81243  23666462.906                    23666474.688
 109255892.542 8  85134535.833 7  20790707.477                    20790715.699
 107227738.016 8  83554158.443 8  20404736.531                    20404745.164
 116588086.195 7  90847907.808 7  22185975.578                    22185986.637
 127622077.443 7  99445819.141 6  24285682.578                    24285693.039
 110363412.955 8  85997577.61446  21001435.328                    21001441.922
 117988047.575 7  91938807.49045  22452382.523                    22452392.438
 11  8 29  0 49  0.0000000  0  8G10G04G12G05G25G29G02G30
 114916684.220 7  89545696.91645  21867925.250                    21867934.656
 124448374.040 7  96972864.78644  23681727.242                    23681738.016
 109263694.489 8  85140615.256 7  20792192.063                    20792200.949
 107197778.273 8  83530813.220 8  20399034.867                    20399043.684
 116532349.200 8  90804476.371 7  22175368.719                    22175379.961
 127540021.233 7  99381879.308 6  24270068.094                    24270077.570
 110389298.323 8  86017748.03146  21006361.016                    21006367.762
 117931449.357 7  91894705.02644  22441612.531                    22441621.605
 11  8 29  0 49 30.0000000  0  8G10G04G12G05G25G29G02G30
 114992233.876 8  89604566.77045  21882301.492                    21882311.188
 124528544.184 6  97035334.92343  23696982.414                    23696994.117
 109272078.534 8  85147148.266 7  20793787.406                    20793796.035
 107168384.689 8  83507909.169 8  20393442.055                    20393450.758
 116477105.691 7  90761429.469 7  22164856.281                    22164867.125
 127457900.544 7  99317889.230 6  24254440.313                    24254450.742
 110415320.395 8  86038024.97346  21011313.086                    21011319.547
 117875376.263 7  91851011.74945  22430942.383                    22430951.902
 11  8 29  0 50  0.0000000  0  8G10G04G12G05G25G29G02G30
 115068215.561 7  89663773.27145  21896760.297                    21896769.480
 124608674.140 7  97097773.79443  23712230.750                    23712242.223
 109281044.610 8  85154134.807 7  20795494.016                    20795502.383
 107139557.828 8  83485446.715 8  20387956.195                    20387964.949
 116422357.724 8  90718768.710 7  22154438.242                    22154449.340
 127375716.297 6  99253849.617 6  24238801.250                    24238811.137
 110441478.261 8  86058407.72646  21016290.742                    21016297.063
 117819830.427 7  91807729.31545  22420372.234                    22420381.918
 11  8 29  0 50 30.0000000  0  8G10G04G12G05G25G29G02G30
 115144627.007 7  89723314.64345  21911301.172                    21911310.520
 124688763.718 6  97160181.18043  23727471.648                    23727483.156
 109290593.007 8  85161575.101 7  20797310.859                    20797319.555
 107111298.593 8  83463426.570 8  20382578.688                    20382587.426
 116368107.541 8  90676495.828 7  22144114.773                    22144125.609
 127293469.692 6  99189761.403 6  24223150.000                    24223160.574
 110467771.673 8  86078896.10046  21021294.109                    21021300.664
 117764813.924 7  91764859.34745  22409902.883                    22409912.352
 11  8 29  0 51  0.0000000  0  8G10G04G12G05G25G29G02G30
 115221465.328 7  89783188.66145  21925923.008                    21925932.234
 124768812.221 7  97222556.58943  23742704.492                    23742715.449
 109300722.803 8  85169468.445 7  20799238.672                    20799246.547
 107083607.430 8  83441849.080 8  20377309.336                    20377317.613
 116314356.754 8  90634612.073 7  22133886.602                    22133897.770
 127211161.560 6  99125625.256 6  24207487.977                    24207497.426
 110494199.592 8  86099489.28146  21026323.250                    21026329.766
 117710328.323 7  91722403.07945  22399535.000                    22399544.203
 11  8 29  0 51 30.0000000  0  8G10G04G12G05G25G29G02G30
 115298727.464 7  89843392.89145  21940625.563                    21940634.973
 124848818.971 7  97284899.47443  23757929.531                    23757940.305
 109311433.779 8  85177814.649 7  20801276.781                    20801285.328
 107056485.050 8  83420714.790 8  20372147.781                    20372156.270
 116261107.095 8  90593118.829 7  22123753.203                    22123764.613
 127128792.508 6  99061441.603 6  24191813.375                    24191823.461
 110520761.037 8  86120186.51946  21031377.477                    21031384.152
 117656375.357 7  91680361.83345  22389267.492                    22389276.805
 11  8 29  0 52  0.0000000  0  8G10G04G12G05G25G29G02G30
 115376411.281 7  89903925.71645  21955408.219                    21955417.137
 124928783.485 7  97347209.45243  23773146.914                    23773157.191
 109322725.680 8  85186613.523 7  20803425.313                    20803434.422
 107029932.143 8  83400024.242 8  20367095.016                    20367103.770
 116208360.637 8  90552017.665 7  22113716.055                    22113727.375
 127046363.518 6  98997211.280 6  24176127.563                    24176137.863
 110547455.406 8  86140987.32046  21036457.484                    21036463.984
 117602957.072 7  91638737.22645  22379102.148                    22379111.930
 11  8 29  0 52 30.0000000  0  8G10G04G12G05G25G29G02G30
 115454513.526 7  89964784.59745  21970270.492                    21970279.707
 125008704.790 6  97409485.74543  23788354.594                    23788365.840
 109334598.003 8  85195864.680 7  20805684.461                    20805693.223
 107003949.035 8  83379777.701 8  20362150.398                    20362159.051
 116156119.005 8  90511309.877 7  22103774.508                    22103785.871
 126963875.411 6  98932934.888 6  24160430.375                    24160440.980
 110574281.464 8  86161890.74246  21041562.539                    21041568.832
 117550074.889 7  91597530.33345  22369038.883                    22369048.965
 11  8 29  0 53  0.0000000  0  8G10G04G12G05G25G29G02G30
 115533031.645 7  90025967.51745  21985212.555                    21985221.281
 125088582.620 7  97471728.19343  23803554.688                    23803566.063
 109347050.123 8  85205567.619 7  20808054.156                    20808062.563
 106978536.440 8  83359975.709 8  20357314.977                    20357323.445
 116104383.994 7  90470996.873 7  22093929.969                    22093941.512
 126881329.028 6  98868613.078 6  24144721.719                    24144732.195
 110601238.568 8  86182896.28546  21046692.289                    21046698.762
 117497730.713 7  91556742.66045  22359078.633                    22359087.914
 11  8 29  0 53 30.0000000  0  8G10G04G12G05G25G29G02G30
 115611962.830 7  90087472.33545  22000232.023                    22000241.734
 125168416.269 7  97533936.21143  23818746.773                    23818757.383
 109360081.340 8  85215721.812 7  20810533.875                    20810542.797
 106953694.912 8  83340618.712 8  20352587.258                    20352595.980
 116053157.424 7  90431080.053 7  22084181.727                    22084193.105
 126798725.585 6  98804246.815 5  24129003.094                    24129012.664
 110628325.846 8  86204003.26146  21051846.547                    21051853.117
 117445926.115 7  91516375.46045  22349220.219                    22349229.352
 11  8 29  0 54  0.0000000  0  8G10G04G12G05G25G29G02G30
 115691304.072 7  90149296.64945  22015330.195                    22015339.367
 125248204.933 7  97596109.17543  23833929.695                    23833941.012
 109373691.514 8  85226327.139 7  20813124.063                    20813132.797
 106929424.683 8  83321706.867 8  20347969.094                    20347977.828
 116002440.815 8  90391560.603 7  22074530.750                    22074542.109
 126716065.478 6  98739836.417 5  24113273.766                    24113283.375
 110655542.088 8  86225210.72546  21057025.969                    21057032.184
 117394662.595 7  91476429.86345  22339465.320                    22339474.863
 11  8 29  0 54 30.0000000  0  8G10G04G12G05G25G29G02G30
 115771052.778 7  90211438.47245  22030505.836                    22030515.441
 125327948.329 7  97658246.86643  23849104.461                    23849115.629
 109387879.579 8  85237382.774 7  20815823.898                    20815832.254
 106905726.205 8  83303240.562 8  20343459.453                    20343467.770
 115952236.023 8  90352439.972 7  22064976.852                    22064988.563
 126633349.787 6  98675382.670 5  24097533.219                    24097543.355
 110682886.726 8  86246518.21746  21062229.242                    21062235.168
 117343941.993 7  91436907.31145  22329813.336                    22329823.082
 11  8 29  0 55  0.0000000  0  8G10G04G12G05G25G29G02G30
 115851206.627 7  90273895.99645  22045759.063                    22045767.836
 125407646.402 7  97720349.26343  23864271.164                    23864281.469
 109402645.634 8  85248888.789 7  20818633.891                    20818642.121
 106882600.554 8  83285220.606 8  20339058.320                    20339067.105
 115902545.310 8  90313719.929 7  22055520.859                    22055532.746
 126550579.967 6  98610886.712 6  24081782.688                    24081792.500
 110710359.908 8  86267925.88946  21067457.273                    21067463.398
 117293766.400 7  91397809.46245  22320264.969                    22320275.133
 11  8 29  0 55 30.0000000  0  8G10G04G12G05G25G29G02G30
 115931762.107 7  90336666.46945  22061088.203                    22061096.828
 125487297.693 6  97782415.17143  23879427.688                    23879438.563
 109417988.944 8  85260844.612 7  20821553.977                    20821561.957
 106860047.405 8  83267646.763 8  20334766.789                    20334775.309
 115853369.573 8  90275401.182 7  22046163.539                    22046174.727
 126467756.438 6  98546348.931 6  24066022.250                    24066031.074
 110737959.718 8  86289432.23046  21072709.266                    21072715.527
 117244136.690 7  91359136.92245  22310821.250                    22310830.500
 11  8 29  0 56  0.0000000  0  8G10G04G12G05G25G29G02G30
 116012716.477 7  90399747.78145  22076492.969                    22076502.305
 125566901.797 6  97844444.35843  23894575.664                    23894587.238
 109433908.495 8  85273249.449 7  20824582.797                    20824591.344
 106838067.026 8  83250519.229 8  20330584.305                    20330592.168
 115804710.420 8  90237484.966 7  22036903.977                    22036915.406
 126384880.086 6  98481770.015 6  24050251.031                    24050260.414
 110765685.264 8  86311036.55246  21077985.117                    21077991.719
 117195054.452 7  91320891.02945  22301480.781                    22301490.922
 11  8 29  0 56 30.0000000  0  8G10G04G12G05G25G29G02G30
 116094067.287 7  90463137.98445  22091973.859                    22091983.105
 125646458.367 6  97906436.46043  23909715.047                    23909726.590
 109450403.820 8  85286102.942 7  20827721.945                    20827730.203
 106816660.007 8  83233838.467 8  20326510.203                    20326519.238
 115756569.727 8  90199972.748 7  22027743.156                    22027754.500
 126301951.796 7  98417150.620 6  24034470.109                    24034480.629
 110793535.927 8  86332738.36346  21083284.820                    21083291.309
 117146521.360 7  91283073.00945  22292245.477                    22292254.965
 11  8 29  0 57  0.0000000  0  8G10G04G12G05G25G29G02G30
 116175811.996 7  90526835.14945  22107529.445                    22107538.988
 125725967.090 6  97968391.27143  23924845.016                    23924856.504
 109467474.400 8  85299404.691 7  20830970.242                    20830978.820
 106795827.104 8  83217605.061 8  20322546.336                    20322554.523
 115708949.394 8  90162866.000 7  22018681.320                    22018692.602
 126218973.203 7  98352492.014 6  24018679.953                    24018690.262
 110821511.304 8  86354537.35246  21088608.367                    21088614.953
 117098539.235 7  91245684.32345  22283114.609                    22283124.074
 11  8 29  0 57 30.0000000  0  8G10G04G12G05G25G29G02G30
 116257947.435 7  90590836.78145  22123159.219                    22123168.457
 125805427.392 6  98030308.35543  23939965.281                    23939977.301
 109485119.277 8  85313153.930 7  20834327.641                    20834336.281
 106775568.297 8  83201819.010 8  20318691.063                    20318699.355
 115661850.905 8  90126165.887 7  22009718.766                    22009730.129
 126135944.866 7  98287794.632 6  24002880.313                    24002889.469
 110849610.508 7  86376432.84046  21093955.586                    21093961.852
 117051109.553 7  91208726.10645  22274088.656                    22274098.988
 11  8 29  0 58  0.0000000  0  8G10G04G12G05G25G29G02G30
 116340470.449 7  90655140.38545  22138863.125                    22138872.027
 125884838.386 6  98092187.04343  23955077.477                    23955089.293
 109503337.859 7  85327350.214 7  20837795.008                    20837803.629
 106755883.419 7  83186480.176 8  20314945.094                    20314953.223
 115615275.517 7  90089873.385 7  22000856.117                    22000866.910
 126052867.798 7  98223059.273 6  23987070.836                    23987081.199
 110877832.395 7  86398423.92446  21099326.234                    21099332.500
 117004233.524 7  91172199.30245  22265169.234                    22265178.723
 11  8 29  0 58 30.0000000  0  8G10G04G12G05G25G29G02G30
 116423378.555 7  90719744.10045  22154639.719                    22154648.891
 125964199.820 6  98154027.08143  23970179.031                    23970191.000
 109522129.577 8  85341993.096 7  20841370.750                    20841379.441
 106736773.107 8  83171589.058 8  20311308.758                    20311316.957
 115569224.949 8  90053989.849 7  21992092.609                    21992103.992
 125969742.456 7  98158286.305 6  23971252.602                    23971263.070
 110906176.274 8  86420510.05946  21104719.844                    21104726.379
 116957912.620 7  91136105.04545  22256354.273                    22256363.934
 11  8 29  0 59  0.0000000  0  8G10G04G12G05G25G29G02G30
 116506668.836 7  90784645.60245  22170489.125                    22170498.535
 126043511.040 6  98215828.01543  23985272.289                    23985283.582
 109541493.170 8  85357081.601 7  20845055.328                    20845063.898
 106718237.697 8  83157145.917 8  20307781.375                    20307789.926
 115523700.728 8  90018516.457 7  21983429.195                    21983440.621
 125886570.293 7  98093476.814 6  23955426.078                    23955435.379
 110934641.311 8  86442690.58746  21110136.375                    21110143.031
 116912148.342 7  91100444.55445  22247646.188                    22247655.391
 11  8 29  0 59 30.0000000  0  8G10G04G12G05G25G29G02G30
 116590339.034 7  90849843.13945  22186411.078                    22186420.574
 126122772.366 6  98277590.03943  24000354.664                    24000366.836
 109561428.242 8  85372615.411 7  20848849.258                    20848857.738
 106700277.661 8  83143151.121 8  20304363.477                    20304372.141
 115478705.025 8  89983454.892 7  21974867.078                    21974878.285
 125803352.718 7  98028631.985 6  23939590.266                    23939600.246
 110963227.702 8  86464965.70246  21115576.563                    21115582.941
 116866942.823 7  91065219.45745  22239043.227                    22239052.805
 11  8 29  1  0  0.0000000  0  8G10G04G12G05G25G29G02G30
 116674385.709 7  90915334.02445  22202405.148                    22202413.879
 126201982.487 6  98339312.16643  24015427.398                    24015439.414
 109581933.934 8  85388593.851 7  20852751.414                    20852759.965
 106682892.709 8  83129604.437 8  20301055.492                    20301064.180
 115434238.540 8  89948805.692 7  21966405.289                    21966417.152
 125720090.218 7  97963752.132 6  23923745.953                    23923755.906
 110991933.670 8  86487333.99546  21121038.891                    21121045.340
 116822296.619 7  91030430.18645  22230547.789                    22230557.191
 11  8 29  1  0 30.0000000  0  8G10G04G12G05G25G29G02G30
 116758805.774 7  90981115.86945  22218469.125                    22218478.902
 126281141.073 6  98400994.12243  24030491.820                    24030502.781
 109603009.025 8  85405015.989 7  20856761.656                    20856770.629
 106666083.154 8  83116506.120 8  20297856.586                    20297864.875
 115390303.031 8  89914570.245 7  21958044.547                    21958056.098
 125636784.173 7  97898838.340 6  23907893.125                    23907902.738
 111020758.688 8  86509795.05046  21126523.914                    21126530.746
 116778211.370 7  90996078.04345  22222158.602                    22222168.059
 11  8 29  1  1  0.0000000  0  8G10G04G12G05G25G29G02G30
 116843596.883 7  91047186.85045  22234604.359                    22234613.887
 126360248.025 6  98462635.88343  24045545.094                    24045555.785
 109624652.823 8  85421881.262 7  20860880.648                    20860889.156
 106649849.200 8  83103856.319 8  20294767.102                    20294775.441
 115346899.977 8  89880749.707 7  21949785.313                    21949796.754
 125553435.326 7  97833891.218 6  23892031.930                    23892041.781
 111049702.101 8  86532348.35446  21132031.930                    21132038.398
 116734688.450 7  90962164.06845  22213876.547                    22213886.129
 11  8 29  1  1 30.0000000  0  8G10G04G12G05G25G29G02G30
 116928756.539 7  91113544.99945  22250809.500                    22250819.152
 126439303.155 6  98524237.24543  24060589.078                    24060600.387
 109646864.958 8  85439189.402 7  20865107.117                    20865115.715
 106634191.225 8  83091655.337 8  20291787.398                    20291795.773
 115304031.399 8  89847345.640 7  21941627.750                    21941639.699
 125470045.347 7  97768912.019 6  23876163.563                    23876174.078
 111078764.059 8  86554994.03646  21137562.031                    21137568.344
 116691729.767 7  90928689.74145  22205701.930                    22205710.637
 11  8 29  1  2  0.0000000  0  8G10G04G12G05G25G29G02G30
 117014281.132 7  91180187.50845  22267084.836                    22267094.305
 126518305.354 6  98585797.36544  24075622.336                    24075633.926
 109669643.874 8  85456939.198 7  20869441.969                    20869450.957
 106619108.786 8  83079902.815 8  20288917.625                    20288926.016
 115261697.859 8  89814358.489 7  21933571.984                    21933583.320
 125386614.658 7  97703901.116 6  23860287.680                    23860297.176
 111107942.588 8  86577730.54146  21143114.477                    21143120.984
 116649335.751 7  90895655.45845  22197634.086                    22197643.746
 11  8 29  1  2 30.0000000  0  8G10G04G12G05G25G29G02G30
 117100167.820 7  91247112.18545  22283427.867                    22283438.012
 126597254.032 6  98647315.75244  24090645.273                    24090657.332
 109692988.352 8  85475129.677 7  20873884.328                    20873893.344
 106604601.418 8  83068598.411 8  20286156.875                    20286165.242
 115219900.645 8  89781789.262 7  21925617.953                    21925629.465
 125303144.414 7  97638859.401 6  23844403.188                    23844412.855
 111137236.810 8  86600557.20346  21148688.977                    21148695.477
 116607507.698 7  90863062.15845  22189674.961                    22189684.305
 11  8 29  1  3  0.0000000  0  8G10G04G12G05G25G29G02G30
 117186414.091 7  91314317.04645  22299840.625                    22299850.047
 126676149.327 6  98708792.58643  24105659.102                    24105670.891
 109716898.123 8  85493760.663 7  20878434.016                    20878442.707
 106590669.870 8  83057742.696 8  20283505.891                    20283514.027
 115178641.659 8  89749639.428 7  21917766.680                    21917778.219
 125219635.722 7  97573787.715 6  23828512.000                    23828522.563
 111166646.792 8  86623474.06946  21154285.758                    21154292.680
 116566247.169 7  90830911.10545  22181823.289                    22181832.754
 11  8 29  1  3 30.0000000  0  8G10G04G12G05G25G29G02G30
 117273017.313 7  91381800.04945  22316320.781                    22316330.129
 126754990.857 6  98770227.51343  24120662.563                    24120673.895
 109741372.059 8  85512831.260 7  20883091.320                    20883099.945
 106577314.415 8  83047335.875 8  20280964.305                    20280972.340
 115137922.452 8  89717910.191 7  21910018.414                    21910029.414
 125136090.177 7  97508687.317 6  23812613.563                    23812623.730
 111196171.931 8  86646480.67446  21159904.047                    21159910.328
 116525555.846 7  90799203.59345  22174079.734                    22174089.449
 11  8 29  1  4  0.0000000  0  8G10G04G12G05G25G29G02G30
 117359974.101 7  91449558.56345  22332868.234                    22332877.160
 126833778.068 6  98831620.12543  24135655.000                    24135666.422
 109766408.726 8  85532340.340 7  20887855.711                    20887864.520
 106564534.801 8  83037377.754 8  20278532.344                    20278540.637
 115097743.957 8  89686602.283 7  21902372.531                    21902384.477
 125052508.601 7  97443558.846 6  23796708.758                    23796718.949
 111225811.143 8  86669576.16546  21165544.180                    21165550.301
 116485434.387 7  90767940.13345  22166445.102                    22166453.926
 11  8 29  1  4 30.0000000  0  9G26G10G04G12G05G25G29G02G30
 130594144.31215                  24851245.125
 117447281.492 7  91517590.27845  22349481.711                    22349491.289
 126912510.398 6  98892969.99643  24150636.977                    24150648.266
 109792007.216 8  85552287.217 7  20892726.469                    20892735.820
 106552330.790 8  83027868.165 8  20276209.883                    20276218.023
 115058107.409 8  89655716.652 7  21894829.867                    21894841.109
 124968891.715 7  97378402.844 6  23780797.070                    23780807.258
 111255563.640 8  86692759.94246  21171205.883                    21171212.156
 116445883.891 7  90737121.56945  22158918.672                    22158928.027
 11  8 29  1  5  0.0000000  0  9G26G10G04G12G05G25G29G02G30
 130502540.233 5                  24833813.688
 117534936.557 7  91585892.90344  22366162.359                    22366171.793
 126991187.587 6  98954276.84643  24165608.711                    24165620.586
 109818166.422 8  85572670.992 7  20897704.734                    20897713.645
 106540702.026 8  83018806.813 8  20273996.984                    20274005.516
 115019014.113 8  89625254.370 7  21887390.672                    21887402.090
 124885241.112 7  97313220.600 6  23764878.273                    23764888.156
 111285428.759 8  86716031.47446  21176888.969                    21176895.461
 116406905.647 7  90706748.92245  22151501.141                    22151510.410
 11  8 29  1  5 30.0000000  0  9G26G10G04G12G05G25G29G02G30
 130410792.64115                  24816353.961
 117622936.780 7  91654464.47545  22382908.531                    22382917.621
 127069809.37316  99015540.58553  24180570.234                    24180582.199
 109844885.557 7  85593491.083 7  20902789.367                    20902798.008
 106529649.037 8  83010194.117 8  20271893.625                    20271901.691
 114980465.591 7  89595216.584 7  21880055.383                    21880066.508
 124801557.872 6  97248012.909 6  23748954.617                    23748964.266
 111315406.260 7  86739390.56946  21182593.727                    21182600.148
 116368500.924 7  90676823.18545  22144193.484                    22144203.266
 11  8 29  1  6  0.0000000  0  9G26G10G04G12G05G25G29G02G30
 130318904.40515 101547271.89552  24798868.758                    24798881.688
 117711279.163 7  91723302.67145  22399718.938                    22399728.723
 127148375.245 6  99076760.73843  24195521.148                    24195532.141
 109872163.283 8  85614746.438 7  20907979.859                    20907988.836
 106519171.271 8  83002029.663 8  20269900.266                    20269908.484
 114942462.984 8  89565604.148 7  21872823.563                    21872834.730
 124717842.870 7  97182780.471 6  23733024.031                    23733033.773
 111345495.124 7  86762836.45046  21188319.367                    21188325.723
 116330670.768 7  90647345.15645  22136994.477                    22137003.773
 11  8 29  1  6 30.0000000  0  9G26G10G04G12G05G25G29G02G30
 130226878.119 6 101475563.34243  24781357.344                    24781369.891
 117799961.132 7  91792405.49745  22416594.805                    22416604.250
 127226885.222 6  99137937.34843  24210461.281                    24210471.309
 109899998.549 8  85636436.236 7  20913276.984                    20913285.383
 106509268.866 8  82994313.519 8  20268015.516                    20268023.531
 114905007.755 8  89536418.240 7  21865696.188                    21865707.574
 124634097.593 7  97117524.491 6  23717087.688                    23717097.570
 111375695.081 8  86786368.89146  21194066.391                    21194072.777
 116293416.599 7  90618315.94445  22129905.156                    22129914.430
 11  8 29  1  7  0.0000000  0  9G26G10G04G12G05G25G29G02G30
 130134716.590 6 101403749.41243  24763819.508                    24763832.219
 117888979.331 7  91861770.31344  22433534.164                    22433544.105
 127305338.667 6  99199069.87942  24225389.953                    24225401.426
 109928389.966 7  85658559.422 7  20918680.039                    20918688.367
 106499941.492 7  82987045.464 8  20266240.570                    20266249.102
 114868100.935 7  89507659.684 7  21858673.094                    21858684.316
 124550323.339 7  97052245.939 6  23701146.148                    23701156.066
 111406005.066 7  86809987.07146  21199833.859                    21199840.570
 116256739.141 7  90589736.11145  22122925.672                    22122935.527
 11  8 29  1  7 30.0000000  0  9G26G10G04G12G05G25G29G02G30
 130042422.635 5 101331832.20943  24746255.852                    24746269.844
 117978330.962 7  91931394.93644  22450537.766                    22450546.980
 127383735.059 6  99260158.00142  24240308.156                    24240319.164
 109957336.434 8  85681115.118 7  20924188.039                    20924196.664
 106491188.691 8  82980225.125 8  20264574.867                    20264583.406
 114831743.513 8  89479329.242 7  21851754.234                    21851765.668
 124466520.853 7  96986945.364 6  23685199.109                    23685208.855
 111436424.474 8  86833690.51046  21205622.570                    21205629.203
 116220639.351 7  90561606.41345  22116055.789                    22116065.449
 11  8 29  1  8  0.0000000  0  9G26G10G04G12G05G25G29G02G30
 129949999.197 6 101259814.15943  24728667.617                    24728682.105
 118068013.403 7  92001277.34944  22467603.469                    22467612.809
 127462074.470 6  99321201.66442  24255215.648                    24255226.691
 109986836.748 8  85704102.372 7  20929801.773                    20929810.301
 106483010.828 8  82973852.797 8  20263018.523                    20263026.922
 114795936.958 8  89451428.042 7  21844940.188                    21844952.082
 124382691.641 7  96921623.963 6  23669246.789                    23669256.566
 111466952.849 8  86857478.86546  21211431.906                    21211438.000
 116185118.527 7  90533927.87645  22109296.570                    22109305.793
 11  8 29  1  8 30.0000000  0  9G26G10G04G12G05G25G29G02G30
 129857448.978 6 101187697.30643  24711055.914                    24711070.133
 118158023.619 7  92071415.15744  22484732.234                    22484741.359
 127540356.380 6  99382200.53742  24270112.742                    24270123.578
 110016889.316 8  85727519.955 7  20935520.398                    20935529.289
 106475407.252 8  82967927.961 8  20261571.695                    20261580.246
 114760682.202 7  89423956.813 7  21838231.758                    21838242.906
 124298836.865 7  96856282.656 6  23653289.883                    23653299.188
 111497589.296 8  86881351.42246  21217261.820                    21217268.305
 116150177.457 7  90506701.07545  22102647.563                    22102657.223
 11  8 29  1  9  0.0000000  0  9G26G10G04G12G05G25G29G02G30
 129764774.997 6 101115483.97543  24693421.195                    24693434.156
 118248358.929 7  92141806.27944  22501922.344                    22501931.539
 127618580.520 6  99443154.42142  24284997.016                    24285008.844
 110047493.382 8  85751367.262 7  20941344.273                    20941353.051
 106468377.748 8  82962450.450 8  20260233.984                    20260242.641
 114725980.481 8  89396916.517 7  21831628.406                    21831639.813
 124214957.820 7  96790922.441 6  23637327.875                    23637338.191
 111528333.738 8  86905308.12446  21223112.492                    21223118.961
 116115817.293 7  90479926.94645  22096108.586                    22096118.012
 11  8 29  1  9 30.0000000  0  9G26G10G04G12G05G25G29G02G30
 129671979.991 6 101043176.40643  24675762.734                    24675775.559
 118339016.358 7  92212448.41044  22519173.484                    22519183.234
 127696746.589 6  99504063.08442  24299872.539                    24299883.672
 110078647.415 8  85775643.114 7  20947272.383                    20947281.148
 106461922.077 8  82957420.079 8  20259005.563                    20259013.816
 114691832.979 8  89370308.070 7  21825130.180                    21825141.773
 124131055.510 7  96725544.113 6  23621361.500                    23621371.410
 111559185.361 8  86929348.35046  21228983.070                    21228989.633
 116082038.952 7  90453606.16745  22089681.352                    22089690.551
 11  8 29  1 10  0.0000000  0  9G26G10G04G12G05G25G29G02G30
 129579066.884 6 100970776.75244  24658081.305                    24658095.203
 118429992.946 7  92283339.21944  22536485.836                    22536495.496
 127774854.430 6  99564926.28443  24314735.750                    24314747.320
 110110349.974 8  85800346.386 7  20953305.625                    20953314.188
 106456039.884 8  82952836.598 8  20257886.375                    20257894.348
 114658240.631 7  89344132.234 7  21818737.781                    21818749.125
 124047131.249 7  96660148.649 6  23605391.609                    23605400.586
 111590143.356 8  86953471.46246  21234874.148                    21234880.953
 116048843.299 7  90427739.43545  22083364.742                    22083373.324
 11  8 29  1 10 30.0000000  0  9G26G10G04G12G05G25G29G02G30
 129486038.659 6 100898287.42343  24640378.836                    24640392.359
 118521285.687 7  92354476.41644  22553858.023                    22553867.855
 127852903.506 6  99625743.76543  24329588.469                    24329599.840
 110142599.968 8  85825476.223 7  20959442.586                    20959451.332
 106450730.853 8  82948699.710 8  20256875.938                    20256883.867
 114625204.588 8  89318389.868 7  21812450.953                    21812462.371
 123963186.285 7  96594737.054 6  23589417.125                    23589427.027
 111621207.363 7  86977677.18846  21240785.828                    21240791.742
 116016231.244 7  90402327.45745  22077158.258                    22077167.578
 11  8 29  1 11  0.0000000  0  9G26G10G04G12G05G25G29G02G30
 129392898.073 6 100825710.54944  24622655.672                    24622668.086
 118612891.597 6  92425857.60444  22571290.203                    22571300.246
 127930893.577 7  99686515.19543  24344429.414                    24344440.586
 110175395.763 8  85851031.359 7  20965683.688                    20965692.230
 106445994.408 8  82945009.012 8  20255974.648                    20255983.090
 114592725.681 8  89293081.638 7  21806270.625                    21806281.504
 123879221.797 6  96529310.250 6  23573438.898                    23573448.621
 111652376.295 8  87001964.66146  21246716.992                    21246723.465
 115984203.595 7  90377370.86245  22071063.781                    22071073.602
 11  8 29  1 11 30.0000000  0  9G26G10G04G12G05G25G29G02G30
 129299648.012 6 100753048.33743  24604909.430                    24604923.172
 118704808.025 7  92497480.76444  22588781.523                    22588790.836
 128008824.580 6  99747240.63643  24359259.164                    24359270.797
 110208736.223 7  85877010.910 7  20972028.242                    20972036.535
 106441830.331 8  82941764.299 8  20255181.758                    20255190.293
 114560805.057 8  89268208.432 7  21800196.383                    21800207.484
 123795239.246 7  96463869.333 6  23557457.914                    23557467.379
 111683650.013 7  87026333.79346  21252668.203                    21252674.363
 115952761.273 7  90352870.35545  22065080.953                    22065090.102
 11  8 29  1 12  0.0000000  0  9G26G10G04G12G05G25G29G02G30
 129206291.359 6 100680303.08343  24587143.813                    24587157.313
 118797031.807 6  92569343.43144  22606331.422                    22606340.961
 128086695.917 7  99807919.61243  24374077.875                    24374089.188
 110242619.722 8  85903413.631 7  20978476.016                    20978484.320
 106438238.081 8  82938965.182 8  20254498.359                    20254507.059
 114529443.509 8  89243770.870 7  21794228.383                    21794239.645
 123711239.935 7  96398415.374 6  23541473.125                    23541482.707
 111715027.910 7  87050784.10046  21258638.977                    21258645.789
 115921904.887 7  90328826.45145  22059208.563                    22059218.523
 11  8 29  1 12 30.0000000  0  9G26G10G04G12G05G25G29G02G30
 129112831.170 6 100607477.15543  24569359.547                    24569372.453
 118889560.251 7  92641443.49045  22623938.992                    22623948.363
 128164507.614 7  99868552.09943  24388885.242                    24388895.910
 110277045.089 7  85930238.584 7  20985026.578                    20985034.863
 106435217.376 8  82936611.416 8  20253923.500                    20253931.926
 114498642.188 8  89219769.853 7  21788366.859                    21788378.227
 123627225.037 7  96332949.257 6  23525485.039                    23525494.984
 111746509.186 7  87075314.96046  21264629.586                    21264636.566
 115891635.498 7  90305239.92645  22053448.516                    22053457.980
 11  8 29  1 13  0.0000000  0  9G26G10G04G12G05G25G29G02G30
 129019270.331 6 100534572.78143  24551555.078                    24551567.801
 118982390.158 7  92713778.47044  22641603.719                    22641613.305
 128242259.318 7  99929137.83043  24403680.695                    24403691.703
 110312010.297 7  85957484.172 7  20991680.359                    20991689.176
 106432767.402 8  82934702.367 8  20253457.375                    20253465.637
 114468401.896 8  89196206.010 7  21782612.477                    21782623.836
 123543195.723 7  96267471.886 6  23509495.156                    23509504.992
 111778093.437 7  87099926.05546  21270640.188                    21270646.473
 115861953.637 7  90282111.21445  22047800.203                    22047809.414
 11  8 29  1 13 30.0000000  0  9G26G10G04G12G05G25G29G02G30
 128925612.063 6 100461592.55843  24533732.719                    24533745.309
 119075518.937 7  92786346.32544  22659325.734                    22659335.336
 128319950.895 7  99989676.71243  24418465.344                    24418476.047
 110347514.216 8  85985149.525 7  20998436.734                    20998445.039
 106430888.116 7  82933238.013 8  20253099.797                    20253108.352
 114438723.741 8  89173080.181 7  21776965.047                    21776976.684
 123459153.410 7  96201984.392 6  23493502.648                    23493512.777
 111809780.408 8  87124617.20146  21276669.961                    21276676.266
 115832860.372 7  90259441.17745  22042264.273                    22042273.359
 11  8 29  1 14  0.0000000  0  9G26G10G04G12G05G25G29G02G30
 128831858.888 6 100388538.32842  24515891.852                    24515904.313
 119168943.559 6  92859144.71544  22677103.461                    22677112.797
 128397581.893 7 100050168.35143  24433237.172                    24433248.348
 110383555.288 8  86013233.443 7  21005295.141                    21005303.734
 106429578.500 8  82932217.555 8  20252850.609                    20252859.031
 114409608.430 8  89150392.938 7  21771424.484                    21771435.938
 123375099.260 7  96136487.678 6  23477507.500                    23477517.430
 111841569.196 8  87149387.67946  21282719.094                    21282725.230
 115804356.062 7  90237230.04545  22036839.703                    22036848.957
 11  8 29  1 14 30.0000000  0  9G26G10G04G12G05G25G29G02G30
 128738013.901 6 100315412.56242  24498032.484                    24498046.422
 119262661.193 6  92932171.42144  22694937.766                    22694946.879
 128475152.180 7 100110612.70543  24447998.492                    24448009.668
 110420132.274 8  86041734.991 7  21012255.133                    21012264.078
 106428838.517 7  82931640.977 8  20252709.695                    20252717.887
 114381056.719 8  89128144.849 7  21765990.891                    21766002.500
 123291034.895 7  96070983.000 6  23461510.703                    23461520.578
 111873458.977 7  87174236.85946  21288787.219                    21288793.980
 115776441.428 7  90215478.40845  22031527.508                    22031537.398
 11  8 29  1 15  0.0000000  0  9G26G10G04G12G05G25G29G02G30
 128644080.193 6 100242217.63442  24480157.766                    24480171.063
 119356668.984 6  93005424.21844  22712826.781                    22712836.309
 128552661.701 7 100171009.68244  24462747.953                    24462759.648
 110457243.265 8  86070652.645 7  21019317.453                    21019326.328
 106428667.424 8  82931507.683 8  20252677.125                    20252685.617
 114353069.592 8  89106336.701 7  21760665.711                    21760676.805
 123206961.701 6  96005471.435 6  23445512.383                    23445521.977
 111905449.864 7  87199164.80846  21294875.164                    21294881.527
 115749117.281 7  90194186.88745  22026328.352                    22026337.965
 11  8 29  1 15 30.0000000  0  9G26G10G04G12G05G25G29G02G30
 128550060.873 6 100168956.04442  24462266.641                    24462279.230
 119450963.818 6  93078900.66444  22730771.102                    22730780.246
 128630109.899 7 100231358.87143  24477486.359                    24477497.238
 110494886.738 8  86099985.214 7  21026480.773                    21026489.355
 106429064.353 7  82931816.999 8  20252752.422                    20252760.824
 114325647.879 8  89084969.159 7  21755447.195                    21755458.621
 123122880.841 6  95939953.913 6  23429512.102                    23429521.488
 111937540.870 7  87224170.78646  21300981.875                    21300988.523
 115722384.162 7  90173355.89845  22021240.773                    22021250.621
 11  8 29  1 16  0.0000000  0  9G26G10G04G12G05G25G29G02G30
 128455958.751 6 100095629.92342  24444358.477                    24444372.152
 119545542.774 6  93152598.56144  22748768.078                    22748777.996
 128707496.989 7 100291660.45543  24492212.992                    24492224.188
 110533061.077 8  86129731.437 7  21033745.109                    21033753.914
 106430028.728 8  82932568.482 8  20252936.352                    20252944.273
 114298792.288 8  89064042.741 7  21750336.680                    21750348.250
 123038793.653 6  95874431.441 6  23413511.148                    23413520.281
 111969731.881 7  87249254.69646  21307107.828                    21307114.160
 115696242.673 7  90152985.91845  22016266.883                    22016276.371
 11  8 29  1 16 30.0000000  0  9G26G10G04G12G05G25G29G02G30
 128361777.124 6 100022241.83343  24426436.852                    24426449.930
 119640403.316 6  93226515.81844  22766819.742                    22766829.250
 128784822.388 6 100351913.99743  24506926.805                    24506938.074
 110571764.665 8  86159890.062 7  21041110.016                    21041118.840
 106431560.048 8  82933761.745 8  20253227.453                    20253235.891
 114272503.639 8  89043558.093 7  21745334.227                    21745345.676
 122954701.437 6  95808905.046 6  23397508.469                    23397518.059
 112002022.163 7  87274415.94146  21313252.547                    21313258.793
 115670693.524 7  90133077.48945  22011404.523                    22011414.227
 11  8 29  1 17  0.0000000  0  9G26G10G04G12G05G25G29G02G30
 128267518.848 6  99948794.02243  24408500.234                    24408512.684
 119735541.987 6  93300649.81944  22784924.125                    22784933.711
 128862086.220 6 100412119.49243  24521629.750                    24521640.816
 110610996.069 8  86190459.973 7  21048575.445                    21048584.504
 106433657.606 8  82935396.224 8  20253626.422                    20253634.645
 114246782.616 7  89023515.737 7  21740439.555                    21740450.609
 122870605.586 6  95743375.819 6  23381504.992                    23381515.734
 112034411.211 7  87299654.15746  21319415.852                    21319422.543
 115645737.085 7  90113630.90045  22006655.508                    22006664.750
 11  8 29  1 17 30.0000000  0  9G26G10G04G12G05G25G29G02G30
 128173186.732 6  99875288.64043  24390549.672                    24390561.727
 119830956.028 7  93374998.39444  22803080.672                    22803089.820
 128939288.310 6 100472276.89042  24536320.586                    24536331.660
 110650753.052 8  86221439.424 7  21056141.078                    21056149.879
 106436320.803 8  82937471.473 8  20254133.422                    20254141.320
 114221629.924 7  89003916.247 7  21735653.570                    21735664.723
 122786507.789 6  95677845.124 6  23365502.461                    23365511.773
 112066898.385 7  87324968.83546  21325598.016                    21325603.922
 115621373.911 7  90094646.60245  22002019.375                    22002028.555
 11  8 29  1 18  0.0000000  0  9G26G10G04G12G05G25G29G02G30
 128078784.016 7  99801728.24943  24372585.234                    24372597.320
 119926642.789 7  93449559.47644  22821288.547                    22821298.664
 129016428.118 6 100532385.76442  24550999.539                    24551011.402
 110691034.209 8  86252827.322 7  21063806.523                    21063815.113
 106439548.790 8  82939986.801 8  20254747.609                    20254756.043
 114197046.176 8  88984760.104 7  21730975.664                    21730986.547
 122702409.158 6  95612313.727 6  23349498.805                    23349508.543
 112099483.271 7  87350359.64546  21331798.844                    21331804.840
 115597604.460 7  90076124.95045  21997496.523                    21997505.684
 11  8 29  1 18 30.0000000  0  9G26G10G04G12G05G25G29G02G30
 127984313.789 7  99728115.27643  24354607.734                    24354620.094
 120022599.204 7  93524330.68344  22839549.750                    22839558.668
 129093505.860 6 100592446.22642  24565666.953                    24565679.480
 110731837.753 8  86284622.277 7  21071571.352                    21071579.980
 106443340.961 7  82942941.773 8  20255469.172                    20255477.590
 114173032.112 8  88966047.868 7  21726405.438                    21726416.598
 122618311.297 6  95546782.948 6  23333495.570                    23333504.953
 112132165.599 7  87375826.39946  21338017.906                    21338024.234
 115574429.316 7  90058066.38645  21993085.906                    21993095.613
 11  8 29  1 19  0.0000000  0  9G26G10G04G12G05G25G29G02G30
 127889778.907 6  99654451.94543  24336618.055                    24336630.953
 120118822.532 6  93599309.86644  22857859.945                    22857869.539
 129170521.060 6 100652458.07342  24580322.969                    24580335.500
 110773162.254 8  86316823.157 7  21079435.023                    21079443.563
 106447696.488 8  82946335.705 8  20256298.016                    20256306.711
 114149588.337 8  88947780.023 7  21721943.938                    21721955.734
 122534215.690 6  95481253.945 6  23317492.242                    23317502.531
 112164944.709 8  87401368.57046  21344255.555                    21344262.508
 115551848.774 7  90040471.14345  21988789.180                    21988798.605
 11  8 29  1 19 30.0000000  0  9G26G10G04G12G05G25G29G02G30
 127795182.729 7  99580740.85743  24318617.000                    24318629.805
 120215309.763 6  93674494.67444  22876221.461                    22876230.539
 129247473.790 6 100712421.17142  24594967.148                    24594978.746
 110815005.878 8  86349428.556 7  21087397.320                    21087406.371
 106452614.496 7  82950167.938 8  20257234.031                    20257242.230
 114126715.438 8  88929957.009 7  21717591.336                    21717603.195
 122450123.665 6  95415727.756 6  23301490.445                    23301500.484
 112197820.190 7  87426985.82146  21350511.305                    21350517.949
 115529863.307 7  90023339.61445  21984605.664                    21984614.934
 11  8 29  1 20  0.0000000  0  9G26G10G04G12G05G25G29G02G30
 127700528.335 7  99506984.34544  24300605.195                    24300617.371
 120312058.210 7  93749883.04344  22894631.625                    22894641.117
 129324364.098 6 100772335.69542  24609599.078                    24609610.227
 110857366.684 8  86382436.947 7  21095458.281                    21095467.164
 106458094.350 8  82954437.987 8  20258276.945                    20258285.090
 114104414.086 8  88912579.371 7  21713347.742                    21713359.395
 122366036.515 7  95350205.359 6  23285488.672                    23285498.711
 112230791.573 7  87452677.80446  21356785.734                    21356792.184
 115508473.430 7  90006672.17045  21980534.797                    21980545.004
 11  8 29  1 20 30.0000000  0  9G26G10G04G12G05G25G29G02G30
 127605818.814 7  99433184.93443  24282582.195                    24282594.348
 120409064.840 6  93825472.58144  22913091.000                    22913100.734
 129401191.593 6 100832201.17042  24624218.070                    24624229.492
 110900243.119 8  86415847.143 7  21103617.664                    21103626.590
 106464135.126 8  82959145.097 8  20259426.031                    20259434.230
 114082684.901 8  88895647.564 7  21709213.234                    21709224.383
 122281955.735 7  95284687.909 6  23269489.055                    23269498.332
 112263858.571 8  87478444.28446  21363078.328                    21363084.891
 115487679.531 7  89990469.12645  21976578.219                    21976587.805
 11  8 29  1 21  0.0000000  0  9G26G10G04G12G05G25G29G02G30
 127511057.431 6  99359345.03344  24264549.797                    24264561.285
 120506326.570 7  93901260.87144  22931600.203                    22931609.414
 129477956.345 6 100892017.88642  24638826.297                    24638837.625
 110943633.245 8  86449657.622 7  21111874.352                    21111883.172
 106470735.998 8  82964288.657 8  20260682.313                    20260690.313
 114061528.467 8  88879162.073 7  21705186.891                    21705198.164
 122197882.868 7  95219176.642 6  23253490.328                    23253500.266
 112297020.751 8  87504284.93446  21369388.680                    21369395.121
 115467481.986 7  89974730.77445  21972735.203                    21972744.688
 11  8 29  1 21 30.0000000  0  9G26G10G04G12G05G25G29G02G30
 127416246.934 7  99285466.91343  24246507.398                    24246519.777
 120603840.771 7  93977245.92144  22950155.781                    22950165.594
 129554658.007 6 100951785.43342  24653422.414                    24653433.789
 110987535.284 8  86483866.997 7  21120228.688                    21120237.535
 106477895.795 8  82969867.723 8  20262044.883                    20262053.020
 114040944.966 8  88863123.022 7  21701270.016                    21701281.469
 122113819.440 6  95153672.731 6  23237493.586                    23237503.164
 112330277.524 8  87530199.30846  21375717.203                    21375723.473
 115447880.867 7  89959457.19545  21969005.305                    21969014.266
 11  8 29  1 22  0.0000000  0  9G26G10G04G12G05G25G29G02G30
 127321390.795 6  99211553.22743  24228455.266                    24228469.344
 120701604.623 6  94053425.49744  22968760.063                    22968769.734
 129631296.678 6 101011503.87042  24668005.859                    24668018.266
 111031947.040 8  86518473.564 7  21128680.031                    21128688.820
 106485613.992 8  82975881.923 8  20263513.406                    20263521.203
 114020935.066 8  88847530.917 7  21697461.930                    21697473.762
 122029766.857 7  95088177.243 6  23221498.992                    23221508.867
 112363628.563 8  87556187.13346  21382063.695                    21382070.316
 115428876.547 7  89944648.63345  21965388.195                    21965397.688
 11  8 29  1 22 30.0000000  0  8G26G10G12G05G25G29G02G30
 127226492.772 6  99137606.90543  24210398.016                    24210410.285
 120799616.043 6  94129797.98144  22987410.969                    22987421.012
 111076867.925 8  86553476.847 7  21137228.070                    21137236.836
 106493890.708 8  82982331.341 8  20265088.195                    20265096.527
 114001499.991 8  88832386.717 7  21693763.711                    21693774.961
 121945727.558 7  95022692.133 6  23205506.375                    23205515.887
 112397074.009 8  87582248.52446  21388428.297                    21388434.703
 115410469.983 7  89930305.87045  21961885.656                    21961894.801
 11  8 29  1 23  0.0000000  0  8G26G10G12G05G25G29G02G30
 127131555.076 6  99063629.63043  24192332.016                    24192343.723
 120897871.166 6  94206360.35244  23006108.430                    23006117.734
 111122294.395 8  86588874.103 7  21145872.344                    21145881.137
 106502723.233 8  82989213.842 8  20266769.148                    20266777.086
 113982639.235 8  88817690.026 7  21690174.977                    21690186.203
 121861701.923 7  94957217.670 6  23189517.406                    23189526.902
 112430612.733 8  87608382.58546  21394810.297                    21394816.758
 115392660.549 7  89916428.39645  21958496.875                    21958505.852
 11  8 29  1 23 30.0000000  0  8G26G10G12G05G25G29G02G30
 127036581.060 6  98989624.10043  24174259.086                    24174270.711
 120996367.281 6  94283110.54144  23024851.023                    23024860.977
 111168225.186 8  86624664.320 7  21154612.781                    21154621.551
 106512111.147 8  82996529.113 8  20268555.906                    20268563.797
 113964353.395 8  88803441.316 7  21686695.172                    21686706.055
 121777691.567 7  94891755.107 6  23173530.836                    23173540.191
 112464244.516 8  87634589.15946  21401210.578                    21401217.059
 115375448.741 7  89903016.59445  21955221.523                    21955230.438
 11  8 29  1 24  0.0000000  0  8G26G10G12G05G25G29G02G30
 126941573.841 6  98915592.64443  24156178.922                    24156191.605
 121095101.255 7  94360046.04244  23043639.789                    23043649.871
 111214658.153 8  86660845.849 7  21163449.055                    21163457.113
 106522053.405 8  83004276.358 8  20270447.484                    20270455.762
 113946642.547 8  88789640.663 7  21683324.625                    21683336.094
 121693697.956 7  94826305.575 6  23157547.133                    23157555.730
 112497968.738 8  87660867.77146  21407627.742                    21407634.313
 115358834.247 7  89890070.25345  21952059.836                    21952069.148
 11  8 29  1 24 30.0000000  0  8G26G10G12G05G25G29G02G30
 126846536.798 6  98841537.96143  24138094.398                    24138106.664
 121194070.350 7  94437164.78944  23062472.945                    23062482.504
 111261591.556 8  86697417.313 7  21172379.945                    21172388.629
 106532549.168 8  83012454.891 8  20272444.742                    20272452.980
 113929507.475 8  88776288.657 7  21680063.867                    21680075.848
 121609722.977 7  94760870.577 6  23141566.820                    23141576.793
 112531785.290 8  87687218.30746  21414062.656                    21414069.754
 115342817.781 7  89877589.91545  21949012.000                    21949021.746
 11  8 29  1 25  0.0000000  0  8G26G10G12G05G25G29G02G30
 126751473.008 6  98767462.43143  24120003.875                    24120016.086
 121293271.911 7  94514464.64644  23081350.852                    23081359.828
 111309023.086 7  86734376.944 7  21181405.773                    21181414.676
 106543597.277 8  83021063.828 8  20274547.109                    20274555.063
 113912948.293 7  88763385.400 7  21676913.055                    21676924.570
 121525767.766 7  94695450.975 6  23125590.977                    23125600.859
 112565693.669 8  87713640.42146  21420515.344                    21420522.465
 115327399.021 7  89865575.31445  21946078.195                    21946087.262
 11  8 29  1 25 30.0000000  0  8G26G10G12G05G25G29G02G30
 126656385.553 6  98693368.45943  24101909.117                    24101921.195
 121392702.866 6  94591943.26344  23100272.398                    23100281.348
 111356950.984 7  86771723.337 7  21190526.180                    21190534.480
 106555196.443 8  83030102.161 8  20276754.641                    20276762.613
 113896965.162 8  88750931.018 7  21673871.664                    21673883.070
 121441834.118 7  94630048.176 6  23109619.172                    23109627.668
 112599693.453 8  87740133.75046  21426985.453                    21426992.152
 115312578.025 7  89854026.51445  21943257.344                    21943266.668
 11  8 29  1 26  0.0000000  0  8G26G10G12G05G25G29G02G30
 126561277.763 7  98619258.63043  24083810.594                    24083823.129
 121492360.402 7  94669598.45844  23119236.273                    23119245.879
 111405372.973 8  86809454.752 7  21199740.789                    21199749.398
 106567345.935 8  83039569.309 8  20279066.594                    20279074.824
 113881558.607 8  88738925.913 7  21670939.664                    21670950.828
 121357923.768 7  94564663.519 6  23093651.016                    23093660.754
 112633784.148 8  87766697.91646  21433472.836                    21433478.891
 115298355.174 7  89842943.79545  21940550.891                    21940560.332
 11  8 29  1 26 30.0000000  0  8G26G10G12G05G25G29G02G30
 126466152.833 7  98545135.46043  24065709.531                    24065720.988
 121592241.478 7  94747427.81144  23138242.805                    23138252.773
 111454287.180 8  86847569.691 7  21209048.906                    21209057.543
 106580044.189 8  83049464.081 8  20281482.703                    20281490.918
 113866728.634 8  88727370.098 7  21668117.563                    21668128.980
 121274037.825 7  94499297.898 6  23077688.047                    23077697.367
 112667965.328 8  87793332.59446  21439976.719                    21439983.977
 115284730.229 7  89832326.96745  21937958.305                    21937967.781
 11  8 29  1 27  0.0000000  0  8G26G10G12G05G25G29G02G30
 126371014.029 6  98471001.46543  24047604.867                    24047616.367
 121692343.494 7  94825429.33444  23157291.727                    23157301.254
 111503691.740 8  86886066.733 7  21218450.039                    21218459.055
 106593290.495 8  83059785.906 8  20284003.492                    20284011.551
 113852475.609 8  88716263.831 7  21665405.469                    21665416.746
 121190178.153 7  94433952.720 6  23061730.289                    23061739.480
 112702236.990 8  87820037.78746  21446498.523                    21446505.066
 115271703.278 7  89822176.11645  21935479.758                    21935488.703
 11  8 29  1 27 30.0000000  0  8G26G10G12G05G25G29G02G30
 126275864.818 7  98396859.37443  24029498.070                    24029509.902
 121792663.696 7  94903600.87044  23176382.156                    23176392.156
 111553584.319 8  86924944.053 7  21227944.273                    21227953.090
 106607083.884 8  83070534.017 8  20286628.414                    20286636.449
 113838799.871 8  88705607.395 7  21662802.898                    21662814.289
 121106346.415 7  94368629.327 6  23045777.844                    23045787.039
 112736598.845 8  87846813.25446  21453037.570                    21453044.465
 115259274.501 7  89812491.36645  21933114.469                    21933123.441
 11  8 29  1 28  0.0000000  0  8G26G10G12G05G25G29G02G30
 126180708.168 7  98322711.41543  24011391.117                    24011402.223
 121893198.980 7  94981940.01844  23195513.555                    23195523.273
 111603962.754 8  86964199.950 7  21237530.766                    21237539.977
 106621422.760 8  83081707.188 8  20289356.789                    20289364.695
 113825701.434 8  88695400.797 7  21660310.531                    21660321.840
 121022544.233 7  94303328.992 6  23029830.477                    23029840.121
 112771050.405 8  87873658.61146  21459593.547                    21459600.488
 115247443.579 7  89803272.48245  21930862.977                    21930871.863
 11  8 29  1 28 30.0000000  0  8G26G10G12G05G25G29G02G30
 126085547.512 7  98248560.37543  23993282.570                    23993293.582
 121993946.535 7  95060444.57044  23214685.344                    23214695.023
 111654825.402 8  87003833.161 7  21247209.859                    21247218.684
 106636306.016 8  83093304.558 8  20292189.195                    20292197.063
 113813180.466 8  88685644.180 7  21657927.766                    21657938.938
 120938773.134 7  94238052.837 6  23013889.586                    23013899.031
 112805591.317 8  87900573.59846  21466166.469                    21466173.313
 115236210.567 7  89794519.49645  21928725.156                    21928734.527
 11  8 29  1 29  0.0000000  0  8G26G10G12G05G25G29G02G30
 125990386.113 7  98174408.75243  23975173.461                    23975184.703
 122094903.809 7  95139112.53844  23233896.594                    23233905.941
 111706169.841 8  87043841.781 7  21256980.711                    21256989.316
 106651732.613 8  83105325.292 8  20295124.570                    20295132.758
 113801237.077 8  88676337.615 7  21655655.234                    21655666.348
 120855034.620 7  94172802.082 6  22997954.367                    22997964.289
 112840221.466 8  87927558.11146  21472756.250                    21472762.961
 115225575.295 7  89786232.29345  21926701.461                    21926710.688
 11  8 29  1 29 30.0000000  0  8G26G10G12G05G25G29G02G30
 125895227.286 7  98100259.14343  23957065.313                    23957076.574
 122196067.888 7  95217941.66944  23253147.492                    23253157.059
 111757993.794 8  87084224.058 7  21266842.313                    21266851.348
 106667701.281 8  83117768.424 8  20298163.320                    20298171.344
 113789871.416 8  88667481.245 7  21653492.094                    21653503.297
 120771330.511 7  94107578.169 6  22982026.148                    22982035.719
 112874940.133 8  87954611.61346  21479363.203                    21479370.086
 115215537.670 7  89778410.77145  21924791.469                    21924800.363
 11  8 29  1 30  0.0000000  0  8G26G10G12G05G25G29G02G30
 125800074.159 6  98026113.97343  23938957.977                    23938969.332
 122297436.018 7  95296929.78143  23272436.641                    23272446.910
 111810294.869 8  87124978.109 7  21276794.711                    21276804.063
 106684210.655 8  83130632.892 8  20301304.891                    20301313.543
 113779083.459 8  88659075.037 7  21651439.367                    21651450.262
 120687662.382 7  94042382.270 6  22966104.461                    22966113.617
 112909747.157 8  87981733.96346  21485986.719                    21485993.465
 115206097.463 7  89771054.77145  21922995.539                    21923004.660
 11  8 29  1 30 30.0000000  0  8G26G10G12G05G25G29G02G30
 125704930.217 6  97951975.96043  23920851.906                    23920864.027
 122399005.262 7  95376074.60843  23291764.984                    23291774.883
 111863071.187 8  87166102.473 7  21286838.258                    21286847.066
 106701259.510 8  83143917.723 8  20304549.141                    20304557.023
 113768873.326 8  88651119.072 7  21649496.367                    21649507.508
 120604032.003 7  93977215.777 7  22950189.945                    22950199.410
 112944642.635 8  88008925.23546  21492627.164                    21492634.105
 115197254.455 7  89764164.10445  21921312.078                    21921321.328
 11  8 29  1 31  0.0000000  0  8G26G10G12G05G25G29G02G30
 125609798.878 6  97877847.77643  23902749.789                    23902761.316
 122500773.077 7  95455374.19943  23311129.992                    23311140.078
 111916320.905 8  87207595.729 7  21296970.883                    21296979.895
 106718846.950 8  83157622.246 8  20307895.938                    20307904.320
 113759241.296 8  88643613.583 7  21647663.766                    21647674.418
 120520441.225 7  93912080.170 7  22934283.164                    22934292.426
 112979626.334 8  88036185.26746  21499284.016                    21499290.789
 115189008.828 7  89757738.93745  21919743.031                    21919752.438
 11  8 29  1 31 30.0000000  0  8G26G10G12G05G25G29G02G30
 125514683.107 6  97803731.72444  23884650.141                    23884661.742
 122602736.352 7  95534826.07443  23330533.266                    23330542.859
 111970041.371 8  87249455.801 7  21307193.594                    21307202.516
 106736971.105 8  83171744.981 8  20311344.820                    20311352.746
 113750187.020 8  88636558.284 7  21645940.664                    21645951.891
 120436891.419 7  93846976.461 6  22918384.008                    22918393.449
 113014697.612 8  88063513.52946  21505957.656                    21505964.566
 115181359.905 7  89751778.72345  21918287.461                    21918296.797
 11  8 29  1 32  0.0000000  0  8G26G10G12G05G25G29G02G30
 125419586.678 6  97729630.75143  23866552.578                    23866564.563
 122704892.221 7  95614428.02943  23349973.391                    23349983.141
 112024230.487 7  87291681.047 7  21317505.938                    21317514.500
 106755631.018 8  83186285.182 8  20314895.781                    20314903.594
 113741710.611 8  88629953.287 7  21644327.609                    21644339.172
 120353384.245 7  93781905.999 7  22902493.461                    22902503.176
 113049856.266 8  88090909.88046  21512648.281                    21512655.184
 115174307.671 7  89746283.45745  21916945.492                    21916954.574
 11  8 29  1 32 30.0000000  0  8G26G10G12G05G25G29G02G30
 125324512.627 6  97655547.21943  23848460.906                    23848473.082
 122807238.076 7  95694178.04943  23369448.961                    23369458.488
 112078886.082 8  87334269.789 7  21327906.313                    21327915.035
 106774825.046 8  83201241.594 8  20318547.977                    20318556.129
 113733811.906 8  88623798.453 7  21642824.594                    21642835.984
 120269921.495 7  93716870.139 6  22886611.102                    22886620.313
 113085101.950 8  88118374.05145  21519355.648                    21519362.180
 115167851.556 7  89741252.69145  21915717.297                    21915726.090
 11  8 29  1 33  0.0000000  0  8G26G10G12G05G25G29G02G30
 125229464.665 6  97581484.01843  23830374.078                    23830385.582
 122909771.267 7  95774074.01643  23388960.484                    23388970.820
 112134005.755 7  87377220.145 7  21338394.938                    21338404.027
 106794552.197 8  83216613.414 8  20322302.195                    20322310.480
 113726491.130 7  88618093.942 7  21641431.484                    21641443.020
 120186505.065 7  93651870.354 6  22870736.695                    22870746.254
 113120434.628 8  88145906.01546  21526079.141                    21526086.215
 115161991.604 7  89736686.45445  21914602.305                    21914611.094
 11  8 29  1 33 30.0000000  0  8G26G10G12G05G25G29G02G30
 125134445.735 6  97507443.43144  23812291.828                    23812304.410
 123012488.716 7  95854113.60543  23408506.695                    23408516.637
 112189587.331 8  87420530.437 7  21348972.148                    21348981.223
 106814810.481 8  83232399.095 8  20326157.117                    20326165.586
 113719747.624 8  88612839.264 7  21640148.406                    21640159.426
 120103136.261 7  93586907.696 6  22854872.836                    22854882.219
 113155853.824 8  88173505.39246  21532819.055                    21532825.883
 115156727.088 7  89732584.19245  21913600.523                    21913609.367
 11  8 29  1 34  0.0000000  0  8G26G10G12G05G25G29G02G30
 125039459.375 6  97433428.18043  23794216.320                    23794227.871
 123115387.857 7  95934294.72244  23428087.828                    23428097.910
 112245628.284 7  87464198.690 7  21359636.133                    21359645.328
 106835598.936 8  83248597.916 8  20330112.844                    20330120.793
 113713581.571 7  88608034.561 7  21638974.336                    21638985.879
 120019817.193 7  93521983.820 6  22839017.367                    22839026.895
 113191359.612 8  88201172.24546  21539575.750                    21539582.223
 115152057.758 7  89728945.71945  21912711.297                    21912721.063
 11  8 29  1 34 30.0000000  0  8G26G10G12G05G25G29G02G30
 124944508.904 6  97359440.97443  23776148.742                    23776159.984
 123218465.485 7  96014614.97143  23447702.250                    23447712.820
 112302126.614 7  87508223.314 7  21370387.508                    21370396.727
 106856915.694 8  83265208.386 8  20334169.555                    20334177.625
 113707992.597 8  88603679.512 7  21637911.719                    21637922.289
 119936549.529 7  93457099.956 6  22823172.602                    22823181.500
 113226951.421 8  88228906.11546  21546348.602                    21546355.367
 115147983.075 8  89725770.61845  21911936.125                    21911945.500
 11  8 29  1 35  0.0000000  0  8G26G10G12G05G25G29G02G30
 124849597.762 6  97285484.37144  23758086.781                    23758098.688
 123321719.127 7  96095072.33643  23467351.984                    23467361.375
 112359079.223 7  87552601.959 7  21381225.305                    21381234.133
 106878759.653 8  83282229.671 8  20338326.031                    20338334.137
 113702980.699 8  88599774.133 7  21636957.734                    21636968.586
 119853334.933 7  93392257.461 7  22807336.492                    22807346.281
 113262629.142 8  88256706.94045  21553138.055                    21553144.164
 115144502.814 8  89723058.69945  21911273.742                    21911283.520
 11  8 29  1 35 30.0000000  0  8G26G10G12G05G25G29G02G30
 124754729.322 6  97211561.01843  23740034.516                    23740045.516
 123425146.124 7  96175664.79443  23487033.547                    23487043.293
 112416484.368 7  87597333.216 7  21392149.625                    21392158.281
 106901129.256 8  83299660.543 8  20342582.922                    20342591.125
 113698545.566 8  88596318.197 7  21636113.758                    21636124.504
 119770175.025 7  93327457.589 6  22791511.734                    22791521.055
 113298392.552 8  88284574.53046  21559943.289                    21559950.066
 115141616.350 8  89720809.48545  21910724.422                    21910734.332
 11  8 29  1 36  0.0000000  0  8G26G10G12G05G25G29G02G30
 124659907.119 6  97137673.67844  23721989.961                    23722000.914
 123528743.821 7  96256390.24943  23506747.156                    23506757.371
 112474339.821 7  87642415.349 7  21403158.672                    21403167.813
 106924023.226 8  83317500.011 8  20346939.758                    20346947.559
 113694687.139 7  88593311.638 7  21635379.523                    21635390.836
 119687071.692 7  93262701.777 7  22775698.094                    22775707.020
 113334241.534 8  88312508.80746  21566765.445                    21566771.918
 115139323.421 7  89719022.76745  21910288.227                    21910297.590
 11  8 29  1 36 30.0000000  0  9G26G10G15G12G05G25G29G02G30
 124565134.280 6  97063824.85943  23703956.148                    23703966.277
 123632509.169 6  96337246.36543  23526492.414                    23526503.344
 129404716.69616 100835021.42915  24624930.563                    24624942.477
 112532642.800 7  87687846.216 7  21414253.531                    21414262.313
 106947439.789 8  83335746.714 8  20351395.398                    20351403.344
 113691404.862 7  88590754.026 7  21634754.930                    21634766.523
 119604026.807 7  93197991.504 7  22759895.188                    22759904.230
 113370175.844 8  88340509.57146  21573603.297                    21573609.727
 115137623.207 7  89717697.90345  21909965.000                    21909974.480
 11  8 29  1 37  0.0000000  0  9G26G10G15G12G05G25G29G02G30
 124470413.957 6  96990016.90744  23685931.016                    23685942.289
 123736439.440 7  96418230.94344  23546270.625                    23546280.074
 129311596.868 5 100762460.767 5  24607209.609                    24607222.984
 112591390.526 8  87733623.650 7  21425433.164                    21425441.930
 106971376.951 8  83354399.054 8  20355950.695                    20355958.539
 113688698.081 8  88588644.847 7  21634239.547                    21634251.230
 119521041.636 7  93133327.797 7  22744103.406                    22744112.758
 113406194.835 8  88368576.32245  21580457.578                    21580464.145
 115136514.865 7  89716834.24145  21909753.695                    21909763.566
 11  8 29  1 37 30.0000000  0  9G26G10G15G12G05G25G29G02G30
 124375750.073 7  96916252.93843  23667916.813                    23667927.809
 123840532.108 6  96499342.05643  23566079.023                    23566089.113
 129218344.365 5 100689796.768 5  24589464.039                    24589477.414
 112650581.166 7  87779746.202 7  21436696.500                    21436705.164
 106995833.952 8  83373456.484 8  20360604.859                    20360612.832
 113686567.023 8  88586984.292 7  21633833.945                    21633845.824
 119438118.365 7  93068712.303 7  22728324.023                    22728332.949
 113442298.870 8  88396709.32446  21587328.102                    21587334.250
 115135998.298 7  89716431.72545  21909655.148                    21909665.063
 11  8 29  1 38  0.0000000  0  9G26G10G15G12G05G25G29G02G30
 124281146.269 6  96842535.78843  23649914.156                    23649924.660
 123944784.446 6  96580577.61143  23585916.445                    23585927.332
 129124962.167 5 100617031.727 5  24571693.492                    24571707.520
 112710212.812 8  87826212.397 7  21448043.648                    21448052.637
 107020809.415 8  83392917.890 8  20365357.492                    20365365.477
 113685011.568 8  88585772.251 7  21633538.039                    21633549.625
 119355259.204 7  93004146.751 7  22712555.891                    22712565.457
 113478487.955 8  88424908.60645  21594214.453                    21594221.355
 115136073.098 7  89716490.00545  21909669.688                    21909679.191
 11  8 29  1 38 30.0000000  0  9G26G10G15G12G05G25G29G02G30
 124186605.829 7  96768868.03643  23631923.164                    23631933.887
 124049193.821 7  96661935.52443  23605786.086                    23605795.617
 129031452.03516 100544166.97016  24553899.195                    24553912.707
 112770282.292 8  87873019.769 7  21459474.461                    21459483.629
 107046301.340 8  83412781.738 8  20370208.219                    20370216.098
 113684031.016 8  88585008.190 7  21633351.961                    21633363.043
 119272465.548 7  92939632.246 7  22696801.070                    22696809.996
 113514761.507 8  88453173.71246  21601117.133                    21601123.469
 115136738.415 7  89717008.41745  21909796.508                    21909806.039
 11  8 29  1 39  0.0000000  0  9G26G10G15G12G05G25G29G02G30
 124092131.997 7  96695252.15844  23613945.484                    23613956.762
 124153757.184 7  96743413.42043  23625683.008                    23625693.324
 128937816.666 6 100471204.628 6  24536080.805                    24536093.883
 112830787.059 7  87920166.329 7  21470988.680                    21470997.328
 107072307.796 8  83433046.523 8  20375157.203                    20375165.406
 113683624.861 8  88584691.688 7  21633274.148                    21633285.473
 119189739.167 7  92875170.177 7  22681058.383                    22681067.660
 113551119.576 8  88481504.66146  21608035.695                    21608042.320
 115137993.465 7  89717986.38345  21910035.563                    21910044.793
 11  8 29  1 39 30.0000000  0  9G26G10G15G12G05G25G29G02G30
 123997728.248 7  96621690.91944  23595981.023                    23595992.383
 124258471.927 7  96825009.26743  23645610.813                    23645620.270
 128844058.371 6 100398146.504 6  24518239.781                    24518252.184
 112891724.549 8  87967650.076 7  21482584.617                    21482593.480
 107098827.246 8  83453711.059 8  20380203.688                    20380211.734
 113683792.529 8  88584822.335 7  21633306.023                    21633317.363
 119107081.892 7  92810761.974 7  22665329.258                    22665339.074
 113587561.531 8  88509900.98545  21614970.250                    21614976.902
 115139837.380 7  89719423.19045  21910386.023                    21910396.195
 11  8 29  1 40  0.0000000  0  9G26G10G15G12G05G25G29G02G30
 123903398.095 7  96548187.01944  23578030.578                    23578041.430
 124363335.540 7  96906721.16143  23665564.656                    23665574.422
 128750179.857 6 100324994.709 6  24500374.406                    24500387.164
 112953092.816 8  88015469.491 7  21494262.328                    21494271.574
 107125858.506 8  83474774.406 8  20385347.234                    20385355.566
 113684533.868 8  88585399.999 7  21633447.648                    21633458.215
 119024495.833 7  92746409.234 7  22649614.078                    22649623.125
 113624087.723 8  88538362.94746  21621921.258                    21621927.660
 115142269.704 7  89721318.50745  21910848.852                    21910858.727
 11  8 29  1 40 30.0000000  0  9G26G10G15G12G05G25G29G02G30
 123809145.269 6  96474743.34443  23560094.773                    23560105.168
 124468345.251 7  96988546.85343  23685547.984                    23685557.711
 128656183.496 6 100251751.032 6  24482486.930                    24482499.840
 113014889.363 8  88063622.630 7  21506022.148                    21506031.156
 107153399.854 8  83496235.208 8  20390588.500                    20390596.234
 113685848.430 8  88586424.313 7  21633697.172                    21633708.594
 118941982.737 7  92682113.374 7  22633911.844                    22633921.059
 113660698.350 8  88566890.70246  21628888.148                    21628894.508
 115145289.854 7  89723671.85045  21911423.828                    21911433.438
 11  8 29  1 41  0.0000000  0  9G26G10G15G12G05G25G29G02G30
 123714973.052 6  96401362.50344  23542174.781                    23542184.953
 124573498.273 7  97070484.24443  23705557.633                    23705567.402
 128562071.903 7 100178417.597 6  24464578.625                    24464591.152
 113077111.337 8  88112107.275 7  21517862.273                    21517871.355
 107181449.405 8  83518092.003 8  20395926.023                    20395933.949
 113687735.622 8  88587894.860 7  21634056.391                    21634067.695
 118859544.465 7  92617875.800 7  22618224.383                    22618233.680
 113697392.535 7  88595483.55945  21635870.422                    21635877.395
 115148896.884 7  89726482.51645  21912110.258                    21912119.688
 11  8 29  1 41 30.0000000  0  9G26G10G15G12G05G25G29G02G30
 123620884.780 6  96328047.08244  23524269.805                    23524280.691
 124678791.870 7  97152531.15143  23725594.906                    23725604.238
 128467847.747 7 100104996.498 6  24446648.008                    24446660.203
 113139756.142 7  88160921.403 7  21529783.297                    21529792.410
 107210005.314 8  83540343.367 8  20401359.938                    20401367.953
 113690194.759 8  88589811.044 7  21634524.383                    21634535.336
 118777182.692 7  92553697.836 7  22602551.484                    22602560.086
 113734170.319 7  88624141.56745  21642869.234                    21642875.680
 115153089.976 7  89729749.87545  21912908.383                    21912917.832
 11  8 29  1 42  0.0000000  0  9G26G10G15G12G05G25G29G02G30
 123526884.348 6  96254800.14644  23506382.008                    23506393.180
 124784223.653 7  97234685.78343  23745657.531                    23745667.277
 128373513.314 6 100031489.452 6  24428696.773                    24428708.871
 113202821.734 7  88210063.419 7  21541783.898                    21541793.137
 107239066.456 8  83562988.432 8  20406890.195                    20406898.367
 113693225.642 7  88592172.749 7  21635101.313                    21635112.176
 118694899.691 7  92489581.264 7  22586893.641                    22586902.375
 113771031.938 7  88652864.88845  21649883.445                    21649890.301
 115157868.497 7  89733473.40245  21913817.664                    21913827.027
 11  8 29  1 42 30.0000000  0  9G26G10G15G12G05G25G29G02G30
 123432975.177 7  96181624.30043  23488511.719                    23488522.703
 124889790.971 7  97316946.00543  23765746.859                    23765756.492
 128279071.351 6  99957898.581 6  24410725.141                    24410737.191
 113266305.162 7  88259531.024 7  21553864.844                    21553873.535
 107268630.995 8  83586025.744 8  20412516.195                    20412523.934
 113696827.557 8  88594979.426 7  21635786.602                    21635797.586
 118612697.166 7  92425527.401 7  22571250.477                    22571259.715
 113807977.316 7  88681653.47745  21656914.406                    21656921.176
 115163231.542 7  89737652.39945  21914838.250                    21914847.449
 11  8 29  1 43  0.0000000  0  9G26G10G15G12G05G25G29G02G30
 123339160.558 7  96108522.08944  23470659.406                    23470670.574
 124995491.204 7  97399309.79443  23785860.695                    23785870.691
 128184524.279 6  99884225.846 6  24392732.719                    24392745.105
 113330203.919 7  88309322.247 7  21566024.414                    21566033.133
 107298697.096 8  83609453.895 8  20418237.906                    20418245.820
 113700999.804 8  88598230.520 7  21636580.195                    21636591.766
 118530577.051 7  92361537.750 7  22555623.734                    22555632.762
 113845005.990 7  88710506.98045  21663960.578                    21663967.148
 115169178.155 7  89742286.10445  21915969.922                    21915979.219
 11  8 29  1 43 30.0000000  0  9G26G10G15G12G05G25G29G02G30
 123245444.043 7  96035496.36544  23452825.836                    23452836.910
 125101321.514 6  97481774.94443  23805999.047                    23806009.957
 128089874.359 7  99810472.944 6  24374721.672                    24374733.383
 113394514.948 7  88359434.739 7  21578262.539                    21578271.555
 107329262.457 8  83633271.063 8  20424053.969                    20424061.492
 113705741.415 7  88601925.268 7  21637482.766                    21637493.820
 118448541.033 7  92297613.628 6  22540012.891                    22540021.945
 113882117.734 7  88739425.22345  21671022.883                    21671029.375
 115175707.145 7  89747373.63145  21917211.977                    21917221.395
 11  8 29  1 44  0.0000000  0  9G26G10G15G12G05G25G29G02G30
 123151829.279 7  95962549.90844  23435010.813                    23435021.844
 125207279.215 6  97564339.32243  23826162.477                    23826172.535
 127995124.577 6  99736642.203 6  24356690.602                    24356702.422
 113459236.362 7  88409867.004 7  21590578.508                    21590587.328
 107360325.870 8  83657476.323 8  20429965.281                    20429973.109
 113711052.178 8  88606063.504 7  21638493.422                    21638504.875
 118366591.025 7  92233756.515 7  22524417.859                    22524427.395
 113919313.122 7  88768408.62945  21678101.078                    21678107.688
 115182817.895 7  89752914.45745  21918565.742                    21918574.898
 11  8 29  1 44 30.0000000  0  9G26G10G15G12G05G25G29G02G30
 123058319.480 7  95889685.24544  23417216.820                    23417227.539
 125313361.573 6  97647000.82643  23846349.172                    23846358.840
 127900277.402 6  99662735.571 6  24338641.594                    24338653.500
 113524365.106 7  88460616.656 7  21602972.156                    21602981.000
 107391885.299 8  83682068.098 8  20435970.883                    20435978.879
 113716931.081 8  88610644.469 7  21639612.211                    21639623.633
 118284729.195 7  92169968.127 7  22508840.023                    22508849.461
 113956591.171 7  88797456.44645  21685194.617                    21685201.238
 115190509.315 7  89758907.76845  21920029.234                    21920038.516
 11  8 29  1 45  0.0000000  0  9G26G10G15G12G05G25G29G02G30
 122964918.243 7  95816905.16044  23399443.500                    23399453.691
 125419566.254 6  97729757.67743  23866559.227                    23866568.641
 127805335.258 6  99588754.918 6  24320574.453                    24320587.016
 113589898.735 7  88511681.807 7  21615443.000                    21615451.422
 107423938.952 8  83707044.976 8  20442070.250                    20442078.238
 113723377.595 7  88615667.718 7  21640838.906                    21640850.242
 118202957.468 7  92106249.933 7  22493279.898                    22493288.609
 113993952.395 7  88826569.08145  21692304.352                    21692311.016
 115198780.523 7  89765352.85545  21921602.828                    21921611.891
 11  8 29  1 45 30.0000000  0  9G26G10G15G12G05G25G29G02G30
 122871629.391 7  95744212.64944  23381690.781                    23381700.652
 125525890.402 6  97812607.58743  23886791.852                    23886802.406
 127710300.923 6  99514702.445 5  24302490.406                    24302502.180
 113655834.670 7  88563060.450 7  21627990.180                    21627998.793
 107456485.110 8  83732405.626 8  20448263.242                    20448271.813
 113730391.022 8  88621132.716 7  21642173.641                    21642185.008
 118121277.700 7  92042603.415 7  22477736.359                    22477745.605
 114031396.981 7  88855746.68645  21699429.656                    21699435.969
 115207630.535 7  89772248.96045  21923286.883                    21923296.242
 11  8 29  1 46  0.0000000  0  9G26G10G15G12G05G25G29G02G30
 122778456.481 7  95671610.49644  23363960.164                    23363970.707
 125632331.608 6  97895548.74343  23907047.219                    23907057.234
 127615177.130 6  99440580.258 5  24284388.109                    24284400.203
 113722170.145 7  88614750.412 7  21640613.359                    21640622.035
 107489522.065 8  83758148.718 8  20454550.141                    20454558.281
 113737970.529 8  88627038.834 7  21643616.039                    21643627.582
 118039691.877 7  91979030.077 7  22462211.336                    22462220.305
 114068924.343 8  88884988.77845  21706570.664                    21706576.770
 115217058.352 7  89779595.31045  21925080.977                    21925089.797
 11  8 29  1 46 30.0000000  0  9G26G10G15G12G05G25G29G02G30
 122685402.874 7  95599101.27544  23346252.906                    23346263.543
 125738886.954 6  97978578.77743  23927324.336                    23927334.441
 127519966.495 6  99366390.375 5  24266270.125                    24266282.172
 113788902.653 7  88666749.756 7  21653311.891                    21653321.258
 107523047.849 8  83784272.702 8  20460930.109                    20460938.176
 113746115.358 8  88633385.442 7  21645166.031                    21645177.574
 117958201.990 7  91915531.492 7  22446704.344                    22446713.160
 114106534.543 7  88914295.41945  21713727.961                    21713734.609
 115227062.757 7  89787390.93445  21926984.820                    21926994.449
 11  8 29  1 47  0.0000000  0  9G26G10G15G12G05G25G29G02G30
 122592472.281 7  95526687.94044  23328568.633                    23328579.293
 125845554.117 6  98061695.98543  23947622.180                    23947632.691
 127424670.985 6  99292134.314 6  24248136.172                    24248147.387
 113856029.093 7  88719056.053 7  21666085.906                    21666094.426
 107557060.329 7  83810775.933 8  20467402.609                    20467410.492
 113754824.466 8  88640171.758 7  21646823.203                    21646834.879
 117876809.754 7  91852109.009 7  22431216.125                    22431225.230
 114144227.693 7  88943666.71345  21720900.914                    21720907.254
 115237642.471 7  89795634.85945  21928997.898                    21929007.328
 11  8 29  1 47 30.0000000  0  9G26G10G15G12G05G25G29G02G30
 122499667.846 7  95454372.87644  23310908.734                    23310919.219
 125952330.256 7  98144898.09143  23967941.750                    23967951.055
 127329293.622 7  99217814.491 6  24229985.961                    24229997.582
 113923546.906 7  88771667.311 7  21678934.023                    21678943.066
 107591557.487 8  83837656.844 8  20473967.047                    20473975.066
 113764096.911 7  88647397.037 7  21648587.563                    21648598.902
 117795517.042 7  91788764.086 7  22415746.438                    22415755.227
 114182003.395 7  88973102.32845  21728089.063                    21728095.504
 115248796.455 7  89804326.26945  21931120.609                    21931129.707
 11  8 29  1 48  0.0000000  0  9G26G10G15G12G05G25G29G02G30
 122406993.596 7  95382159.26644  23293272.953                    23293283.664
 126059213.207 6  98228183.43743  23988280.391                    23988290.355
 127233837.296 7  99143433.139 6  24211820.797                    24211832.602
 113991453.346 7  88824581.388 7  21691856.148                    21691865.000
 107626538.058 8  83864914.451 8  20480623.273                    20480631.527
 113773932.118 8  88655060.846 7  21650459.117                    21650471.355
 117714326.153 7  91725498.492 7  22400296.211                    22400305.258
 114219861.919 7  89002602.48745  21735293.820                    21735300.289
 115260523.833 7  89813464.47845  21933352.141                    21933361.938
 11  8 29  1 48 30.0000000  0  9G26G10G15G12G05G25G29G02G30
 122314452.981 6  95310049.81344  23275662.891                    23275673.555
 126166199.842 7  98311549.57743  24008639.609                    24008649.992
 127138304.758 7  99068992.447 6  24193642.023                    24193653.559
 114059745.948 8  88877796.388 7  21704851.602                    21704860.684
 107661999.919 7  83892547.070 8  20487371.977                    20487379.711
 113784329.141 7  88663162.408 7  21652437.555                    21652449.262
 117633239.229 7  91662313.923 7  22384865.852                    22384874.762
 114257803.035 7  89032166.99445  21742513.359                    21742519.766
 115272823.281 7  89823048.45745  21935692.805                    21935702.266
 11  8 29  1 49  0.0000000  0  9G26G10G15G12G05G25G29G02G30
 122222049.828 7  95238047.42544  23258079.227                    23258089.469
 126273288.256 6  98394995.01443  24029017.602                    24029027.707
 127042698.395 7  98994494.137 6  24175448.398                    24175459.434
 114128422.378 7  88931310.462 7  21717920.375                    21717929.547
 107697941.428 7  83920553.426 8  20494210.930                    20494218.953
 113795287.208 8  88671701.153 7  21654523.195                    21654534.480
 117552258.171 7  91599211.837 7  22369455.523                    22369464.492
 114295827.308 7  89061796.30645  21749749.484                    21749756.133
 115285693.917 7  89833077.52045  21938141.750                    21938151.414
 11  8 29  1 49 30.0000000  0  9G26G10G15G12G05G25G29G02G30
 122129787.284 7  95166154.61544  23240522.500                    23240532.441
 126380475.240 6  98478517.27143  24049414.406                    24049424.250
 126947020.755 7  98919940.318 6  24157241.109                    24157253.203
 114197479.346 7  88985121.063 7  21731061.586                    21731070.563
 107734359.837 8  83948931.412 8  20501141.203                    20501149.293
 113806804.870 8  88680675.949 7  21656714.750                    21656726.234
 117471384.744 7  91536193.616 7  22354066.188                    22354074.516
 114333934.062 8  89091489.88145  21757000.781                    21757007.566
 115299133.857 7  89843550.19245  21940699.273                    21940709.246
 11  8 29  1 50  0.0000000  0  9G26G10G15G12G05G25G29G02G30
 122037669.314 7  95094374.48144  23222992.367                    23223002.828
 126487758.800 6  98562114.77643  24069829.852                    24069840.633
 126851275.016 7  98845333.469 6  24139021.430                    24139033.250
 114266913.773 7  89039225.784 7  21744274.828                    21744283.484
 107771254.055 8  83977680.158 8  20508161.703                    20508170.047
 113818881.633 8  88690086.407 7  21659012.563                    21659024.383
 117390621.156 7  91473260.974 7  22338697.063                    22338705.969
 114372123.610 7  89121247.98145  21764267.602                    21764274.316
 115313142.342 8  89854465.86845  21943364.953                    21943374.832
 11  8 29  1 50 30.0000000  0  9G26G10G15G12G05G25G29G02G30
 121945699.234 6  95022709.61044  23205491.125                    23205501.551
 126595136.233 6  98645785.48143  24090263.359                    24090273.473
 126755463.354 6  98770675.194 6  24120788.891                    24120800.605
 114336723.520 7  89093622.958 7  21757558.844                    21757568.102
 107808621.602 7  84006797.743 8  20515273.039                    20515280.887
 113831516.243 8  88699931.553 7  21661417.141                    21661428.484
 117309969.332 7  91410415.456 7  22323349.578                    22323358.156
 114410395.821 7  89151070.49845  21771550.820                    21771557.566
 115327717.933 8  89865823.47145  21946138.664                    21946148.352
 11  8 29  1 51  0.0000000  0  9G26G10G15G12G05G25G29G02G30
 121853880.929 7  94951162.97644  23188018.414                    23188028.762
 126702605.043 6  98729527.36942  24110713.531                    24110724.254
 126659588.660 7  98695967.829 6  24102544.133                    24102556.207
 114406905.598 7  89148310.281 7  21770914.250                    21770923.168
 107846460.890 8  84036282.879 8  20522473.281                    20522481.914
 113844707.897 8  88710210.767 7  21663927.578                    21663939.242
 117229431.563 7  91347658.760 7  22308023.344                    22308032.711
 114448750.802 7  89180957.49546  21778849.430                    21778856.293
 115342859.479 8  89877622.07445  21949019.992                    21949029.625
 11  8 29  1 51 30.0000000  0  9G26G10G15G12G05G25G29G02G30
 121762217.520 7  94879737.02044  23170575.891                    23170585.762
 126810162.662 6  98813338.39742  24131181.938                    24131191.824
 126563653.322 6  98621213.225 6  24084288.492                    24084299.902
 114477456.830 7  89203285.232 7  21784339.797                    21784348.559
 107884769.231 8  84066133.546 8  20529763.250                    20529770.863
 113858455.135 8  88720922.876 7  21666543.633                    21666554.758
 117149009.495 7  91284992.253 7  22292719.766                    22292728.582
 114487188.157 7  89210908.69145  21786164.250                    21786171.141
 115358565.325 8  89889860.37945  21952008.891                    21952018.609
 11  8 29  1 52  0.0000000  0  9G26G10G15G12G05G25G29G02G30
 121670713.001 7  94808434.89044  23153163.617                    23153173.379
 126917806.557 6  98897216.72342  24151665.523                    24151675.590
 126467660.402 6  98546413.719 6  24066021.383                    24066033.508
 114548375.058 7  89258546.164 7  21797835.313                    21797844.227
 107923545.113 8  84096348.524 8  20537142.125                    20537150.102
 113872756.995 8  88732067.183 7  21669265.148                    21669276.543
 117068705.236 7  91222417.528 7  22277438.328                    22277447.527
 114525708.339 7  89240924.41045  21793494.266                    21793500.484
 115374834.330 8  89902537.52445  21955104.758                    21955113.734
 11  8 29  1 52 30.0000000  0  9G26G10G15G12G05G25G29G02G30
 121579370.862 7  94737259.29844  23135781.539                    23135791.313
 127025534.273 5  98981160.33442  24172165.797                    24172175.344
 126371612.594 6  98471571.474 6  24047744.430                    24047755.621
 114619657.796 7  89314091.126 7  21811399.773                    21811408.582
 107962786.495 8  84126926.229 8  20544609.656                    20544617.504
 113887612.633 8  88743643.001 7  21672092.258                    21672103.199
 116988521.095 7  91159936.416 7  22262179.703                    22262188.910
 114564311.380 7  89271004.69945  21800839.891                    21800846.180
 115391665.092 7  89915652.39345  21958307.188                    21958317.352
 11  8 29  1 53  0.0000000  0  9G26G10G15G12G05G25G29G02G30
 121488194.877 7  94666213.15944  23118430.852                    23118441.184
 127133343.097 6  99065167.18443  24192680.797                    24192690.863
 126275512.594 6  98396688.535 6  24029456.344                    24029468.262
 114691300.960 7  89369916.973 7  21825032.836                    21825041.781
 108002491.109 8  84157864.893 8  20552164.680                    20552172.480
 113903020.706 8  88755649.257 7  21675024.281                    21675035.785
 116908458.921 7  91097550.329 7  22246944.672                    22246953.496
 114602997.020 7  89301149.35745  21808201.859                    21808208.555
 115409056.253 8  89929203.94345  21961616.820                    21961626.047
 11  8 29  1 53 30.0000000  0  9G26G10G15G12G05G25G29G02G30
 121397188.585 7  94595299.25744  23101112.539                    23101123.348
 127241230.630 6  99149235.30743  24213211.469                    24213221.727
 126179363.108 6  98321767.087 6  24011159.742                    24011171.449
 114763302.559 7  89426022.085 7  21838734.414                    21838743.152
 108042657.063 8  84189163.049 8  20559808.445                    20559816.512
 113918980.191 8  88768085.226 7  21678060.938                    21678072.566
 116828520.985 7  91035261.051 7  22231732.789                    22231741.633
 114641765.711 8  89331358.72245  21815578.969                    21815585.672
 115427006.504 7  89943191.15045  21965032.773                    21965042.363
 11  8 29  1 54  0.0000000  0  9G26G10G15G12G05G25G29G02G30
 121306355.302 7  94524520.17744  23083828.047                    23083837.887
 127349194.609 6  99233363.01543  24233756.414                    24233766.781
 126083166.816 6  98246809.087 6  23992854.180                    23992865.309
 114835659.883 7  89482404.412 7  21852503.398                    21852512.195
 108083282.380 7  84220819.147 8  20567539.063                    20567547.078
 113935489.757 8  88780949.805 7  21681202.828                    21681214.133
 116748709.273 7  90973070.151 7  22216545.031                    22216554.145
 114680617.244 7  89361632.64945  21822972.328                    21822978.914
 115445514.050 8  89957612.62345  21968554.742                    21968564.246
 11  8 29  1 54 30.0000000  0  9G26G10G15G12G05G25G29G02G30
 121215698.995 7  94453878.99944  23066576.266                    23066586.707
 127457232.481 6  99317548.30643  24254315.672                    24254325.316
 125986926.494 6  98171816.837 6  23974539.430                    23974551.113
 114908370.105 7  89539061.704 7  21866339.516                    21866348.930
 108124364.915 8  84252831.509 8  20575356.781                    20575364.766
 113952548.178 8  88794242.063 7  21684448.820                    21684460.258
 116669025.791 7  90910979.166 7  22201380.961                    22201390.805
 114719551.808 7  89391971.26445  21830381.172                    21830387.898
 115464577.595 8  89972467.31345  21972182.070                    21972191.672
 11  8 29  1 55  0.0000000  0  9G26G10G15G12G05G25G29G02G30
 121125223.016 7  94383378.35044  23049359.047                    23049369.484
 127565341.857 6  99401789.34343  24274888.641                    24274897.891
 125890644.714 6  98096792.212 6  23956218.242                    23956229.012
 114981429.701 7  89595991.252 7  21880242.367                    21880251.766
 108165902.327 8  84285198.322 8  20583261.102                    20583269.160
 113970154.161 8  88807960.998 7  21687799.305                    21687810.707
 116589472.553 7  90848989.652 7  22186243.539                    22186252.395
 114758568.904 7  89422374.18345  21837806.242                    21837812.676
 115484195.415 8  89987753.92345  21975915.023                    21975924.387
 11  8 29  1 55 30.0000000  0  9G26G10G15G12G05G25G29G02G30
 121034931.135 7  94313021.12044  23032177.156                    23032187.414
 127673520.159 6  99486084.08743  24295473.656                    24295483.605
 125794324.601 7  98021737.734 6  23937889.484                    23937899.656
 115054835.886 7  89653190.863 7  21894211.305                    21894220.164
 108207892.826 8  84317918.204 7  20591251.719                    20591259.723
 113988306.601 8  88822105.729 7  21691253.484                    21691264.832
 116510051.909 7  90787103.479 7  22171129.898                    22171139.352
 114797669.256 7  89452841.99045  21845246.383                    21845253.145
 115504366.234 7  90003471.43345  21979753.961                    21979763.477
 11  8 29  1 56  0.0000000  0  9G26G10G15G12G05G25G29G02G30
 120944827.346 7  94242810.47144  23015031.023                    23015041.629
 127781764.662 6  99570430.41343  24316071.586                    24316082.238
 125697968.730 7  97946655.366 6  23919552.711                    23919563.668
 115128586.199 8  89710658.611 7  21908245.422                    21908254.477
 108250334.195 8  84350989.401 8  20599327.805                    20599335.848
 114007004.219 8  88836675.280 7  21694811.672                    21694822.844
 116430766.087 7  90725322.357 7  22156042.102                    22156051.211
 114836852.695 7  89483374.53045  21852702.703                    21852709.266
 115525088.467 7  90019618.61445  21983697.344                    21983706.605
 11  8 29  1 56 30.0000000  0  9G26G10G15G12G05G25G29G02G30
 120854914.831 7  94172748.85944  22997920.844                    22997931.375
 127890073.302 6  99654826.68744  24336682.609                    24336692.836
 125601580.169 6  97871547.575 6  23901210.500                    23901221.148
 115202677.855 8  89768392.361 7  21922344.539                    21922354.016
 108293224.326 8  84384410.274 8  20607489.742                    20607497.277
 114026245.737 8  88851668.657 7  21698473.195                    21698484.852
 116351616.748 7  90663647.584 7  22140980.828                    22140990.184
 114876119.281 8  89513971.86045  21860175.023                    21860181.008
 115546360.537 8  90036194.23045  21987745.117                    21987754.496
 11  8 29  1 57  0.0000000  0  9G26G10G15G12G05G25G29G02G30
 120765197.797 7  94102839.55844  22980848.813                    22980858.820
 127998443.825 6  99739271.19043  24357304.984                    24357315.055
 125505161.556 7  97796416.314 6  23882862.461                    23882873.441
 115277108.083 8  89826389.928 7  21936508.336                    21936517.645
 108336561.489 8  84418179.516 7  20615736.055                    20615744.367
 114046029.953 8  88867084.907 7  21702238.047                    21702249.598
 116272606.394 7  90602081.125 7  22125945.508                    22125954.664
 114915469.388 8  89544634.27545  21867662.734                    21867669.664
 115568181.082 8  90053197.23045  21991897.375                    21991906.797
 11  8 29  1 57 30.0000000  0  9G26G10G15G12G05G25G29G02G30
 120675679.326 7  94033084.97944  22963813.250                    22963823.570
 128106873.565 6  99823761.85743  24377938.406                    24377948.625
 125408715.614 7  97721263.818 6  23864509.961                    23864520.168
 115351873.983 8  89884649.048 7  21950735.742                    21950745.254
 108380343.032 8  84452294.997 8  20624067.586                    20624075.602
 114066355.475 8  88882922.962 7  21706105.836                    21706117.156
 116193737.009 7  90540624.501 7  22110937.055                    22110946.152
 114954902.879 7  89575361.65445  21875167.547                    21875173.793
 115590548.316 7  90070626.22845  21996154.141                    21996163.266
 11  8 29  1 58  0.0000000  0  9G26G10G15G12G05G25G29G02G30
 120586363.384 7  93963488.24044  22946817.281                    22946827.625
 128215360.090 6  99908296.74543  24398582.977                    24398593.152
 125312245.286 7  97646092.249 6  23846152.094                    23846162.043
 115426972.283 8  89943167.177 7  21965026.953                    21965035.539
 108424567.075 8  84486755.281 8  20632483.219                    20632491.004
 114087220.793 8  88899181.630 7  21710076.195                    21710087.863
 116115010.886 7  90479279.529 7  22095956.117                    22095965.348
 114994419.961 8  89606154.17345  21882686.836                    21882693.527
 115613460.520 8  90088479.85645  22000514.109                    22000523.340
 11  8 29  1 58 30.0000000  0  9G26G10G15G12G05G25G29G02G30
 120497253.613 7  93894052.14744  22929859.555                    22929870.496
 128323901.312 6  99992874.30643  24419237.242                    24419247.656
 125215753.288 6  97570903.825 6  23827789.711                    23827800.355
 115502401.004 7  90001942.791 7  21979379.977                    21979389.246
 108469231.685 8  84521558.872 7  20640982.672                    20640990.852
 114108624.793 8  88915860.039 7  21714149.398                    21714161.063
 116036430.343 7  90418047.966 7  22081002.648                    22081011.141
 115034020.841 8  89637011.99745  21890223.063                    21890229.285
 115636916.227 7  90106757.00445  22004977.797                    22004987.203
 11  8 29  1 59  0.0000000  0  9G26G10G15G12G05G25G29G02G30
 120408353.741 7  93824779.58944  22912943.242                    22912953.363
 128432494.726 5 100077492.51143  24439901.719                    24439912.363
 125119242.545 6  97495700.808 6  23809424.125                    23809434.949
 115578155.764 8  90060972.478 7  21993795.711                    21993805.160
 108514334.321 8  84556703.789 8  20649565.141                    20649573.164
 114130565.823 8  88932956.946 7  21718324.445                    21718336.266
 115957997.144 7  90356931.236 7  22066077.047                    22066086.434
 115073705.575 7  89667935.14545  21897774.461                    21897781.359
 115660913.613 8  90125456.23445  22009544.172                    22009553.555
 11  8 29  1 59 30.0000000  0  9G26G10G15G12G05G25G29G02G30
 120319667.309 7  93755673.35844  22896066.328                    22896076.301
 128541137.875 5 100162149.46142  24460574.289                    24460586.250
 125022715.854 6  97420485.346 6  23791055.063                    23791066.313
 115654234.583 7  90120254.671 7  22008273.031                    22008282.441
 108559872.761 8  84592188.299 7  20658231.617                    20658238.754
 114153042.557 8  88950471.254 7  21722601.977                    21722613.328
 115879713.580 7  90295931.109 7  22051180.172                    22051189.543
 115113474.015 7  89698923.52045  21905342.109                    21905348.867
 115685450.993 7  90144576.24645  22014213.414                    22014222.781
 11  8 29  2  0  0.0000000  0  9G26G10G15G12G05G25G29G02G30
 120231198.678 7  93686736.83744  22879231.078                    22879241.199
 128649829.305 5 100246844.00442  24481259.047                    24481270.617
 124926176.474 6  97345260.007 6  23772684.766                    23772694.949
 115730634.907 8  90179787.371 7  22022811.711                    22022820.953
 108605845.737 8  84628011.398 8  20666979.758                    20666987.207
 114176054.031 8  88968402.274 7  21726980.734                    21726992.508
 115801582.759 8  90235049.999 7  22036312.602                    22036321.715
 115153327.537 7  89729978.20245  21912925.945                    21912932.984
 115710527.292 7  90164116.19245  22018985.039                    22018994.828
 11  8 29  2  0 30.0000000  0  9G26G10G15G12G05G25G29G02G30
 120142950.881 7  93617972.38144  22862438.195                    22862448.398
 128758565.837 5                  24501951.055
 124829627.011 6  97270026.798 6  23754311.977                    23754322.625
 115807353.418 7  90239568.014 7  22037411.055                    22037419.883
 108652250.283 8  84664170.774 8  20675809.602                    20675817.977
 114199598.371 8  88986748.491 7  21731461.141                    21731472.563
 115723605.833 7  90174288.818 7  22021473.773                    22021482.793
 115193265.105 7  89761098.37245  21920525.930                    21920532.457
 115736140.087 7  90184074.17245  22023859.117                    22023868.715
 11  8 29  2  1  0.0000000  0  9G26G10G15G12G05G25G29G02G30
 120054926.777 7  93549382.25744  22845687.656                    22845697.742
 128867344.218 5                  24522650.398
 124733069.227 6  97194787.135 6  23735937.734                    23735948.289
 115884386.379 8  90299593.682 7  22052069.602                    22052078.750
 108699083.204 8  84700663.954 7  20684722.047                    20684730.020
 114223673.048 8  89005507.997 7  21736042.359                    21736053.695
 115645784.371 8  90113648.736 7  22006664.672                    22006673.746
 115233286.532 7  89792283.88645  21928141.703                    21928148.539
 115762286.840 7  90204448.23345  22028834.695                    22028844.270
 11  8 29  2  1 30.0000000  0  9G26G10G15G12G05G25G29G02G30
 119967130.592 7  93480969.70444  22828980.758                    22828990.391
 128976162.988 6 100500986.93652  24543357.977                    24543368.723
 124636506.735 6  97119543.774 6  23717562.086                    23717572.898
 115961731.511 8  90359862.614 7  22066787.836                    22066797.273
 108746343.231 8  84737489.965 7  20693715.555                    20693723.406
 114248277.210 7  89024680.053 7  21740724.539                    21740735.574
 115568121.183 8  90053132.027 7  21991886.148                    21991895.066
 115273392.066 7  89823534.94945  21935773.688                    21935780.488
 115788966.325 7  90225237.40745  22033911.813                    22033921.520
 11  8 29  2  2  0.0000000  0  9G26G10G15G12G05G25G29G02G30
 119879566.368 7  93412737.92044  22812317.219                    22812327.879
 129085019.718 6 100585810.42943  24564074.094                    24564083.992
 124539942.732 6  97044299.260 6  23699186.359                    23699197.188
 116039385.649 8  90420372.311 7  22081565.234                    22081574.109
 108794028.296 8  84774647.150 8  20702789.688                    20702797.621
 114273409.534 8  89044263.673 7  21745506.852                    21745518.270
 115490618.721 7  89992740.548 7  21977137.852                    21977146.891
 115313582.278 7  89854851.98445  21943421.164                    21943427.961
 115816176.922 7  90246440.43645  22039089.758                    22039099.207
 11  8 29  2  2 30.0000000  0  9G26G10G15G12G05G25G29G02G30
 119792237.987 7  93344689.89844  22795699.422                    22795709.109
 129193912.727 7 100670662.13443  24584795.375                    24584805.625
 124443380.274 6  96969055.979 6  23680810.906                    23680821.789
 116117346.492 8  90481120.997 7  22096400.680                    22096409.469
 108842136.476 8  84812134.049 8  20711944.320                    20711952.512
 114299068.853 8  89064257.957 7  21750390.086                    21750401.242
 115413279.366 8  89932476.167 7  21962420.828                    21962429.648
 115353857.663 7  89886235.40745  21951085.469                    21951091.930
 115843917.180 7  90268056.19545  22044368.594                    22044378.426
 11  8 29  2  3  0.0000000  0  8G26G15G12G05G25G29G02G30
 119705150.163 7  93276829.31044  22779127.227                    22779136.934
 124346823.105 6  96893816.743 6  23662437.008                    23662447.023
 116195611.910 8  90542107.042 7  22111294.102                    22111302.352
 108890666.282 8  84849949.471 8  20721178.953                    20721187.617
 114325254.371 8  89084662.250 7  21755372.594                    21755383.855
 115336106.769 7  89872341.721 7  21947734.914                    21947744.344
 115394219.363 7  89917686.07045  21958766.469                    21958773.063
 115872186.200 7  90290083.97845  22049748.102                    22049757.254
 11  8 29  2  3 30.0000000  0  8G26G15G12G05G25G29G02G30
 119618304.654 7  93209157.56545  22762601.133                    22762611.359
 124250272.935 6  96818583.021 6  23644063.602                    23644074.074
 116274177.181 8  90603326.719 7  22126244.484                    22126253.230
 108939613.763 8  84888090.373 7  20730493.250                    20730501.195
 114351962.757 8  89105473.991 7  21760455.336                    21760466.453
 115259100.812 8  89812337.118 7  21933081.188                    21933090.297
 115434665.877 8  89949202.81345  21966462.719                    21966469.516
 115900980.170 7  90312520.82745  22055227.648                    22055237.117
 11  8 29  2  4  0.0000000  0  8G26G15G12G05G25G29G02G30
 119531705.639 7  93141677.86145  22746121.844                    22746131.723
 124153732.181 7  96743356.583 6  23625692.898                    23625702.141
 116353039.630 7  90664777.939 7  22141251.930                    22141261.020
 108988977.054 8  84926555.276 7  20739887.367                    20739895.176
 114379192.660 8  89126692.091 7  21765636.906                    21765647.949
 115182264.216 8  89752464.493 7  21918459.758                    21918468.461
 115475197.562 8  89980785.93645  21974175.852                    21974182.652
 115930297.574 7  90335365.56045  22060806.500                    22060816.074
 11  8 29  2  4 30.0000000  0  9G26G21G15G12G05G25G29G02G30
 119445356.872 7  93074393.18344  22729690.305                    22729699.852
 132383288.45916 103155742.58653  25191677.688                    25191686.656
 124057204.013 7  96668139.932 6  23607324.008                    23607333.301
 116432196.521 7  90726458.627 7  22156314.352                    22156323.875
 109038754.025 8  84965342.536 7  20749358.875                    20749367.207
 114406942.577 8  89148315.425 7  21770917.219                    21770928.813
 115105599.331 7  89692725.664 7  21903871.172                    21903879.793
 115515814.699 7  90012435.65045  21981905.250                    21981911.703
 115960136.707 7  90358616.81945  22066484.602                    22066494.195
 11  8 29  2  5  0.0000000  0  9G26G21G15G12G05G25G29G02G30
 119359261.439 7  93007305.89545  22713307.000                    22713316.734
 132327567.596 6 103112323.83143  25181073.148                    25181084.109
 123960690.968 7  96592935.073 6  23588957.945                    23588967.859
 116511644.244 7  90788365.912 7  22171432.867                    22171441.910
 109088941.574 8  85004449.705 7  20758909.578                    20758917.551
 114435210.127 8  89170342.086 7  21776296.461                    21776307.992
 115029107.792 8  89633121.896 7  21889315.047                    21889324.012
 115556516.860 7  90044151.60645  21989650.133                    21989656.816
 115990494.916 7  90382272.55845  22072261.117                    22072270.859
 11  8 29  2  5 30.0000000  0  9G26G21G15G12G05G25G29G02G30
 119273423.036 7  92940418.90144  22696972.172                    22696982.496
 132271846.664 6 103068904.99243  25170470.109                    25170480.969
 123864196.168 7  96517744.432 6  23570595.336                    23570605.793
 116591380.024 7  90850497.675 7  22186606.297                    22186615.102
 109139537.951 8  85043875.442 8  20768537.531                    20768545.578
 114463993.876 8  89192770.990 7  21781773.664                    21781784.813
 114952792.010 8  89573655.105 7  21874792.477                    21874801.781
 115597304.651 7  90075934.31245  21997411.875                    21997418.816
 116021370.352 7  90406331.34445  22078136.914                    22078146.555
 11  8 29  2  6  0.0000000  0  9G26G21G15G12G05G25G29G02G30
 119187845.532 7  92873735.19144  22680687.219                    22680697.301
 132216125.199 6 103025485.76143  25159866.508                    25159877.262
 123767722.712 7  96442570.395 6  23552237.242                    23552247.266
 116671400.720 7  90912851.438 7  22201833.516                    22201842.539
 109190540.733 8  85083617.872 7  20778243.359                    20778251.379
 114493292.099 8  89215600.764 7  21787349.289                    21787360.691
 114876654.470 7  89514327.194 7  21860304.375                    21860312.477
 115638178.233 7  90107783.85045  22005190.125                    22005196.609
 116052761.099 7  90430791.65045  22084110.477                    22084119.887
 11  8 29  2  6 30.0000000  0  9G26G21G15G12G05G25G29G02G30
 119102532.898 7  92807257.90945  22664452.266                    22664462.621
 132160402.724 6 102982065.68043  25149262.852                    25149273.578
 123671273.591 7  96367415.385 6  23533883.492                    23533892.766
 116751703.907 7  90975425.315 7  22217115.719                    22217123.914
 109241947.817 8  85123675.347 7  20788025.734                    20788033.684
 114523103.406 8  89238830.363 7  21793022.000                    21793033.586
 114800697.630 8  89455140.071 7  21845849.875                    21845859.066
 115679138.156 7  90139700.66145  22012984.719                    22012991.738
 116084665.521 7  90455652.24945  22090181.883                    22090191.070
 11  8 29  2  7  0.0000000  0  9G26G21G15G12G05G25G29G02G30
 119017488.921 7  92740989.94944  22648269.297                    22648279.328
 132104678.712 6 102938644.40443  25138658.891                    25138669.598
 123574851.540 7  96292281.428 6  23515534.953                    23515544.613
 116832286.342 7  91038216.794 7  22232449.594                    22232458.180
 109293757.032 8  85164046.149 7  20797884.773                    20797892.809
 114553426.035 8  89262458.376 7  21798792.492                    21798803.563
 114724923.747 8  89396095.534 7  21831430.727                    21831439.535
 115720184.545 7  90171684.86245  22020795.500                    22020801.953
 116117081.586 7  90480911.51145  22096350.289                    22096359.855
 11  8 29  2  7 30.0000000  0  9G26G21G15G12G05G25G29G02G30
 118932716.950 7  92674933.91545  22632137.906                    22632147.520
 132048952.373 6 102895221.33743  25128054.969                    25128065.613
 123478459.842 6  96217171.129 6  23497191.914                    23497201.813
 116913145.210 7  91101223.671 7  22247836.180                    22247845.359
 109345965.772 8  85204728.277 8  20807819.617                    20807828.215
 114584257.917 8  89286483.207 7  21804659.180                    21804670.852
 114649334.987 8  89337195.233 7  21817046.188                    21817055.023
 115761317.529 7  90203736.53545  22028622.625                    22028629.633
 116150007.012 7  90506567.69645  22102615.406                    22102625.426
 11  8 29  2  8  0.0000000  0  9G26G21G15G12G05G25G29G02G30
 118848220.915 7  92609092.91544  22616058.289                    22616068.633
 131993223.496 6 102851796.27743  25117450.023                    25117460.457
 123382101.463 7  96142086.805 6  23478856.078                    23478865.508
 116994277.237 7  91164443.403 7  22263275.023                    22263283.906
 109398572.298 8  85245720.387 7  20817830.109                    20817838.465
 114615597.591 8  89310903.720 7  21810622.977                    21810634.598
 114573933.849 8  89278441.135 7  21802698.055                    21802706.633
 115802537.446 8  90235855.94945  22036466.727                    22036473.039
 116183439.881 7  90532619.29145  22108977.266                    22108987.512
 11  8 29  2  8 30.0000000  0  9G26G21G15G12G05G25G29G02G30
 118764004.304 7  92543469.64245  22600032.250                    22600042.305
 131937491.124 6 102808368.53443  25106844.969                    25106854.938
 123285778.933 6  96067030.384 6  23460525.672                    23460535.719
 117075679.419 7  91227873.636 7  22278765.703                    22278775.070
 109451573.559 8  85287020.076 8  20827916.047                    20827924.527
 114647442.771 8  89335718.135 7  21816683.164                    21816694.805
 114498722.164 8  89219834.654 7  21788386.055                    21788394.379
 115843844.321 8  90268043.11845  22044327.344                    22044333.773
 116217377.957 7  90559064.57445  22115435.539                    22115445.535
 11  8 29  2  9  0.0000000  0  9G26G21G15G12G05G25G29G02G30
 118680070.332 7  92478066.60045  22584060.398                    22584070.777
 131881754.313 6 102764937.28043  25096238.539                    25096248.723
 123189495.304 7  95992004.301 6  23442203.250                    23442213.770
 117157348.396 7  91291511.778 7  22294306.289                    22294315.590
 109504966.948 8  85328625.300 7  20838076.516                    20838084.699
 114679791.531 7  89360924.935 7  21822839.219                    21822850.629
 114423702.085 8  89161377.493 7  21774110.016                    21774119.324
 115885238.335 7  90300298.20045  22052203.984                    22052210.324
 116251818.763 7  90585901.56345  22121989.969                    22121998.953
 11  8 29  2  9 30.0000000  0  9G26G21G15G12G05G25G29G02G30
 118596423.200 7  92412887.09845  22568142.859                    22568153.031
 131826012.890 6 102721502.47743  25085631.070                    25085640.926
 123093253.700 7  95917010.936 6  23423889.680                    23423899.363
 117239281.322 7  91355355.586 7  22309898.305                    22309907.301
 109558750.696 8  85370534.711 7  20848311.664                    20848319.273
 114712642.170 8  89386522.820 7  21829090.523                    21829102.008
 114348876.191 8  89103071.621 7  21759870.773                    21759879.566
 115926719.800 8  90332621.40745  22060097.961                    22060104.629
 116286760.433 7  90613128.85645  22128638.680                    22128648.203
 11  8 29  2 10  0.0000000  0  9G26G21G15G12G05G25G29G02G30
 118513066.963 7  92347934.24545  22552280.781                    22552290.273
 131770266.702 6 102678063.93943  25075022.250                    25075033.078
 122997057.015 7  95842052.575 6  23405583.742                    23405593.484
 117321476.447 7  91419403.710 7  22325539.219                    22325548.484
 109612922.885 8  85412746.804 7  20858620.070                    20858627.754
 114745993.293 8  89412510.692 7  21835436.484                    21835448.223
 114274247.214 8  89044919.201 7  21745669.555                    21745678.398
 115968289.464 7  90365013.36045  22068008.414                    22068014.816
 116322201.305 7  90640745.12045  22135383.563                    22135392.703
 11  8 29  2 10 30.0000000  0  9G26G21G15G12G05G25G29G02G30
 118430004.928 7  92283210.62245  22536474.953                    22536484.266
 131714514.730 6 102634620.89043  25064412.852                    25064423.613
 122900908.289 7  95767131.610 6  23387287.102                    23387297.793
 117403929.272 7  91483652.650 7  22341229.648                    22341238.566
 109667480.718 8  85455259.395 8  20869002.023                    20869010.047
 114779842.587 8  89438886.763 7  21841877.766                    21841889.527
 114199817.208 8  88986921.800 7  21731506.203                    21731514.906
 116009947.053 8  90397473.81845  22075935.383                    22075942.027
 116358138.823 7  90668748.37745  22142221.992                    22142231.203
 11  8 29  2 11  0.0000000  0  9G26G21G15G12G05G25G29G02G30
 118347240.400 7  92218718.84544  22520725.180                    22520734.953
 131658756.016 6 102591172.62343  25053802.016                    25053812.488
 122804810.605 7  95692250.374 6  23369000.641                    23369010.043
 117486636.765 7  91548100.023 7  22356968.023                    22356976.883
 109722421.702 8  85498070.552 7  20879456.750                    20879464.945
 114814187.817 8  89465649.257 7  21848413.820                    21848425.078
 114125588.508 8  88929081.281 7  21717380.508                    21717389.449
 116051693.041 7  90430003.14845  22083879.688                    22083886.496
 116394570.525 7  90697136.71945  22149154.602                    22149164.652
 11  8 29  2 11 30.0000000  0  9G26G21G15G12G05G25G29G02G30
 118264777.581 7  92154462.16045  22505032.555                    22505042.438
 131602990.420 6 102547718.95343  25043191.305                    25043201.039
 122708766.817 7  95617411.179 7  23350723.906                    23350734.152
 117569596.554 7  91612743.982 7  22372754.945                    22372763.520
 109777743.562 8  85541178.492 7  20889984.289                    20889992.195
 114849027.451 8  89492797.003 7  21855043.336                    21855055.207
 114051563.049 8  88871399.119 7  21703294.359                    21703302.707
 116093527.752 8  90462601.61345  22091840.273                    22091846.895
 116431494.558 7  90725908.68345  22156181.016                    22156190.793
 11  8 29  2 12  0.0000000  0  9G26G21G15G12G05G25G29G02G30
 118182619.849 7  92090443.19945  22489399.000                    22489408.391
 131547217.270 6 102504259.45542  25032576.664                    25032587.473
 122612779.987 7  95542616.332 6  23332457.969                    23332467.133
 117652805.280 7  91677581.945 7  22388588.992                    22388597.832
 109833443.953 8  85584581.383 7  20900583.711                    20900591.645
 114884359.195 8  89520328.212 7  21861766.773                    21861778.184
 113977743.346 8  88813877.290 7  21689246.766                    21689255.809
 116135451.275 8  90495269.29145  22099817.750                    22099824.813
 116468908.388 7  90755062.29545  22163300.430                    22163310.461
 11  8 29  2 12 30.0000000  0  9G26G21G15G12G05G25G29G02G30
 118100771.215 7  92026665.10445  22473823.672                    22473832.516
 131491436.415 6 102460793.91642  25021962.461                    25021972.742
 122516853.551 7  95467868.539 6  23314203.711                    23314214.027
 117736260.308 7  91742611.819 7  22404470.000                    22404478.598
 109889520.948 8  85628277.746 7  20911254.938                    20911262.117
 114920181.571 8  89548241.720 7  21868583.359                    21868594.672
 113904131.890 8  88756517.746 7  21675238.750                    21675247.660
 116177464.096 7  90528006.55445  22107813.156                    22107820.039
 116506810.239 7  90784596.19345  22170512.906                    22170522.703
 11  8 29  2 13  0.0000000  0  9G26G21G15G12G05G25G29G02G30
 118019235.388 7  91963130.74144  22458307.344                    22458317.074
 131435646.957 6 102417321.61542  25011345.461                    25011356.277
 122420990.179 7  95393169.879 6  23295961.289                    23295970.895
 117819958.689 7  91807831.310 7  22420397.313                    22420406.316
 109945971.978 8  85672265.561 7  20921996.992                    20922004.773
 114956492.446 8  89576535.902 7  21875493.273                    21875505.262
 113830731.234 8  88699322.443 7  21661271.313                    21661279.813
 116219566.493 7  90560813.62445  22115824.734                    22115831.496
 116545197.812 7  90814508.58945  22177817.961                    22177827.371
 11  8 29  2 13 30.0000000  0  9G26G21G15G12G05G25G29G02G30
 117938015.239 7  91899842.36645  22442851.953                    22442861.426
 131379848.022 6 102373842.01542  25000727.859                    25000737.723
 122325192.594 7  95318522.486 6  23277731.453                    23277741.809
 117903896.210 7  91873237.145 7  22436369.727                    22436379.473
 110002793.964 8  85716542.431 7  20932810.289                    20932817.555
 114993289.191 8  89605208.656 7  21882495.617                    21882506.824
 113757542.956 8  88642292.640 7  21647344.297                    21647352.438
 116261758.459 7  90593690.47045  22123853.531                    22123859.988
 116584068.259 7  90844797.24045  22185214.625                    22185224.281
 11  8 29  2 14  0.0000000  0  9G26G21G15G12G05G25G29G02G30
 117857114.629 7  91836802.98245  22427457.234                    22427466.113
 131324039.058 6 102330354.60442  24990107.492                    24990117.813
 122229463.585 7  95243928.530 6  23259515.031                    23259523.855
 117988070.376 7  91938827.395 7  22452387.750                    22452397.105
 110059984.415 8  85761106.410 7  20943693.047                    20943700.789
 115030569.771 8  89634258.440 7  21889590.039                    21889601.352
 113684569.603 8  88585430.305 7  21633457.586                    21633466.262
 116304040.163 7  90626637.23945  22131899.688                    22131906.238
 116623419.118 7  90875460.22245  22192703.023                    22192712.523
 11  8 29  2 14 30.0000000  0  9G26G21G15G12G05G25G29G02G30
 117776537.407 7  91774015.57845  22412124.023                    22412132.813
 131268219.616 6 102286859.06142  24979485.391                    24979495.992
 122133806.570 7  95169390.644 6  23241311.852                    23241321.742
 118072478.078 7  92004599.605 7  22468450.266                    22468459.094
 110117541.545 8  85805956.127 7  20954645.547                    20954653.484
 115068332.344 8  89663683.808 7  21896776.078                    21896787.535
 113611813.611 8  88528737.357 7  21619612.555                    21619621.395
 116346412.280 7  90659654.46645  22139962.547                    22139969.484
 116663248.415 7  90906496.02345  22200282.070                    22200291.719
 11  8 29  2 15  0.0000000  0  9G26G21G15G12G05G25G29G02G30
 117696287.194 7  91711482.99845  22396852.516                    22396862.039
 131212389.255 6 102243354.84342  24968860.922                    24968871.789
 122038224.456 7  95094911.171 6  23223123.281                    23223132.746
 118157116.601 7  92070551.684 7  22484556.570                    22484565.078
 110175462.807 8  85851089.564 7  20965667.602                    20965675.805
 115106574.962 7  89693483.230 7  21904053.180                    21904064.844
 113539277.501 8  88472215.727 7  21605809.438                    21605818.102
 116388875.161 8  90692742.40745  22148043.156                    22148049.926
 116703553.960 7  90937902.91345  22207952.375                    22207961.648
 11  8 29  2 15 30.0000000  0  9G26G21G15G12G05G25G29G02G30
 117616367.893 7  91649208.25745  22381644.570                    22381653.074
 131156547.379 6                  24958233.977
 121942720.462 7  95020492.539 6  23204949.164                    23204959.117
 118241982.839 7  92136681.200 7  22500705.711                    22500715.125
 110233746.011 8  85896505.040 7  20976758.906                    20976766.301
 115145295.496 8  89723655.078 7  21911421.578                    21911432.734
 113466963.612 8  88415867.290 7  21592048.367                    21592057.172
 116431428.997 7  90725901.23845  22156140.766                    22156147.246
 116744333.325 7  90969679.03745  22215711.758                    22215721.855
 11  8 29  2 16  0.0000000  0  9G26G21G15G12G05G25G29G02G30
 117536783.047 7  91587194.15245  22366499.266                    22366508.762
 131100693.520 6                  24947605.516
 121847297.847 7  94946137.327 6  23186790.969                    23186800.258
 118327073.773 7  92202985.808 7  22516897.820                    22516907.664
 110292388.711 8  85942200.659 7  20987917.875                    20987925.883
 115184491.936 8  89754197.722 7  21918880.633                    21918891.695
 113394874.523 8  88359693.997 7  21578330.063                    21578338.813
 116474074.141 7  90759131.21345  22164255.898                    22164262.625
 116785584.230 7  91001822.57545  22223561.977                    22223571.594
 11  8 29  2 16 30.0000000  0  9G26G21G15G12G05G25G29G02G30
 117457535.996 7  91525443.23845  22351419.336                    22351428.535
 131044827.097 5 102112776.27352  24936974.547                    24936984.086
 121751959.152 7  94871847.500 6  23168648.648                    23168658.156
 118412385.944 7  92269462.796 7  22533132.578                    22533141.949
 110351388.134 8  85988174.223 7  20999145.172                    20999153.152
 115224161.647 8  89785109.179 7  21926429.555                    21926440.719
 113323012.026 8  88303697.276 7  21564655.383                    21564663.828
 116516810.417 7  90792432.20745  22172388.055                    22172394.652
 116827303.833 7  91034331.33945  22231500.945                    22231510.496
 11  8 29  2 17  0.0000000  0  9G26G21G15G12G05G25G29G02G30
 117378630.389 7  91463958.41545  22336404.047                    22336413.898
 130988947.290 5 102069233.72042  24926341.844                    24926351.602
 121656707.546 7  94797625.535 6  23150522.680                    23150532.320
 118497916.480 7  92336109.939 7  22549407.805                    22549417.531
 110410742.073 8  86034424.039 7  21010439.711                    21010447.637
 115264302.760 7  89816387.941 7  21934067.914                    21934079.113
 113251378.747 8  88247879.161 7  21551023.813                    21551032.375
 116559638.816 7  90825804.96945  22180537.883                    22180544.816
 116869490.032 7  91067203.67945  22239528.547                    22239538.281
 11  8 29  2 17 30.0000000  0  9G26G21G15G12G05G25G29G02G30
 117300069.965 7  91402742.55245  22321454.438                    22321464.082
 130933053.367 5 102025680.19342  24915704.422                    24915714.832
 121561546.087 7  94723473.833 6  23132414.109                    23132423.719
 118583662.285 7  92402924.836 7  22565724.797                    22565734.430
 110470447.947 8  86080948.097 7  21021801.766                    21021809.242
 115304912.818 8  89848032.126 7  21941796.078                    21941807.094
 113179976.877 8  88192241.368 7  21537436.664                    21537445.215
 116602559.302 7  90859249.49645  22188705.313                    22188712.023
 116912139.999 7  91100437.38145  22247644.742                    22247654.633
 11  8 29  2 18  0.0000000  0  9G26G21G15G12G05G25G29G02G30
 117221858.481 7  91341798.59645  22306571.172                    22306581.168
 130877145.158 6 101982115.50843  24905066.219                    24905076.242
 121466478.015 7  94649394.902 6  23114323.102                    23114332.824
 118669620.308 7  92469905.076 7  22582082.594                    22582091.934
 110530503.673 8  86127744.756 7  21033229.844                    21033237.719
 115345989.952 8  89880040.260 7  21949612.758                    21949624.227
 113108808.831 8  88136785.785 7  21523893.727                    21523902.449
 116645572.247 7  90892766.05645  22196891.000                    22196897.520
 116955251.725 7  91134030.91445  22255848.617                    22255858.344
 11  8 29  2 18 30.0000000  0  9G26G21G15G12G05G25G29G02G30
 117143998.980 7  91281128.91145  22291755.016                    22291764.680
 130821221.781 6 101938538.96443  24894424.188                    24894433.949
 121371505.969 7  94575390.766 6  23096250.375                    23096259.668
 118755787.238 7  92537048.121 7  22598479.609                    22598489.023
 110590906.073 8  86174811.565 7  21044724.023                    21044732.102
 115387531.491 8  89912410.261 7  21957517.727                    21957529.258
 113037876.722 8  88081514.042 7  21510395.711                    21510404.664
 116688677.874 7  90926354.84845  22205093.305                    22205100.234
 116998822.338 7  91167982.02145  22264139.586                    22264149.332
 11  8 29  2 19  0.0000000  0  9G26G21G15G12G05G25G29G02G30
 117066495.569 7  91220736.69445  22277006.406                    22277016.098
 130765282.894 6 101894950.35743  24883778.625                    24883789.648
 121276633.386 7  94501464.188 7  23078197.055                    23078207.445
 118842159.963 7  92604351.520 7  22614915.992                    22614925.652
 110651653.287 8  86222147.048 7  21056284.086                    21056291.750
 115429535.520 8  89945140.665 7  21965510.695                    21965522.559
 112967183.309 8  88026428.306 7  21496943.430                    21496951.520
 116731876.694 7  90960016.25045  22213313.609                    22213320.816
 117042849.621 7  91202288.96845  22272517.555                    22272528.117
 11  8 29  2 19 30.0000000  0  9G26G21G15G12G05G25G29G02G30
 116989351.750 7  91160624.68845  22262326.711                    22262336.176
 130709328.073 6 101851349.32043  24873131.078                    24873141.230
 121181863.247 7  94427617.351 7  23060162.313                    23060172.520
 118928736.205 7  92671813.501 7  22631390.977                    22631400.387
 110712742.676 8  86269749.168 7  21067908.602                    21067917.117
 115471999.739 8  89978229.650 7  21973591.648                    21973603.289
 112896731.056 8  87971530.474 7  21483536.469                    21483545.465
 116775168.920 7  90993750.44945  22221552.406                    22221559.387
 117087331.056 7  91236949.79945  22280982.438                    22280992.086
 11  8 29  2 20  0.0000000  0  9G26G21G15G12G05G25G29G02G30
 116912570.942 7  91100795.53345  22247715.523                    22247724.766
 130653356.682 6 101807735.35743  24862480.063                    24862490.316
 121087198.449 7  94353852.684 6  23042148.633                    23042158.109
 119015511.962 7  92739430.961 7  22647903.477                    22647913.094
 110774171.750 8  86317615.967 7  21079598.070                    21079606.469
 115514921.744 7  90011675.368 7  21981759.109                    21981770.313
 112826521.917 8  87916822.089 7  21470176.063                    21470184.672
 116818554.775 7  91027557.59845  22229808.203                    22229815.020
 117132263.847 7  91271962.33345  22289532.891                    22289542.762
 11  8 29  2 20 30.0000000  0  9G26G21G15G12G05G25G29G02G30
 116836157.061 7  91041252.29745  22233174.914                    22233184.723
 130597368.078 6 101764108.02343  24851825.313                    24851835.289
 120992642.150 7  94280172.515 6  23024155.266                    23024164.992
 119102484.710 7  92807201.912 7  22664454.078                    22664463.402
 110835938.430 8  86365745.842 7  21091352.102                    21091359.762
 115558299.398 8  90045476.120 7  21990013.938                    21990024.844
 112756558.523 8  87862305.206 7  21456862.516                    21456871.043
 116862035.078 7  91061438.33745  22238082.516                    22238089.086
 117177645.793 7  91307324.87545  22298168.906                    22298178.641
 11  8 29  2 21  0.0000000  0  9G26G21G15G12G05G25G29G02G30
 116760113.879 7  90981997.92945  22218704.141                    22218714.020
 130541361.983 6 101720467.06543  24841167.914                    24841177.914
 120898197.708 7  94206579.485 6  23006182.578                    23006192.434
 119189651.441 7  92875124.018 7  22681041.617                    22681051.191
 110898040.504 8  86414137.065 7  21103169.789                    21103177.820
 115602130.707 8  90079630.374 7  21998354.266                    21998365.863
 112686843.824 8  87807982.097 7  21443596.539                    21443605.277
 116905610.239 7  91095393.00545  22246374.383                    22246381.289
 117223474.592 7  91343035.59445  22306889.234                    22306899.355
 11  8 29  2 21 30.0000000  0  9G26G21G15G12G05G25G29G02G30
 116684444.158 7  90923034.56245  22204304.797                    22204313.523
 130485337.362 7 101676811.63743  24830506.813                    24830517.086
 120803867.897 7  94133075.762 6  22988232.336                    22988242.016
 119277008.707 7  92943194.612 7  22697664.531                    22697673.918
 110960474.789 8  86462787.158 7  21115050.563                    21115058.648
 115646412.695 7  90114135.817 7  22006780.773                    22006792.496
 112617379.466 8  87753854.066 7  21430377.766                    21430385.988
 116949280.243 7  91129421.56145  22254685.063                    22254691.273
 117269747.125 7  91379092.07845  22315695.313                    22315705.359
 11  8 29  2 22  0.0000000  0  9G26G21G15G12G05G25G29G02G30
 116609151.806 7  90864365.25345  22189976.844                    22189986.176
 130429293.895 6 101633141.54743  24819841.984                    24819851.613
 120709655.667 7  94059663.715 6  22970304.414                    22970314.559
 119364553.331 7  93011411.191 6  22714324.195                    22714333.496
 111023239.158 8  86511694.454 7  21126994.664                    21127002.527
 115691143.175 8  90148990.740 7  22015292.906                    22015304.797
 112548167.664 8  87699922.823 7  21417207.203                    21417215.438
 116993045.477 7  91163524.34445  22263012.695                    22263019.215
 117316460.910 7  91415492.39945  22324584.953                    22324594.391
 11  8 29  2 22 30.0000000  0  9G26G21G15G12G05G25G29G02G30
 116534240.446 7  90805992.81745  22175721.539                    22175730.492
 130373231.062 7 101589456.34543  24809173.789                    24809183.184
 120615564.160 7  93986345.673 7  22952399.156                    22952408.988
 119452282.375 7  93079771.472 7  22731018.914                    22731027.383
 111086330.976 8  86560856.914 7  21139000.453                    21139008.520
 115736319.857 7  90184193.360 7  22023889.914                    22023901.816
 112479211.099 8  87646190.469 7  21404084.945                    21404093.215
 117036906.289 7  91197701.58745  22271359.609                    22271366.090
 117363613.393 7  91452234.58245  22333557.164                    22333566.691
 11  8 29  2 23  0.0000000  0  9G26G21G15G12G05G25G29G02G30
 116459713.736 7  90747920.08345  22161540.188                    22161549.156
 130317148.480 7 101545755.75843  24798501.477                    24798511.434
 120521596.726 7  93913124.374 6  22934518.148                    22934526.605
 119540193.182 7  93148273.411 7  22747747.344                    22747756.473
 111149748.092 8  86610272.851 7  21151068.305                    21151076.449
 115781940.508 8  90219741.919 7  22032571.172                    22032582.523
 112410512.624 8  87592659.214 7  21391012.016                    21391020.926
 117080863.253 7  91231953.75545  22279724.016                    22279730.953
 117411202.203 7  91489316.76645  22342613.789                    22342623.387
 11  8 29  2 23 30.0000000  0 10G26G21G15G12G05G25G29G02G30G18
 116385575.343 7  90690149.95845  22147431.680                    22147440.840
 130261045.603 7 101502039.34643  24787824.664                    24787834.609
 120427756.505 7  93840002.178 7  22916660.203                    22916671.004
 119628282.339 7  93216914.305 7  22764510.070                    22764519.207
 111213488.149 8  86659940.422 7  21163197.664                    21163205.961
 115828002.662 8  90255634.506 7  22041336.359                    22041348.191
 112342074.063 8  87539330.502 7  21377988.906                    21377997.023
 117124916.661 7  91266281.08845  22288107.320                    22288113.598
 117459224.425 7  91526736.66045  22351752.266                    22351762.051
 129705238.56316 101069168.79353  24682112.703                    24682123.531
 11  8 29  2 24  0.0000000  0 10G26G21G15G12G05G25G29G02G30G18
 116311828.440 7  90632684.87945  22133397.609                    22133407.410
 130204921.722 7 101458306.60043  24777144.750                    24777154.887
 120334046.494 7  93766981.409 6  22898827.719                    22898836.367
 119716546.603 7  93285691.634 7  22781306.266                    22781315.535
 111277548.091 8  86709857.253 7  21175387.938                    21175395.863
 115874503.737 7  90291869.117 7  22050185.469                    22050197.070
 112273897.901 8  87486206.252 7  21365015.359                    21365023.754
 117169066.671 7  91300683.70745  22296508.734                    22296515.180
 117507677.492 7  91564492.28945  22360971.781                    22360981.832
 129616394.833 6 100999940.07043  24665206.383                    24665217.402
 11  8 29  2 24 30.0000000  0 10G26G21G15G12G05G25G29G02G30G18
 116238476.280 7  90575527.40345  22119439.227                    22119448.570
 130148776.140 7 101414556.92343  24766460.703                    24766470.094
 120240469.270 7  93694064.162 6  22881020.266                    22881030.328
 119804982.748 7  93354602.888 7  22798134.773                    22798144.801
 111341925.433 8  86760021.405 7  21187638.328                    21187646.555
 115921441.065 8  90328443.666 7  22059117.148                    22059128.691
 112205986.336 8  87433288.178 7  21352091.742                    21352100.664
 117213313.584 7  91335161.81145  22304928.828                    22304935.340
 117556558.399 7  91602581.28645  22370273.594                    22370283.672
 129527718.064 6 100930841.44743  24648331.367                    24648341.855
 11  8 29  2 25  0.0000000  0 10G26G21G15G12G05G25G29G02G30G18
 116165522.387 7  90518680.25145  22105556.969                    22105566.125
 130092608.316 7 101370789.88343  24755772.266                    24755782.219
 120147028.057 7  93621252.869 6  22863239.625                    22863248.645
 119893587.436 7  93423645.471 7  22814995.945                    22815005.688
 111406617.261 8  86810430.621 7  21199948.633                    21199956.898
 115968812.086 8  90365356.153 7  22068131.594                    22068143.094
 112138341.478 8  87380577.927 7  21339219.539                    21339228.113
 117257657.831 7  91369715.76145  22313366.883                    22313373.969
 117605864.396 7  91641001.54645  22379656.445                    22379666.500
 129439209.243 6 100861873.67442  24631488.211                    24631499.176
 11  8 29  2 25 30.0000000  0 10G26G21G15G12G05G25G29G02G30G18
 116092971.050 7  90462146.79845  22091750.820                    22091760.070
 130036418.418 6 101327005.63643  24745079.445                    24745088.906
 120053726.720 7  93548550.603 7  22845484.648                    22845495.164
 119982358.621 7  93492817.789 7  22831888.547                    22831897.973
 111471622.789 8  86861084.276 7  21212318.672                    21212326.918
 116016615.300 8  90402605.397 7  22077228.563                    22077240.109
 112070966.918 8  87328078.301 7  21326398.234                    21326406.949
 117302100.421 7  91404346.34345  22321824.195                    22321831.031
 117655593.672 7  91679751.62045  22389119.461                    22389129.191
 129350870.366 6 100793038.28643  24614678.344                    24614688.566
 11  8 29  2 26  0.0000000  0 10G26G21G15G12G05G25G29G02G30G18
 116020825.497 7  90405929.53645  22078021.750                    22078030.648
 129980205.453 6 101283203.44943  24734382.500                    24734392.039
 119960567.960 7  93475959.368 6  22827757.320                    22827765.770
 120071292.909 7  93562117.200 7  22848811.945                    22848821.828
 111536938.962 8  86911980.001 7  21224748.070                    21224755.828
 116064847.781 8  90440189.157 7  22086406.742                    22086418.258
 112003864.108 8  87275790.423 7  21313629.617                    21313638.023
 117346641.457 7  91439053.64845  22330299.797                    22330306.883
 117705743.167 7  91718829.13045  22398662.313                    22398673.258
 129262702.449 6 100724336.16042  24597899.297                    24597910.480
 11  8 29  2 26 30.0000000  0 10G26G21G15G12G05G25G29G02G30G18
 115949089.120 7  90350031.08745  22064370.672                    22064380.215
 129923969.072 6 101239382.99543  24723681.477                    24723690.734
 119867555.072 7  93403481.909 6  22810057.313                    22810066.813
 120160387.126 7  93631541.259 7  22865766.039                    22865776.055
 111602562.863 8  86963115.505 7  21237235.789                    21237243.941
 116113506.980 8  90478105.411 7  22095666.227                    22095677.652
 111937035.728 8  87223716.374 7  21300911.914                    21300920.453
 117391281.166 7  91473837.82845  22338794.664                    22338801.227
 117756310.045 7  91758231.89245  22408285.578                    22408294.836
 129174706.829 5 100655768.33642  24581154.906                    24581165.711
 11  8 29  2 27  0.0000000  0 10G26G21G15G12G05G25G29G02G30G18
 115877765.240 7  90294454.10245  22050798.703                    22050807.492
 129867708.705 6 101195543.83643  24712975.234                    24712984.523
 119774690.703 7  93331120.128 7  22792386.086                    22792396.930
 120249638.016 7  93701087.370 7  22882749.859                    22882759.492
 111668492.224 8  87014489.037 7  21249782.375                    21249790.000
 116162590.308 8  90516352.145 7  22105006.391                    22105018.148
 111870484.244 8  87171858.101 7  21288247.555                    21288256.395
 117436019.895 7  91508699.17145  22347308.242                    22347314.980
 117807291.533 7  91797957.72345  22417986.984                    22417996.336
 129086884.907 6 100587335.71342  24564442.797                    24564453.395
 11  8 29  2 27 30.0000000  0 10G26G21G15G12G05G25G29G02G30G18
 115806857.282 7  90239201.19345  22037304.867                    22037313.930
 129811423.708 6 101151685.52543  24702264.102                    24702273.719
 119681977.976 7  93258876.530 6  22774742.961                    22774752.387
 120339042.477 7  93770753.166 7  22899763.453                    22899772.781
 111734724.504 8  87066098.594 7  21262385.328                    21262393.402
 116212095.173 8  90554927.360 7  22114426.758                    22114438.902
 111804211.820 8  87120217.274 7  21275636.609                    21275645.035
 117480858.274 7  91543638.15545  22355841.117                    22355847.137
 117858684.807 7  91838004.43245  22427766.867                    22427776.008
 128999237.488 6 100519039.20742  24547763.242                    24547774.918
 11  8 29  2 28  0.0000000  0 10G26G21G15G12G05G25G29G02G30G18
 115736368.947 7  90184275.28145  22023891.391                    22023900.773
 129755113.752 6 101107807.69543  24691548.672                    24691558.148
 119589420.283 7  93186753.712 7  22757129.695                    22757139.637
 120428597.606 7  93840536.368 7  22916805.258                    22916814.238
 111801257.255 8  87117942.303 7  21275046.258                    21275054.184
 116262019.145 8  90593829.134 7  22123927.484                    22123938.730
 111738221.101 8  87068795.956 7  21263079.109                    21263087.789
 117525796.665 7  91578655.08245  22364392.109                    22364398.824
 117910487.229 7  91878369.94345  22437624.242                    22437634.164
 128911765.837 6 100450879.62842  24531119.445                    24531129.145
 11  8 29  2 28 30.0000000  0 10G26G21G15G12G05G25G29G02G30G18
 115666303.603 7  90129678.96445  22010558.328                    22010567.152
 129698778.175 5 101063909.97042  24680827.578                    24680837.520
 119497020.602 7  93114754.053 6  22739546.883                    22739555.500
 120518300.120 7  93910434.412 7  22933875.039                    22933884.230
 111868087.797 8  87170018.053 7  21287763.320                    21287771.664
 116312359.666 8  90633055.482 7  22133506.641                    22133518.258
 111672514.341 8  87017595.904 7  21250575.555                    21250583.730
 117570835.367 7  91613750.16945  22372962.805                    22372969.246
 117962696.003 7  91919052.10645  22447559.234                    22447568.676
 128824471.413 6 100382858.13442  24514506.898                    24514517.176
 11  8 29  2 29  0.0000000  0 10G26G21G15G12G05G25G29G02G30G18
 115596664.990 7  90075415.16045  21997306.602                    21997315.402
 129642416.863 6 101019992.20942  24670102.008                    24670113.480
 119404782.408 7  93042880.252 7  22721994.242                    22722004.668
 120608147.480 7  93980445.333 6  22950972.734                    22950981.918
 111935214.460 8  87222324.534 7  21300537.469                    21300545.523
 116363114.486 8  90672604.674 7  22143164.844                    22143176.414
 111607094.356 8  86966619.320 7  21238126.383                    21238134.945
 117615975.108 7  91648923.97045  22381552.813                    22381559.191
 118015308.632 7  91960048.94045  22457570.836                    22457580.918
 128737355.772 6 100314976.00443  24497929.328                    24497939.551
 11  8 29  2 29 30.0000000  0 10G26G21G15G12G05G25G29G02G30G18
 115527456.025 7  90021486.15045  21984136.078                    21984145.430
 129586028.975 6 100976053.59742  24659371.883                    24659382.496
 119312708.301 7  92971134.238 7  22704473.281                    22704483.258
 120698135.876 7  94050566.136 6  22968096.594                    22968105.801
 112002633.794 8  87274859.080 7  21313366.750                    21313374.949
 116414280.502 8  90712474.263 7  22152901.602                    22152912.941
 111541962.915 8  86915867.572 7  21225732.336                    21225741.039
 117661215.894 7  91684176.53845  22390161.453                    22390168.254
 118068321.858 7  92001357.93545  22467659.797                    22467668.922
 128650419.465 6 100247233.62343  24481386.063                    24481396.328
 11  8 29  2 30  0.0000000  0 10G26G21G15G12G05G25G29G02G30G18
 115458680.609 7  89967894.96645  21971048.805                    21971057.621
 129529614.384 6 100932094.17542  24648637.281                    24648646.949
 119220801.985 7  92899519.013 7  22686984.172                    22686993.301
 120788263.405 7  94120795.364 6  22985247.281                    22985256.574
 112070344.216 8  87327620.444 7  21326251.836                    21326259.949
 116465855.755 8  90752662.759 7  22162716.219                    22162727.301
 111477123.472 8  86865343.355 7  21213393.641                    21213402.508
 117706558.558 7  91719508.47545  22398789.883                    22398797.035
 118121733.517 7  92042977.40345  22477823.047                    22477832.828
 128563664.316 6 100179632.34743  24464876.547                    24464886.781
 11  8 29  2 30 30.0000000  0 10G26G21G15G12G05G25G29G02G30G18
 115390341.524 7  89914643.78645  21958044.320                    21958053.207
 129473172.216 6 100888113.40542  24637896.953                    24637905.688
 119129065.957 7  92828036.501 7  22669527.508                    22669536.762
 120878525.793 7  94191129.662 6  23002423.344                    23002432.871
 112138342.592 8  87380606.195 7  21339191.656                    21339199.438
 116517836.938 7  90793167.543 7  22172607.656                    22172619.137
 111412577.012 7  86815047.436 7  21201110.930                    21201119.727
 117752003.085 7  91754919.78545  22407438.180                    22407445.121
 118175540.024 7  92084904.53545  22488062.266                    22488071.766
 128477090.710 6 100112172.58543  24448401.742                    24448411.926
 11  8 29  2 31  0.0000000  0 10G26G21G15G12G05G25G29G02G30G18
 115322442.499 7  89861735.51245  21945123.641                    21945132.637
 129416701.986 6 100844110.68242  24627150.617                    24627159.754
 119037503.594 7  92756689.313 7  22652103.320                    22652112.793
 120968920.202 7  94261566.831 6  23019625.469                    23019634.852
 112206626.545 8  87433814.470 7  21352185.313                    21352193.582
 116570221.663 8  90833986.788 7  22182576.234                    22182588.066
 111348326.440 8  86764982.076 7  21188884.570                    21188893.199
 117797550.009 7  91790410.88145  22416104.984                    22416112.000
 118229738.826 7  92127137.36245  22498375.930                    22498385.215
 128390700.359 6 100044855.63043  24431962.180                    24431972.781
 11  8 29  2 31 30.0000000  0 10G26G21G15G12G05G25G29G02G30G18
 115254986.814 7  89809172.69845  21932286.938                    21932296.367
 129360203.310 6 100800085.80742  24616398.570                    24616408.109
 118946117.758 7  92685479.643 7  22634713.281                    22634723.719
 121059443.818 7  94332104.701 6  23036851.203                    23036860.773
 112275193.794 8  87487243.487 7  21365233.367                    21365241.254
 116623007.351 8  90875118.470 7  22192621.180                    22192632.578
 111284374.219 8  86715149.198 7  21176714.617                    21176723.230
 117843199.794 7  91825982.12745  22424792.289                    22424798.734
 118284327.108 7  92169673.69045  22508763.445                    22508773.488
 128304494.524 6  99977682.47642  24415556.922                    24415568.121
 11  8 29  2 32  0.0000000  0 10G26G21G15G12G05G25G29G02G30G18
 115187977.858 7  89756957.97145  21919535.523                    21919544.578
 129303675.406 6 100756038.12543  24605642.070                    24605650.648
 118854911.791 7  92614410.109 7  22617357.016                    22617367.031
 121150093.192 7  94402740.572 6  23054101.938                    23054110.727
 112344041.676 8  87540891.201 7  21378334.563                    21378342.543
 116676191.145 8  90916560.374 7  22202741.766                    22202752.637
 111220722.738 8  86665550.662 7  21164602.453                    21164610.539
 117888952.991 7  91861633.95645  22433498.313                    22433505.695
 118339301.798 7  92212511.12045  22519224.711                    22519234.121
 128218474.535 6  99910654.05043  24399188.445                    24399198.867
 11  8 29  2 32 30.0000000  0 10G26G21G15G12G05G25G29G02G30G18
 115121419.150 7  89705094.08445  21906869.898                    21906879.352
 129247118.410 6 100711967.80543  24594879.719                    24594888.707
 118763889.178 7  92543483.479 7  22600036.391                    22600044.383
 121240866.117 7  94473472.717 6  23071375.148                    23071384.695
 112413168.197 8  87594756.019 7  21391488.813                    21391497.094
 116729770.862 8  90958310.774 7  22212937.219                    22212949.305
 111157374.959 7  86616188.787 7  21152547.320                    21152555.914
 117934810.238 7  91897366.85745  22442224.766                    22442232.176
 118394660.556 7  92255647.79945  22529758.977                    22529768.813
 128132641.087 6  99843771.00443  24382855.109                    24382865.191
 11  8 29  2 33  0.0000000  0 10G26G21G15G12G05G25G29G02G30G18
 115055313.902 7  89653583.55545  21894290.328                    21894299.496
 129190531.637 6 100667874.27943  24584111.188                    24584120.684
 118673052.786 7  92472701.956 6  22582750.609                    22582759.184
 121331758.841 7  94544298.188 6  23088671.359                    23088680.656
 112482570.485 8  87648835.721 7  21404695.938                    21404703.688
 116783743.681 8  91000367.487 7  22223208.406                    22223219.461
 111094333.199 7  86567065.358 7  21140550.898                    21140559.531
 117980771.713 7  91933180.97645  22450970.844                    22450978.277
 118450400.333 7  92299081.36645  22540366.398                    22540376.355
 128046995.746 6  99777034.51743  24366557.422                    24366567.461
 11  8 29  2 33 30.0000000  0 10G26G21G15G12G05G25G29G02G30G18
 114989665.361 7  89602428.87345  21881798.102                    21881807.078
 129133914.408 6 100623756.98943  24573338.094                    24573346.793
 118582405.427 7  92402067.745 6  22565500.859                    22565509.094
 121422768.103 7  94615214.486 6  23105989.844                    23105999.016
 112552245.959 8  87703128.290 7  21417954.664                    21417962.668
 116838106.527 7  91042728.103 7  22233553.148                    22233564.594
 111031598.799 7  86518181.435 7  21128613.203                    21128621.574
 118026837.690 7  91969076.52645  22459737.141                    22459743.973
 118506517.837 7  92342809.26845  22551044.953                    22551054.711
 127961539.080 6  99710445.10643  24350295.422                    24350305.199
 11  8 29  2 34  0.0000000  0 10G26G21G15G12G05G25G29G02G30G18
 114924476.756 7  89551632.57745  21869392.781                    21869401.895
 129077266.382 7 100579615.73843  24562558.227                    24562567.324
 118491950.260 7  92331583.274 7  22548287.742                    22548297.246
 121513891.178 7  94686219.449 6  23123329.570                    23123338.918
 112622192.201 8  87757631.850 7  21431264.914                    21431273.152
 116892856.845 8  91085390.663 7  22243971.953                    22243983.277
 110969174.686 8  86469539.301 7  21116733.945                    21116742.824
 118073008.566 7  92005053.82245  22468523.461                    22468529.695
 118563010.238 7  92386829.29745  22561795.078                    22561805.055
 127876272.549 6  99644003.83443  24334069.023                    24334078.973
 11  8 29  2 34 30.0000000  0 10G26G21G15G12G05G25G29G02G30G18
 114859751.454 7  89501197.32845  21857075.508                    21857084.977
 129020587.269 6 100535450.26743  24551772.734                    24551781.980
 118401690.657 7  92261251.184 7  22531111.875                    22531121.148
 121605125.133 7  94757310.800 6  23140691.219                    23140700.344
 112692406.855 8  87812344.564 7  21444626.563                    21444634.566
 116947991.985 7  91128353.079 7  22254463.680                    22254475.414
 110907063.385 7  86421140.918 7  21104914.891                    21104923.188
 118119285.045 7  92041113.40345  22477328.680                    22477335.887
 118619874.860 7  92431139.35745  22572616.492                    22572626.137
 127791197.176 6  99577711.44943  24317880.031                    24317889.293
 11  8 29  2 35  0.0000000  0 10G26G21G15G12G05G25G29G02G30G18
 114795493.088 7  89451125.90845  21844848.250                    21844857.492
 128963876.391 6 100491259.98943  24540979.945                    24540989.703
 118311629.505 7  92191073.721 7  22513973.680                    22513982.652
 121696466.612 7  94828485.969 6  23158072.945                    23158081.445
 112762887.619 8  87867264.635 7  21458038.742                    21458046.863
 117003509.286 8  91171613.280 7  22265028.352                    22265039.746
 110845267.182 7  86372988.051 7  21093155.430                    21093164.156
 118165667.864 7  92077255.84045  22486155.711                    22486162.438
 118677108.700 7  92475737.12244  22583507.266                    22583517.289
 127706314.169 6  99511568.95243  24301726.797                    24301736.625
 11  8 29  2 35 30.0000000  0 10G26G21G15G12G05G25G29G02G30G18
 114731704.581 7  89401420.60645  21832709.516                    21832718.383
 128907133.426 6 100447044.78243  24530182.211                    24530191.434
 118221770.380 7  92121053.701 7  22496873.891                    22496882.488
 121787912.892 7  94899742.758 6  23175474.797                    23175484.293
 112833632.146 8  87922390.236 7  21471501.047                    21471508.676
 117059406.161 7  91215169.253 7  22275665.109                    22275676.633
 110783788.839 7  86325082.866 7  21081456.586                    21081464.746
 118212157.285 7  92113481.33945  22495002.953                    22495008.969
 118734709.001 7  92520620.43844  22594468.523                    22594478.191
 127621624.971 6  99445577.54543  24285611.078                    24285620.855
 11  8 29  2 36  0.0000000  0 10G26G21G15G12G05G25G29G02G30G18
 114668389.090 7  89352083.90745  21820660.930                    21820670.125
 128850358.077 6 100402804.30843  24519378.141                    24519387.996
 118132116.106 7  92051193.292 7  22479813.320                    22479821.809
 121879460.758 7  94971078.730 6  23192895.406                    23192905.141
 112904637.629 8  87977719.185 7  21485012.391                    21485020.660
 117115679.697 8  91259018.733 7  22286374.234                    22286385.195
 110722630.418 7  86277426.979 7  21069818.359                    21069826.531
 118258753.440 7  92149790.02245  22503869.672                    22503876.375
 118792672.741 7  92565786.94645  22605498.859                    22605508.500
 127537130.571 6  99379737.85743  24269532.305                    24269542.242
 11  8 29  2 36 30.0000000  0 10G26G21G15G12G05G25G29G02G30G18
 114605550.445 7  89303118.75445  21808703.102                    21808712.035
 128793550.126 6 100358538.42843  24508568.625                    24508577.613
 118042669.958 7  91981495.089 6  22462792.398                    22462800.715
 121971107.572 7  95042491.830 6  23210335.141                    23210344.977
 112975901.849 8  88033249.745 7  21498573.781                    21498581.816
 117172327.322 7  91303159.721 7  22297153.297                    22297165.004
 110661794.505 7  86230022.393 7  21058241.461                    21058249.844
 118305456.996 7  92186182.38445  22512756.969                    22512763.551
 118850997.058 7  92611234.44445  22616597.172                    22616607.406
 127452831.956 6  99314050.78543  24253490.117                    24253500.828
 11  8 29  2 37  0.0000000  0 10G26G21G15G12G05G25G29G02G30G18
 114543191.573 7  89254527.46245  21796836.539                    21796845.438
 128736708.939 6 100314246.68343  24497751.633                    24497760.938
 117953434.358 7  91911960.927 7  22445811.523                    22445819.895
 122062849.781 7  95113979.237 6  23227793.531                    23227802.566
 113047422.402 8  88088980.036 7  21512183.891                    21512191.832
 117229346.139 7  91347589.961 7  22308003.594                    22308015.355
 110601283.522 7  86182871.001 7  21046726.813                    21046734.898
 118352268.390 7  92222658.77545  22521664.367                    22521671.508
 118909678.944 7  92656960.54344  22627764.297                    22627774.074
 127368730.170 6  99248517.03343  24237487.234                    24237496.414
 11  8 29  2 37 30.0000000  0 10G26G21G15G12G05G25G29G02G30G18
 114481315.434 7  89206312.32045  21785061.727                    21785071.121
 128679833.797 6 100269928.46943  24486928.305                    24486937.871
 117864413.289 7  91842593.920 7  22428871.000                    22428880.324
 122154684.405 7  95185538.672 6  23245269.344                    23245278.313
 113119196.379 8  88144907.800 7  21525841.813                    21525850.121
 117286733.100 7  91392307.055 7  22318924.031                    22318936.043
 110541099.253 7  86135974.185 7  21035273.852                    21035282.086
 118399188.107 7  92259219.57545  22530593.773                    22530599.785
 118968715.150 7  92702962.76045  22638998.367                    22639008.672
 127284826.134 6  99183137.35843  24221520.063                    24221530.012
 11  8 29  2 38  0.0000000  0 10G26G21G15G12G05G25G29G02G30G18
 114419925.706 7  89158476.19445  21773379.984                    21773389.180
 128622924.479 6 100225583.60444  24476099.453                    24476108.277
 117775609.888 7  91773396.518 7  22411972.000                    22411981.223
 122246608.793 6  95257168.049 6  23262762.219                    23262770.941
 113191221.994 8  88201031.648 7  21539547.875                    21539555.785
 117344485.913 7  91437309.234 7  22329914.117                    22329925.645
 110481244.989 7  86089334.525 7  21023884.055                    21023892.871
 118446216.815 7  92295865.31245  22539542.547                    22539549.125
 119028103.160 7  92749239.09945  22650299.859                    22650309.469
 127201121.518 6  99117913.15943  24205591.680                    24205601.172
 11  8 29  2 38 30.0000000  0 10G26G21G15G12G05G25G29G02G30G18
 114359024.864 7  89111021.03545  21761790.906                    21761799.781
 128565980.200 6 100181211.50443  24465262.883                    24465272.262
 117687026.584 7  91704370.629 7  22395115.289                    22395124.227
 122338619.418 7  95328864.643 6  23280270.844                    23280279.238
 113263496.329 8  88257349.316 7  21553301.094                    21553309.219
 117402601.156 7  91482593.828 7  22340973.109                    22340985.043
 110421722.325 7  86042953.244 7  21012557.141                    21012565.578
 118493354.782 8  92332596.17445  22548512.609                    22548519.262
 119087839.346 7  92795786.74245  22661667.391                    22661677.348
 127117616.690 7  99052844.53143  24189701.078                    24189710.297
 11  8 29  2 39  0.0000000  0 10G26G21G15G12G05G25G29G02G30G18
 114298616.635 7  89063949.71645  21750295.375                    21750304.633
 128509001.154 6 100136812.29743  24454419.719                    24454429.160
 117598667.063 7  91635519.124 7  22378300.719                    22378310.504
 122430713.745 7  95400626.463 6  23297795.672                    23297804.512
 113336017.146 8  88313859.031 7  21567101.320                    21567109.414
 117461076.554 7  91528159.057 7  22352100.719                    22352112.258
 110362534.173 8  85996832.611 7  21001294.141                    21001302.441
 118540602.545 7  92369412.60745  22557503.734                    22557510.063
 119147921.255 7  92842603.78345  22673100.344                    22673109.914
 127034312.856 6  98987932.52943  24173848.281                    24173858.438
 11  8 29  2 39 30.0000000  0 10G26G21G15G12G05G25G29G02G30G18
 114238704.032 7  89017264.61145  21738894.383                    21738903.281
 128451986.568 6 100092385.39943  24443570.602                    24443579.832
 117510533.952 7  91566844.027 7  22361529.672                    22361538.672
 122522888.455 6  95472450.911 6  23315335.586                    23315345.281
 113408781.777 8  88370558.729 7  21580947.930                    21580955.992
 117519909.030 7  91574002.525 7  22363296.305                    22363307.824
 110303682.468 7  85950974.154 7  20990094.906                    20990103.012
 118587960.382 7  92406314.80045  22566515.563                    22566522.008
 119208345.698 7  92889687.75245  22684599.414                    22684609.051
 126951211.271 7  98923178.10943  24158034.820                    24158044.492
 11  8 29  2 40  0.0000000  0 10G26G21G15G12G05G25G29G02G30G18
 114179290.577 7  88970968.43845  21727588.711                    21727597.281
 128394936.142 6 100047930.59543  24432714.383                    24432723.383
 117422631.157 7  91498348.414 7  22344802.422                    22344811.164
 122615140.893 6  95544335.906 6  23332891.578                    23332900.090
 113481788.363 8  88427446.972 7  21594840.703                    21594848.906
 117579096.145 7  91620122.353 7  22374559.188                    22374570.672
 110245170.226 8  85905380.208 7  20978960.633                    20978968.516
 118635429.189 7  92443303.46445  22575548.688                    22575555.145
 119269109.938 7  92937036.49745  22696161.945                    22696171.668
 126868313.296 6  98858582.35643  24142259.930                    24142269.367
 11  8 29  2 40 30.0000000  0 10G26G21G15G12G05G25G29G02G30G18
 114120378.812 7  88925063.20045  21716378.078                    21716387.094
 128337849.409 6 100003447.51643  24421850.586                    24421860.059
 117334961.027 7  91430034.076 7  22328119.172                    22328128.043
 122707467.811 6  95616278.949 6  23350460.375                    23350469.559
 113555033.878 8  88484521.396 7  21608778.773                    21608786.750
 117638634.576 7  91666515.944 7  22385888.859                    22385900.590
 110186999.258 7  85860052.196 7  20967891.117                    20967899.445
 118683009.113 7  92480378.73345  22584601.930                    22584609.137
 119330210.601 7  92984647.39145  22707789.766                    22707798.957
 126785619.602 6  98794145.78843  24126523.367                    24126533.180
 11  8 29  2 41  0.0000000  0 10G26G21G15G12G05G25G29G02G30G18
 114061971.857 7  88879551.32645  21705263.297                    21705272.074
 128280726.004 5  99958935.84143  24410980.711                    24410990.668
 117247526.539 7  91361903.353 7  22311481.078                    22311489.496
 122799866.054 7  95688277.557 6  23368043.430                    23368052.344
 113628516.352 8  88541780.460 7  21622762.203                    21622770.426
 117698521.600 7  91713181.139 7  22397284.961                    22397297.309
 110129171.692 8  85814991.765 7  20956886.844                    20956895.289
 118730700.606 7  92517540.90545  22593677.984                    22593684.680
 119391644.676 7  93032518.08445  22719479.078                    22719489.320
 126703130.736 6  98729868.85943  24110826.539                    24110836.609
 11  8 29  2 41 30.0000000  0 10G26G21G15G12G05G25G29G02G30G18
 114004073.025 7  88834435.38945  21694245.375                    21694254.504
 128223565.743 6  99914395.44643  24400103.906                    24400112.422
 117160331.479 7  91293959.199 7  22294888.641                    22294897.121
 122892332.613 7  95760329.399 6  23385638.320                    23385648.031
 113702233.004 8  88599221.987 7  21636790.109                    21636798.008
 117758754.470 7  91760115.834 7  22408746.609                    22408758.121
 110071690.426 8  85770201.183 7  20945948.688                    20945956.836
 118778504.311 7  92554790.53444  22602774.656                    22602781.379
 119453409.296 7  93080646.33145  22731233.414                    22731242.996
 126620848.354 6  98665752.81543  24095168.563                    24095178.863
 11  8 29  2 42  0.0000000  0 10G26G21G15G12G05G25G29G02G30G18
 113946685.224 7  88789717.64945  21683324.711                    21683333.770
 128166367.743 6  99869825.66143  24389218.867                    24389228.230
 117073378.744 7  91226203.876 7  22278341.969                    22278350.410
 122984864.381 7  95832432.076 6  23403246.969                    23403256.473
 113776181.659 8  88656844.296 7  21650862.211                    21650870.164
 117819329.992 7  91807317.544 7  22420273.664                    22420285.336
 110014557.413 8  85725681.967 7  20935076.055                    20935084.781
 118826420.682 7  92592127.96345  22611893.320                    22611899.383
 119515501.172 7  93129029.60245  22743048.984                    22743058.840
 126538773.402 6  98601798.35443  24079549.672                    24079559.398
 11  8 29  2 42 30.0000000  0 10G26G21G15G12G05G25G29G02G30G18
 113889811.921 7  88745400.83245  21672502.227                    21672511.230
 128109132.268 6  99825226.64943  24378327.258                    24378336.531
 116986671.698 7  91158640.011 7  22261842.008                    22261850.824
 123077458.775 7  95904583.550 6  23420867.180                    23420876.043
 113850360.122 8  88714645.681 7  21664977.992                    21664985.613
 117880245.915 7  91854784.463 7  22431866.211                    22431877.836
 109957775.627 7  85681436.436 7  20924270.609                    20924279.266
 118874450.403 7  92629553.71844  22621032.844                    22621039.137
 119577917.737 7  93177665.87045  22754925.945                    22754936.207
 126456906.842 6  98538006.34443  24063971.820                    24063980.992
 11  8 29  2 43  0.0000000  0 10G26G21G15G12G05G25G29G02G30G18
 113833455.895 7  88701487.08745  21661777.961                    21661786.988
 128051858.734 6  99780597.98243  24367428.383                    24367437.633
 116900213.059 7  91091269.685 7  22245389.547                    22245398.164
 123170112.681 6  95976781.390 6  23438499.422                    23438507.996
 113924765.348 8  88772623.763 7  21679136.633                    21679144.367
 117941498.908 7  91902514.064 7  22443522.063                    22443533.441
 109901347.009 7  85637466.091 7  20913533.070                    20913541.254
 118922593.584 7  92667067.85244  22630194.102                    22630200.738
 119640655.662 7  93226552.55745  22766864.484                    22766874.527
 126375249.671 6  98474377.46543  24048432.477                    24048442.430
 11  8 29  2 43 30.0000000  0 10G26G21G15G12G05G25G29G02G30G18
 113777620.490 7  88657979.01245  21651152.578                    21651161.668
 127994546.856 6  99735939.46243  24356521.742                    24356531.352
 116814006.487 7  91024095.774 7  22228984.430                    22228993.270
 123262823.559 7  96049023.624 6  23456141.250                    23456150.199
 113999395.775 8  88830777.343 7  21693338.391                    21693346.086
 118003086.670 7  91950504.532 7  22455241.734                    22455253.879
 109845274.492 8  85593773.229 7  20902863.031                    20902871.387
 118970851.355 7  92704671.30344  22639377.195                    22639383.934
 119703712.328 7  93275687.58744  22778864.320                    22778874.250
 126293803.044 6  98410912.61543  24032933.953                    24032943.461
 11  8 29  2 44  0.0000000  0 10G26G21G15G12G05G25G29G02G30G18
 113722308.115 7  88614878.50145  21640627.547                    21640636.047
 127937195.987 6  99691250.58343  24345608.141                    24345617.410
 116728054.026 7  90957119.870 7  22212628.563                    22212637.328
 123355587.621 6  96121307.303 6  23473793.484                    23473802.555
 114074248.140 8  88889103.843 7  21707582.445                    21707590.504
 118065005.471 7  91998752.914 7  22467024.547                    22467036.340
 109789559.567 7  85550359.027 7  20892260.367                    20892268.773
 119019223.584 7  92742363.94544  22648582.859                    22648589.059
 119767083.829 7  93325067.98244  22790922.867                    22790933.215
 126212567.541 6  98347612.28043  24017475.570                    24017484.770
 11  8 29  2 44 30.0000000  0 10G26G21G15G12G05G25G29G02G30G18
 113667522.050 7  88572188.09245  21630201.906                    21630210.684
 127879806.000 6  99646531.16343  24334686.922                    24334696.180
 116642359.666 7  90890345.105 7  22196321.289                    22196330.465
 123448402.372 6  96193630.474 6  23491455.258                    23491464.508
 114149320.739 8  88947601.961 7  21721867.984                    21721875.672
 118127252.828 7  92047257.339 7  22478869.891                    22478881.539
 109734204.953 8  85507225.569 7  20881727.109                    20881735.348
 119067710.968 7  92780146.32144  22657808.844                    22657815.613
 119830767.606 7  93374691.69544  22803041.969                    22803051.664
 126131544.217 6  98284477.32143  24002056.820                    24002066.477
 11  8 29  2 45  0.0000000  0 10G26G21G15G12G05G25G29G02G30G18
 113613265.452 7  88529910.26745  21619876.938                    21619885.719
 127822376.765 6  99601781.20843  24323758.977                    24323768.117
 116556926.242 7  90823773.637 7  22180063.773                    22180072.652
 123541264.937 6  96265990.895 6  23509126.461                    23509136.039
 114224610.936 8  89006269.640 7  21736194.820                    21736202.848
 118189825.939 7  92096015.593 7  22490777.086                    22490788.789
 109679213.322 8  85464374.975 7  20871262.398                    20871271.109
 119116314.068 7  92818018.83344  22667057.414                    22667064.301
 119894760.656 7  93424556.39944  22815219.727                    22815229.301
 126050734.290 7  98221508.60843  23986679.211                    23986688.465
 11  8 29  2 45 30.0000000  0 10G26G21G15G12G05G25G29G02G30G18
 113559541.063 7  88488047.13945  21609653.781                    21609662.754
 127764907.382 6  99556999.90443  24312822.820                    24312832.203
 116471756.820 7  90757407.905 7  22163856.633                    22163865.230
 123634172.070 6  96338386.053 6  23526805.953                    23526815.605
 114300116.208 8  89065104.908 7  21750563.789                    21750571.082
 118252721.594 7  92145025.166 7  22502745.906                    22502757.359
 109624586.396 7  85421808.565 7  20860867.281                    20860875.492
 119165033.253 7  92855981.84244  22676328.953                    22676335.820
 119959059.563 7  93474659.46944  22827455.219                    22827465.199
 125970138.301 6  98158706.57843  23971342.156                    23971351.938
 11  8 29  2 46  0.0000000  0 10G26G21G15G12G05G25G29G02G30G18
 113506351.498 7  88446600.76745  21599531.680                    21599540.785
 127707397.735 6  99512187.28743  24301878.250                    24301887.797
 116386854.568 7  90691250.346 7  22147700.484                    22147709.051
 123727120.855 6  96410813.646 6  23544494.031                    23544503.238
 114375834.099 8  89124105.844 7  21764972.391                    21764980.152
 118315936.872 7  92194283.825 7  22514775.359                    22514787.102
 109570326.530 8  85379528.170 8  20850541.859                    20850550.160
 119213869.074 7  92894035.71544  22685621.891                    22685628.289
 120023661.277 7  93524998.44244  22839748.719                    22839757.883
 125889757.079 6  98096071.95943  23956046.383                    23956055.352
 11  8 29  2 46 30.0000000  0 10G26G21G15G12G05G25G29G02G30G18
 113453700.328 7  88405573.90645  21589512.914                    21589521.633
 127649847.691 7  99467343.16843  24290927.797                    24290937.090
 116302222.792 7  90625303.556 7  22131595.703                    22131604.340
 123820108.332 6  96483271.406 6  23562188.711                    23562198.379
 114451762.751 8  89183271.022 7  21779420.875                    21779428.586
 118379469.156 7  92243789.484 7  22526864.625                    22526876.859
 109516436.648 8  85337536.079 7  20840286.695                    20840295.309
 119262822.207 7  92932181.00144  22694937.102                    22694944.355
 120088563.076 7  93575571.27844  22852099.375                    22852108.379
 125809592.297 6  98033605.91143  23940791.852                    23940800.223
 11  8 29  2 47  0.0000000  0 10G26G21G15G12G05G25G29G02G30G18
 113401589.587 8  88364968.17245  21579596.367                    21579605.137
 127592256.598 6  99422467.08243  24279968.297                    24279976.926
 116217863.872 7  90559569.372 7  22115542.016                    22115551.145
 123913131.058 6  96555756.625 6  23579890.352                    23579900.246
 114527899.373 8  89242598.257 7  21793909.359                    21793916.930
 118443314.915 7  92293539.424 7  22539014.391                    22539026.082
 109462918.274 8  85295833.480 8  20830103.180                    20830110.887
 119311892.700 7  92970417.72845  22704274.938                    22704282.184
 120153761.154 7  93626374.97944  22864504.664                    22864515.500
 125729644.428 7  97971308.95743  23925577.734                    23925586.859
 11  8 29  2 47 30.0000000  0 10G26G21G15G12G05G25G29G02G30G18
 113350022.985 7  88324786.44045  21569783.961                    21569792.559
 127534624.311 6  99377558.89043  24269001.344                    24269010.098
 116133781.563 7  90494050.729 7  22099541.930                    22099550.867
 124006187.083 7  96628267.805 6  23597598.477                    23597607.387
 114604241.835 8  89302085.874 7  21808436.805                    21808444.586
 118507471.762 7  92343531.757 7  22551223.008                    22551234.938
 109409774.636 7  85254422.882 7  20819989.680                    20819997.871
 119361081.792 7  93008746.86844  22713635.195                    22713642.340
 120219253.138 7  93677407.70744  22876968.117                    22876977.887
 125649914.500 6  97909181.77743  23910406.008                    23910415.008
 11  8 29  2 48  0.0000000  0 10G26G21G15G12G05G25G29G02G30G18
 113299002.616 7  88285030.34545  21560074.875                    21560083.266
 127476950.219 6  99332618.10543  24258026.250                    24258035.238
 116049978.391 7  90428749.608 7  22083594.484                    22083603.703
 124099272.867 6  96700802.142 6  23615312.469                    23615321.492
 114680787.307 8  89361731.699 7  21823002.594                    21823010.703
 118571936.226 7  92393763.801 7  22563490.398                    22563502.250
 109357006.872 8  85213305.164 8  20809948.438                    20809957.152
 119410389.197 7  93047168.21944  22723018.828                    22723025.406
 120285035.262 7  93728666.49744  22889485.891                    22889496.445
 125570402.971 6  97847224.82243  23895274.789                    23895284.195
 11  8 29  2 48 30.0000000  0 10G26G21G15G12G05G25G29G02G30G18
 113248531.618 7  88245702.32645  21550470.117                    21550479.035
 127419234.698 6  99287645.04443  24247043.031                    24247051.957
 115966457.720 7  90363668.606 7  22067701.406                    22067710.172
 124192385.540 6  96773357.467 6  23633030.367                    23633039.941
 114757533.839 8  89421534.172 7  21837607.469                    21837615.516
 118636705.556 7  92444233.406 7  22575815.320                    22575826.703
 109304617.937 7  85172482.645 8  20799978.805                    20799987.656
 119459815.539 7  93085682.22444  22732423.680                    22732431.066
 120351104.771 7  93780149.22344  22902058.148                    22902068.871
 125491110.812 6  97785438.78343  23880185.961                    23880195.973
 11  8 29  2 49  0.0000000  0 10G26G21G15G12G05G25G29G02G30G18
 113198612.762 8  88206804.54045  21540971.570                    21540979.777
 127361476.945 6  99242639.07043  24236052.461                    24236060.648
 115883222.635 7  90298810.143 7  22051861.930                    22051870.520
 124285522.444 6  96845931.636 6  23650754.375                    23650763.879
 114834479.018 8  89481491.448 7  21852249.211                    21852257.496
 118701776.904 7  92494938.317 7  22588198.273                    22588209.941
 109252610.354 8  85131957.280 8  20790082.430                    20790090.664
 119509361.803 7  93124289.67944  22741852.625                    22741859.051
 120417458.535 7  93831853.44444  22914685.594                    22914695.449
 125412039.089 6  97723824.49843  23865138.859                    23865148.754
 11  8 29  2 49 30.0000000  0 10G26G21G15G12G05G25G29G02G30G18
 113149249.182 8  88168339.44145  21531577.695                    21531586.480
 127303676.945 7  99197600.19143  24225053.883                    24225061.988
 115800276.366 7  90234176.734 7  22036078.086                    22036086.836
 124378680.740 7  96918522.505 6  23668481.102                    23668491.004
 114911620.689 8  89541601.838 7  21866928.992                    21866937.227
 118767147.440 7  92545876.384 7  22600637.844                    22600649.816
 109200986.602 8  85091731.016 7  20780258.906                    20780266.855
 119559028.415 7  93162990.91844  22751303.836                    22751310.688
 120484093.617 7  93883776.87544  22927365.281                    22927375.426
 125333189.148 6  97662383.04543  23850134.188                    23850144.156
 11  8 29  2 50  0.0000000  0 10G26G21G15G12G05G25G29G02G30G18
 113100442.737 8  88130308.46845  21522290.344                    21522298.926
 127245833.541 6  99152527.53343  24214045.844                    24214054.402
 115717621.077 7  90169770.057 7  22020349.297                    22020358.020
 124471856.591 7  96991127.046 6  23686213.039                    23686221.766
 114988955.603 8  89601862.799 7  21881645.344                    21881653.527
 118832813.281 7  92597044.562 7  22613134.078                    22613144.801
 109149747.303 8  85051804.312 7  20770508.414                    20770516.402
 119608815.321 7  93201785.89345  22760778.063                    22760784.887
 120551005.928 7  93935916.31044  22940098.703                    22940108.453
 125254561.009 6  97601114.43943  23835171.695                    23835181.234
 11  8 29  2 50 30.0000000  0 10G26G21G15G12G05G25G29G02G30G18
 113052197.144 8  88092714.52445  21513109.453                    21513118.000
 127187947.470 7  99107421.59443  24203030.398                    24203039.516
 115635260.958 7  90105593.381 7  22004676.539                    22004685.492
 124565048.112 6  97063743.788 6  23703945.922                    23703954.883
 115066482.191 8  89662273.123 7  21896398.203                    21896406.305
 118898772.450 7  92648441.329 7  22625684.984                    22625696.563
 109098896.306 8  85012180.184 7  20760831.391                    20760839.734
 119658723.498 7  93240675.35545  22770274.922                    22770281.793
 120618193.423 7  93988270.17644  22952884.125                    22952894.047
 125176156.081 6  97540019.72443  23820252.328                    23820261.301
 11  8 29  2 51  0.0000000  0 10G26G21G15G12G05G25G29G02G30G18
 113004514.644 8  88055559.36445  21504035.469                    21504043.977
 127130018.300 7  99062282.04343  24192007.008                    24192015.434
 115553198.534 7  90041648.696 7  21989059.969                    21989069.082
 124658251.797 6  97136370.023 6  23721682.344                    23721691.488
 115144198.050 8  89722830.927 7  21911186.945                    21911195.137
 118965021.498 7  92700063.962 7  22638291.969                    22638303.324
 109048435.391 8  84972860.023 7  20751229.047                    20751237.465
 119708753.309 7  93279659.59345  22779795.875                    22779803.039
 120685652.503 7  94040835.68444  22965721.008                    22965731.078
 125097974.964 6  97479099.46243  23805374.414                    23805384.246
 11  8 29  2 51 30.0000000  0 10G26G21G15G12G05G25G29G02G30G18
 112957398.333 8  88018845.37846  21495069.727                    21495078.457
 127072045.550 7  99017108.59843  24180974.180                    24180983.926
 115471437.303 7  89977938.685 7  21973501.453                    21973510.820
 124751465.731 7  97209004.252 6  23739420.078                    23739429.363
 115222101.197 8  89783534.669 7  21926011.133                    21926019.539
 119031557.745 7  92751910.382 7  22650953.695                    22650964.344
 108998367.330 8  84933845.964 8  20741701.570                    20741709.816
 119758905.496 7  93318739.19445  22789339.563                    22789346.570
 120753380.254 7  94093610.55944  22978609.305                    22978618.922
 125020018.749 6  97418354.39643  23790539.516                    23790549.520
 11  8 29  2 52  0.0000000  0 10G26G21G15G12G05G25G29G02G30G18
 112910850.471 8  87982574.36145  21486211.539                    21486220.633
 127014028.770 7  98971900.80144  24169934.688                    24169943.445
 115389979.604 7  89914465.195 7  21958000.977                    21958009.422
 124844686.044 7  97281643.453 6  23757159.594                    23757168.531
 115300189.111 8  89844382.376 7  21940871.016                    21940879.461
 119098377.798 7  92803977.962 7  22663668.719                    22663680.773
 108948693.747 8  84895139.303 8  20732248.813                    20732257.199
 119809180.244 7  93357914.29845  22798906.563                    22798913.605
 120821373.305 7  94146592.14844  22991547.836                    22991558.082
 124942288.175 6  97357785.20743  23775748.234                    23775757.699
 11  8 29  2 52 30.0000000  0 10G26G21G15G12G05G25G29G02G30G18
 112864873.835 7  87946748.44345  21477462.547                    21477471.090
 126955967.851 7  98926658.60544  24158886.047                    24158894.988
 115308828.640 7  89851230.717 7  21942558.547                    21942567.105
 124937909.856 7  97354285.401 6  23774899.477                    23774908.680
 115378459.373 8  89905372.178 7  21955765.359                    21955773.684
 119165478.833 7  92856264.481 7  22676437.531                    22676449.012
 108899417.241 7  84856742.044 7  20722872.016                    20722880.121
 119859578.425 7  93397185.57945  22808496.328                    22808503.871
 120889628.682 7  94199778.14544  23004536.930                    23004546.883
 124864783.980 6  97297392.38843  23760999.656                    23761008.809
 11  8 29  2 53  0.0000000  0 10G26G21G15G12G05G25G29G02G30G18
 112819470.795 7  87911369.48645  21468822.930                    21468831.277
 126897862.363 6  98881381.69243  24147829.086                    24147837.660
 115227987.292 7  89788237.478 7  21927174.570                    21927183.125
 125031134.237 7  97426927.767 6  23792639.469                    23792649.375
 115456909.403 8  89966502.066 7  21970694.117                    21970702.441
 119232857.419 7  92908767.258 7  22689260.039                    22689270.875
 108850539.460 8  84818655.483 7  20713570.922                    20713578.840
 119910100.343 7  93436553.26945  22818110.922                    22818117.996
 120958142.784 7  94253165.75844  23017574.672                    23017584.609
 124787506.261 6  97237176.01343  23746295.258                    23746302.996
 11  8 29  2 53 30.0000000  0 10G26G21G15G12G05G25G29G02G30G18
 112774644.644 8  87876440.05045  21460292.336                    21460301.414
 126839712.467 6  98836070.16143  24136762.609                    24136772.043
 115147459.319 7  89725488.447 7  21911850.586                    21911859.070
 125124356.970 7  97499568.857 6  23810379.398                    23810388.715
 115535537.368 8  90027770.595 7  21985656.313                    21985664.637
 119300511.177 7  92961484.443 7  22702133.438                    22702145.230
 108802063.487 8  84780882.016 7  20704345.898                    20704354.641
 119960746.721 7  93476017.93745  22827748.109                    22827755.375
 121026913.177 7  94306753.05244  23030660.945                    23030670.883
 124710456.628 6  97177137.42543  23731632.242                    23731641.184
 11  8 29  2 54  0.0000000  0 10G26G21G15G12G05G25G29G02G30G18
 112730397.553 8  87841961.82645  21451872.352                    21451881.406
 126781517.982 7  98790723.91043  24125689.383                    24125698.102
 115067247.441 7  89662985.714 7  21896586.930                    21896595.516
 125217574.870 7  97572206.170 6  23828117.148                    23828127.875
 115614340.868 7  90089175.922 7  22000652.016                    22000660.184
 119368436.944 7  93014413.572 7  22715059.367                    22715071.285
 108753991.603 8  84743423.414 8  20695198.523                    20695206.398
 120011517.990 7  93515579.94844  22837410.141                    22837417.016
 121095936.351 7  94360537.31245  23043796.156                    23043806.293
 124633636.089 6  97117277.29743  23717013.523                    23717023.094
 11  8 29  2 54 30.0000000  0 10G26G21G15G12G05G25G29G02G30G18
 112686731.840 8  87807936.63545  21443562.953                    21443571.969
 126723278.444 7  98745342.52443  24114606.523                    24114615.031
 114987354.373 7  89600731.418 7  21881383.398                    21881392.332
 125310784.983 7  97644837.401 6  23845855.445                    23845864.898
 115693317.415 7  90150716.072 7  22015680.742                    22015689.223
 119436631.388 7  93067552.071 7  22728036.141                    22728047.770
 108706325.227 8  84706280.800 8  20686127.258                    20686135.879
 120062414.305 7  93555239.39744  22847095.117                    22847102.328
 121165208.910 7  94414515.94544  23056977.523                    23056987.703
 124557044.949 7  97057595.95143  23702438.719                    23702448.137
 11  8 29  2 55  0.0000000  0 10G26G21G15G12G05G25G29G02G30G18
 112643650.291 8  87774366.63245  21435364.969                    21435374.063
 126664993.518 6  98699925.78343  24103514.844                    24103523.844
 114907783.304 7  89538728.027 7  21866241.789                    21866250.238
 125403984.614 6  97717460.449 6  23863590.680                    23863600.848
 115772465.010 7  90212389.497 7  22030742.242                    22030749.953
 119505091.544 7  93120897.609 7  22741064.313                    22741075.527
 108659067.005 8  84669456.224 8  20677134.547                    20677142.832
 120113436.594 7  93594997.00245  22856804.539                    22856811.563
 121234727.887 7  94468686.56844  23070206.664                    23070216.371
 124480684.102 6  96998094.03343  23687907.281                    23687916.664
 11  8 29  2 55 30.0000000  0 10G26G21G15G12G05G25G29G02G30G18
 112601155.581 8  87741253.91145  21427278.484                    21427287.965
 126606663.483 6  98654473.88944  24092414.844                    24092423.699
 114828537.562 7  89476978.134 7  21851161.734                    21851170.215
 125497170.985 6  97790073.163 6  23881323.477                    23881332.543
 115851781.535 7  90274194.571 7  22045836.016                    22045843.176
 119573814.752 7  93174448.136 7  22754141.539                    22754153.602
 108612219.569 8  84632951.742 8  20668219.773                    20668228.336
 120164585.319 7  93634853.13844  22866537.578                    22866544.703
 121304490.362 7  94523046.93044  23083482.375                    23083491.996
 124404554.510 6  96938772.32843  23673421.063                    23673430.004
 11  8 29  2 56  0.0000000  0 10G26G21G15G12G05G25G29G02G30G18
 112559249.877 7  87708600.15945  21419304.000                    21419312.965
 126548287.311 7  98608986.04244  24081306.359                    24081315.516
 114749619.601 7  89415483.663 7  21836144.250                    21836152.773
 125590341.067 6  97862673.180 6  23899052.781                    23899062.789
 115931264.243 7  90336129.124 7  22060961.070                    22060968.906
 119642797.473 7  93228200.870 7  22767268.266                    22767280.668
 108565784.130 8  84596768.290 8  20659383.242                    20659391.684
 120215860.768 7  93674807.99644  22876294.742                    22876301.789
 121374492.688 7  94577594.19344  23096803.547                    23096813.730
 124328656.468 7  96879631.05843  23658977.617                    23658986.805
 11  8 29  2 56 30.0000000  0 10G26G21G15G12G05G25G29G02G30G18
 112517935.194 8  87676406.93445  21411442.109                    21411451.160
 126489864.758 6  98563462.06444  24070189.336                    24070197.758
 114671031.909 7  89354246.548 7  21821189.328                    21821197.641
 125683491.866 7  97935258.196 6  23916779.180                    23916788.348
 116010910.397 8  90398191.066 7  22076116.805                    22076125.004
 119712036.236 7  93282153.139 7  22780444.117                    22780456.078
 108519762.368 8  84560907.189 8  20650625.656                    20650633.688
 120267263.196 7  93714861.81244  22886076.656                    22886083.445
 121444731.434 7  94632325.67244  23110169.320                    23110179.738
 124252990.428 7  96820670.54143  23644578.945                    23644587.699
 11  8 29  2 57  0.0000000  0 10G26G21G15G12G05G25G29G02G30G18
 112477214.507 8  87644676.57045  21403692.938                    21403702.000
 126431396.114 7  98517902.16443  24059062.922                    24059071.156
 114592778.348 7  89293269.793 7  21806298.039                    21806306.898
 125776620.580 6  98007826.004 6  23934500.578                    23934510.105
 116090718.548 8  90460379.221 7  22091303.898                    22091312.102
 119781528.652 7  93336303.049 7  22793668.016                    22793679.816
 108474157.559 8  84525370.982 8  20641947.328                    20641955.594
 120318793.577 7  93755015.34644  22895882.266                    22895889.691
 121515203.917 7  94687239.28744  23123579.500                    23123589.734
 124177557.699 6  96761891.83343  23630224.859                    23630233.766
 11  8 29  2 57 30.0000000  0 10G26G21G15G12G05G25G29G02G30G18
 112437090.476 7  87613411.12845  21396057.836                    21396066.504
 126372880.969 7  98472306.01443  24047927.609                    24047936.410
 114514861.815 7  89232555.664 7  21791471.234                    21791479.734
 125869724.791 7  98080374.757 6  23952218.461                    23952227.492
 116170686.573 8  90522691.955 7  22106521.602                    22106529.207
 119851271.735 7  93390648.285 7  22806939.930                    22806951.465
 108428971.978 8  84490161.455 8  20633348.922                    20633357.168
 120370452.549 7  93795269.08044  22905712.703                    22905719.645
 121585907.078 7  94742332.65844  23137034.484                    23137044.348
 124102359.060 6  96703295.56843  23615914.969                    23615924.262
 11  8 29  2 58  0.0000000  0 10G26G21G15G12G05G25G29G02G30G18
 112397565.324 8  87582612.33645  21388536.195                    21388545.027
 126314319.199 7  98426673.55644  24036783.063                    24036791.984
 114437285.111 7  89172106.318 7  21776709.180                    21776717.082
 125962801.714 6  98152902.235 6  23969929.891                    23969940.016
 116250811.947 8  90585127.287 7  22121768.922                    22121776.410
 119921262.339 7  93445186.381 7  22820258.883                    22820270.449
 108384207.625 8  84455280.144 8  20624830.859                    20624838.645
 120422240.587 7  93835623.37144  22915567.844                    22915574.504
 121656837.693 7  94797603.27544  23150531.750                    23150541.742
 124027394.885 7  96644881.98043  23601649.102                    23601658.039
 11  8 29  2 58 30.0000000  0 10G26G21G15G12G05G25G29G02G30G18
 112358641.382 8  87552282.02945  21381129.438                    21381138.035
 126255710.735 7  98381004.69744  24025631.047                    24025639.688
 114360051.256 7  89111924.128 7  21762011.563                    21762020.078
 126055848.179 7  98225405.981 6  23987636.422                    23987646.184
 116331092.510 7  90647683.572 7  22137045.867                    22137053.805
 119991497.298 7  93499914.914 7  22833624.023                    22833636.004
 108339866.659 8  84420728.747 8  20616392.734                    20616401.094
 120474158.248 7  93876078.67244  22925447.711                    22925454.195
 121727992.545 7  94853048.61844  23164071.609                    23164082.090
 123952666.297 7  96586651.95043  23587428.836                    23587438.496
 11  8 29  2 59  0.0000000  0 10G26G21G15G12G05G25G29G02G30G18
 112320320.774 8  87522421.86445  21373837.289                    21373845.996
 126197055.559 7  98335299.41844  24014468.727                    24014477.688
 114283163.127 7  89052011.353 7  21747380.102                    21747388.809
 126148861.638 6  98297884.025 6  24005336.281                    24005345.930
 116411525.973 7  90710358.994 7  22152351.578                    22152359.301
 120061973.532 7  93554831.416 7  22847035.313                    22847046.992
 108295951.079 8  84386508.836 8  20608036.023                    20608044.363
 120526205.833 7  93916635.22044  22935352.180                    22935358.215
 121799368.363 7  94908666.16344  23177654.078                    23177663.645
 123878173.479 7  96528605.66543  23573253.328                    23573262.133
 11  8 29  2 59 30.0000000  0 10G26G21G15G12G05G25G29G02G30G18
 112282605.901 8  87493033.67945  21366660.258                    21366669.172
 126138353.119 7  98289557.29144  24003298.438                    24003306.637
 114206623.555 7  88992370.153 7  21732815.398                    21732823.816
 126241838.999 6  98370333.928 6  24023029.203                    24023038.328
 116492110.270 7  90773151.935 7  22167686.461                    22167694.301
 120132687.793 7  93609933.365 7  22860491.570                    22860503.457
 108252462.872 8  84352621.937 8  20599760.203                    20599768.785
 120578383.643 7  93957293.22044  22945280.977                    22945287.805
 121870961.810 7  94964453.28444  23191277.969                    23191287.809
 123803917.619 7  96470744.01043  23559122.719                    23559131.805
 11  8 29  3  0  0.0000000  0 10G26G21G15G12G05G25G29G02G30G18
 112245499.090 8  87464119.30945  21359598.648                    21359607.504
 126079603.267 7  98243778.24544  23992119.141                    23992127.172
 114130435.615 7  88933002.974 7  21718316.813                    21718325.754
 126334777.626 6  98442753.650 6  24040714.328                    24040723.977
 116572843.036 7  90836060.573 7  22183049.094                    22183057.223
 120203637.215 7  93665218.592 7  22873993.266                    22874004.914
 108209404.260 8  84319069.781 8  20591566.508                    20591574.707
 120630692.735 7  93998053.54344  22955234.344                    22955242.109
 121942769.741 7  95020407.53344  23204942.883                    23204952.609
 123729898.857 7  96413067.12943  23545037.031                    23545047.113
 11  8 29  3  0 30.0000000  0 10G26G21G15G12G05G25G29G02G30G18
 112209002.458 8  87435680.40245  21352654.305                    21352662.473
 126020805.951 7  98197962.21843  23980929.555                    23980938.004
 114054602.018 7  88873911.902 7  21703886.070                    21703894.523
 126427674.879 7  98515141.130 6  24058393.023                    24058401.297
 116653721.850 7  90899083.014 7  22198439.828                    22198447.680
 120274818.537 8  93720684.530 7  22887538.750                    22887550.098
 108166777.108 8  84285853.836 8  20583454.758                    20583462.922
 120683133.133 7  94038916.16844  22965214.383                    22965220.785
 122014788.900 7  95076526.36844  23218647.414                    23218657.129
 123656118.053 7  96355575.66443  23530997.133                    23531006.539
 11  8 29  3  1  0.0000000  0 10G26G21G15G12G05G25G29G02G30G18
 112173118.261 8  87407718.71945  21345825.539                    21345833.879
 125961961.121 7  98152109.16343  23969731.781                    23969740.262
 113979125.506 7  88815099.072 7  21689523.773                    21689532.113
 126520527.575 6  98587493.905 6  24076060.906                    24076070.887
 116734744.747 7  90962217.725 7  22213858.414                    22213866.242
 120346228.711 7  93776328.801 7  22901127.453                    22901139.238
 108124583.629 8  84252975.820 8  20575425.563                    20575434.070
 120735705.416 7  94079881.56144  22975218.070                    22975224.957
 122087016.138 7  95132807.30544  23232392.094                    23232401.766
 123582575.743 6  96298269.99443  23517003.008                    23517011.715
 11  8 29  3  1 30.0000000  0 10G26G21G15G12G05G25G29G02G30G18
 112137848.904 7  87380236.12845  21339114.039                    21339122.758
 125903068.714 7  98106219.06244  23958524.977                    23958533.719
 113904009.610 7  88756567.260 7  21675229.484                    21675237.816
 126613333.597 6  98659810.274 6  24093721.688                    24093731.488
 116815909.608 7  91025463.064 7  22229303.250                    22229311.516
 120417864.927 7  93832149.244 7  22914758.961                    22914770.785
 108082826.371 8  84220437.712 8  20567479.273                    20567487.449
 120788410.386 7  94120950.33744  22985248.102                    22985255.125
 122159448.541 7  95189248.11644  23246175.414                    23246185.527
 123509272.738 7  96241150.84444  23503053.438                    23503062.863
 11  8 29  3  2  0.0000000  0 10G26G21G15G12G05G25G29G02G30G18
 112103196.473 8  87353234.26045  21332519.617                    21332528.324
 125844128.487 7  98060291.66644  23947308.523                    23947317.523
 113829256.870 8  88698318.418 7  21661004.555                    21661013.004
 126706089.796 6  98732087.863 6  24111372.656                    24111382.066
 116897214.325 7  91088817.382 7  22244774.523                    22244783.410
 120489723.930 7  93888143.237 7  22928433.813                    22928445.453
 108041506.972 8  84188240.807 8  20559616.336                    20559625.121
 120841248.173 7  94162122.59544  22995303.492                    22995309.414
 122232082.728 7  95245846.16144  23259996.914                    23260006.781
 123436209.691 7  96184218.65444  23489150.023                    23489159.473
 11  8 29  3  2 30.0000000  0 10G26G21G15G12G05G25G29G02G30G18
 112069163.137 8  87326714.80645  21326043.445                    21326052.047
 125785140.092 7  98014326.73544  23936083.617                    23936092.105
 113754870.433 8  88640355.013 7  21646849.266                    21646857.691
 126798793.577 6  98804324.583 6  24129013.680                    24129023.754
 116978656.763 7  91152279.013 7  22260272.953                    22260280.629
 120561802.612 7  93944308.437 7  22942150.008                    22942162.219
 108000627.542 8  84156386.716 8  20551837.297                    20551845.789
 120894219.529 7  94203398.94944  23005382.969                    23005389.355
 122304915.560 7  95302598.98544  23273856.828                    23273866.488
 123363387.093 6  96127473.81543  23475292.617                    23475300.844
 11  8 29  3  3  0.0000000  0 10G26G21G15G12G05G25G29G02G30G18
 112035751.319 8  87300679.65545  21319685.305                    21319693.953
 125726103.583 7  97968324.32243  23924849.672                    23924858.215
 113680853.282 7  88582679.348 7  21632764.008                    21632772.531
 126891442.554 6  98876518.600 6  24146643.516                    24146653.711
 117060235.004 7  91215846.461 7  22275796.703                    22275804.801
 120634098.164 7  94000642.624 7  22955907.523                    22955918.684
 107960190.800 8  84124877.592 8  20544142.602                    20544151.160
 120947325.259 7  94244780.00944  23015488.922                    23015495.539
 122377944.074 7  95359504.31344  23287753.328                    23287763.582
 123290805.732 6  96070916.92644  23461480.469                    23461489.262
 11  8 29  3  3 30.0000000  0 10G26G21G15G12G05G25G29G02G30G18
 112002962.664 8  87275130.08245  21313445.969                    21313454.398
 125667018.801 7  97922284.28044  23913606.117                    23913614.418
 113607207.909 8  88525293.373 7  21618749.930                    21618758.391
 126984033.354 6  98948667.270 6  24164263.508                    24164273.832
 117141946.206 7  91279517.513 7  22291346.234                    22291354.379
 120706607.122 7  94057143.076 7  22969705.188                    22969716.871
 107920197.870 8  84093714.284 8  20536532.219                    20536540.520
 121000565.505 6  94286265.86944  23025620.000                    23025626.848
 122451164.796 7  95416559.39744  23301686.602                    23301696.887
 123218466.254 7  96014548.57544  23447715.070                    23447723.777
 11  8 29  3  4  0.0000000  0 10G26G21G15G12G05G25G29G02G30G18
 111970799.202 8  87250067.67945  21307325.188                    21307333.727
 125607885.438 6  97876206.36444  23902352.898                    23902361.363
 113533937.265 8  88468199.397 7  21604806.789                    21604815.543
 127076563.557 6  99020768.684 6  24181872.125                    24181881.203
 117223788.468 7  91343290.696 7  22306920.016                    22306928.398
 120779326.366 7  94113807.421 7  22983543.547                    22983555.602
 107880650.799 8  84062898.392 8  20529006.578                    20529014.770
 121053940.765 7  94327856.92644  23035776.867                    23035784.238
 122524574.420 7  95473761.67244  23315656.391                    23315665.809
 123146368.733 7  95958368.70144  23433995.219                    23434003.738
 11  8 29  3  4 30.0000000  0 10G26G21G15G12G05G25G29G02G30G18
 111939262.852 8  87225493.92145  21301323.719                    21301332.254
 125548703.416 6  97830090.55644  23891091.234                    23891099.637
 113461043.678 8  88411399.234 7  21590935.633                    21590944.063
 127169030.265 6  99092820.685 6  24199467.391                    24199476.980
 117305759.833 7  91407164.485 7  22322518.656                    22322527.117
 120852252.749 7  94170633.159 7  22997420.742                    22997432.461
 107841551.729 8  84032431.597 8  20521566.648                    20521574.855
 121107451.427 7  94369553.52144  23045960.148                    23045966.203
 122598169.726 7  95531108.63444  23329661.789                    23329670.852
 123074513.872 6  95902377.93743  23420321.547                    23420330.352
 11  8 29  3  5  0.0000000  0 10G26G21G15G12G05G25G29G02G30G18
 111908356.035 8  87201410.72745  21295442.414                    21295451.086
 125489473.118 6  97783937.12844  23879820.133                    23879827.914
 113388530.743 7  88354895.683 7  21577136.984                    21577145.605
 127261430.808 6  99164821.108 6  24217050.875                    24217060.809
 117387858.094 7  91471137.136 7  22338141.289                    22338149.590
 120925383.546 7  94227618.178 7  23011337.477                    23011348.922
 107802903.026 8  84002315.738 8  20514211.766                    20514219.836
 121161098.274 7  94411356.22444  23056168.023                    23056175.090
 122671947.875 7  95588598.08444  23343700.305                    23343710.188
 123002902.704 7  95846577.03844  23406694.727                    23406703.773
 11  8 29  3  5 30.0000000  0 10G26G21G15G12G05G25G29G02G30G18
 111878080.724 8  87177819.59645  21289681.609                    21289689.621
 125430194.176 7  97737745.78544  23868539.680                    23868548.090
 113316401.236 8  88298690.905 7  21563411.031                    21563419.254
 127353762.847 6  99236768.176 6  24234621.227                    24234630.332
 117470080.795 7  91535206.764 7  22353788.242                    22353796.617
 120998715.385 7  94284759.859 7  23025291.219                    23025303.570
 107764706.534 8  83972552.234 8  20506943.531                    20506951.602
 121214881.948 7  94453265.55944  23066402.602                    23066409.637
 122745905.490 7  95646227.38344  23357773.953                    23357784.707
 122931535.630 7  95790966.36444  23393113.828                    23393122.578
 11  8 29  3  6  0.0000000  0 10G26G21G15G12G05G25G29G02G30G18
 111848438.395 8  87154721.71245  21284040.578                    21284049.469
 125370866.407 7  97691516.41344  23857249.555                    23857258.137
 113244657.616 8  88242786.814 7  21549758.641                    21549767.324
 127446023.262 6  99308659.422 6  24252177.586                    24252187.035
 117552426.267 7  91599372.074 7  22369457.836                    22369465.465
 121072245.123 7  94342055.770 7  23039283.688                    23039295.605
 107726963.964 8  83943142.451 8  20499760.984                    20499769.371
 121268802.470 7  94495281.49544  23076663.508                    23076670.992
 122820039.276 7  95703993.93444  23371881.320                    23371892.137
 122860412.903 7  95735546.11244  23379579.250                    23379588.473
 11  8 29  3  6 30.0000000  0 10G26G21G15G12G05G25G29G02G30G18
 111819431.403 8  87132118.89545  21278520.813                    21278529.465
 125311489.739 7  97645248.92343  23845951.188                    23845959.551
 113173302.490 8  88187185.460 7  21536180.414                    21536188.414
 127538209.560 6  99380492.929 6  24269720.211                    24269729.414
 117634892.115 7  91663631.156 7  22385150.570                    22385158.875
 121145969.680 7  94399503.470 7  23053312.891                    23053324.867
 107689677.381 8  83914087.985 8  20492665.508                    20492673.484
 121322860.584 7  94537404.66844  23086950.594                    23086957.977
 122894346.029 7  95761895.30544  23386021.273                    23386031.578
 122789535.212 7  95680316.75343  23366092.305                    23366100.941
 11  8 29  3  7  0.0000000  0 10G26G21G15G12G05G25G29G02G30G18
 111791061.193 7  87110012.27046  21273122.289                    21273130.691
 125252064.436 6  97598943.55044  23834642.500                    23834650.703
 113102338.881 8  88131889.169 7  21522676.500                    21522684.242
 127630318.877 6  99452266.421 6  24287247.516                    24287257.113
 117717476.315 7  91727982.487 7  22400865.906                    22400874.367
 121219885.910 7  94457100.530 6  23067378.813                    23067390.324
 107652848.810 8  83885390.414 8  20485657.656                    20485665.453
 121377056.835 7  94579635.48744  23097263.750                    23097270.750
 122968822.600 7  95819928.98744  23400194.125                    23400204.309
 122718902.861 7  95625278.56444  23352651.031                    23352659.762
 11  8 29  3  7 30.0000000  0 10G26G21G15G12G05G25G29G02G30G18
 111763330.077 8  87088403.63845  21267845.133                    21267853.656
 125192589.919 7  97552599.80444  23823324.906                    23823332.957
 113031769.867 8  88076900.360 7  21509247.203                    21509255.906
 127722348.634 6  99523977.888 5  24304760.352                    24304769.594
 117800176.945 7  91792424.521 7  22416602.969                    22416611.320
 121293990.711 7  94514844.526 6  23081480.648                    23081492.328
 107616480.057 8  83857051.131 8  20478737.000                    20478744.898
 121431391.732 7  94621974.31644  23107603.680                    23107610.852
 123043465.737 7  95878092.45244  23414398.156                    23414408.125
 122648516.622 7  95570432.18643  23339256.844                    23339266.340
 11  8 29  3  8  0.0000000  0 10G26G21G15G12G05G25G29G02G30G18
 111736239.846 8  87067294.40045  21262690.156                    21262698.289
 125133066.403 6  97506217.88144  23811997.852                    23812006.320
 112961598.186 8  88022221.179 7  21495894.063                    21495902.594
 127814296.433 6  99595625.571 5  24322257.898                    24322266.621
 117882991.975 7  91856955.705 7  22432362.258                    22432370.648
 121368281.270 7  94572733.290 6  23095617.586                    23095628.996
 107580573.481 8  83829071.992 8  20471903.969                    20471911.945
 121485865.798 7  94664421.59144  23117969.422                    23117976.879
 123118272.701 7  95936383.56144  23428634.094                    23428644.004
 122578377.448 7  95515778.30844  23325909.680                    23325918.082
 11  8 29  3  8 30.0000000  0 10G26G21G15G12G05G25G29G02G30G18
 111709792.001 7  87046685.72545  21257656.992                    21257665.852
 125073494.108 6  97459797.93844  23800661.500                    23800670.020
 112891826.265 8  87967853.494 7  21482617.063                    21482625.273
 127906159.219 6  99667206.931 5  24339738.203                    24339747.621
 117965919.064 7  91921574.206 7  22448142.750                    22448151.176
 121442754.078 7  94630764.005 7  23109789.539                    23109801.211
 107545130.544 8  83801454.132 8  20465158.914                    20465167.418
 121540479.299 7  94706977.53244  23128362.563                    23128369.023
 123193239.693 7  95994799.37744  23442899.242                    23442909.199
 122508484.946 7  95461316.66444  23312609.438                    23312619.035
 11  8 29  3  9  0.0000000  0 10G26G21G15G12G05G25G29G02G30G18
 111683988.314 8  87026578.98645  21252746.617                    21252755.035
 125013872.441 7  97413339.53744  23789315.992                    23789324.383
 112822457.033 8  87913799.596 7  21469416.781                    21469424.977
 127997934.827 6  99738720.385 5  24357202.227                    24357211.203
 118048956.389 7  91986278.611 7  22463944.070                    22463952.098
 121517406.089 7  94688934.360 7  23123995.445                    23124007.273
 107510153.078 8  83774198.974 8  20458503.242                    20458511.469
 121595232.833 7  94749642.60344  23138781.406                    23138788.340
 123268363.819 7  96053337.68644  23457195.203                    23457204.871
 122438839.816 7  95407047.76344  23299356.680                    23299366.215
 11  8 29  3  9 30.0000000  0 10G26G21G15G12G05G25G29G02G30G18
 111658830.791 8  87006975.74845  21247959.273                    21247967.645
 124954201.723 7  97366842.91444  23777961.117                    23777969.352
 112753493.196 8  87860061.587 7  21456293.227                    21456301.156
 128089620.194 5  99810163.576 5  24374649.766                    24374658.758
 118132101.443 7  92051066.953 7  22479766.125                    22479774.980
 121592234.290 7  94747241.995 7  23138235.211                    23138246.941
 107475643.027 8  83747308.034 8  20451936.031                    20451944.270
 121650127.057 7  94792417.30444  23149227.453                    23149234.875
 123343641.837 7  96111995.88244  23471519.672                    23471529.680
 122369442.613 7  95352972.05444  23286150.828                    23286159.836
 11  8 29  3 10  0.0000000  0 10G26G21G15G12G05G25G29G02G30G18
 111634321.032 8  86987877.26745  21243295.281                    21243303.805
 124894481.775 7  97320307.93744  23766596.203                    23766604.703
 112684937.466 8  87806641.587 7  21443247.078                    21443255.496
 128181212.677 6  99881534.343 5  24392079.336                    24392088.598
 118215352.678 7  92115938.034 7  22495608.945                    22495616.930
 121667235.613 7  94805684.517 7  23152506.750                    23152518.922
 107441602.444 8  83720782.908 8  20445458.578                    20445466.348
 121705162.401 6  94835301.96344  23159700.094                    23159707.484
 123419070.632 7  96170771.52944  23485873.719                    23485884.188
 122300293.899 7  95299089.97744  23272991.820                    23273001.020
 11  8 29  3 10 30.0000000  0 10G26G21G15G12G05G25G29G02G30G18
 111610460.978 8  86969285.04445  21238754.836                    21238763.500
 124834712.654 7  97273734.65344  23755222.844                    23755230.945
 112616792.859 8  87753541.938 7  21430279.516                    21430288.199
 128272710.240 5  99952831.172 6  24409490.820                    24409500.621
 118298707.989 7  92180890.217 7  22511470.672                    22511478.715
 121742407.262 7  94864259.812 7  23166811.617                    23166823.215
 107408033.548 8  83694625.325 8  20439070.719                    20439078.926
 121760339.516 6  94878297.11044  23170200.336                    23170207.598
 123494647.236 7  96229662.37944  23500255.398                    23500264.797
 122231394.181 7  95245401.91744  23259881.258                    23259889.773
 11  8 29  3 11  0.0000000  0 10G26G21G15G12G05G25G29G02G30G18
 111587251.949 8  86951200.11146  21234338.289                    21234346.488
 124774894.507 7  97227123.11644  23743840.328                    23743848.328
 112549061.761 8  87700764.492 7  21417390.977                    21417399.441
 128364109.793 6 100024051.550 6  24426883.289                    24426893.313
 118382165.340 7  92245921.915 7  22527351.891                    22527359.785
 121817745.686 7  94922965.034 7  23181148.172                    23181160.148
 107374937.759 8  83668836.407 8  20432772.594                    20432780.945
 121815658.642 6  94921402.88944  23180727.383                    23180734.605
 123570368.128 7  96288665.67644  23514665.164                    23514674.887
 122162743.787 7  95191908.15844  23246817.094                    23246826.293
 11  8 29  3 11 30.0000000  0 10G26G21G15G12G05G25G29G02G30G18
 111564695.675 8  86933623.82245  21230045.820                    21230054.074
 124715027.028 7  97180473.13644  23732447.883                    23732456.000
 112481746.885 8  87648311.377 7  21404581.305                    21404589.855
 128455408.895 6 100095193.775 5  24444257.609                    24444265.828
 118465722.517 7  92311031.399 7  22543252.227                    22543260.539
 121893247.921 7  94981797.916 7  23195515.805                    23195527.555
 107342316.938 7  83643417.590 8  20426565.195                    20426572.738
 121871120.272 6  94964619.72944  23191281.125                    23191288.336
 123646230.296 7  96347779.03944  23529100.289                    23529110.977
 122094343.337 7  95138609.12044  23233800.836                    23233809.590
 11  8 29  3 12  0.0000000  0 10G26G21G15G12G05G25G29G02G30G18
 111542793.602 8  86916557.29245  21225878.016                    21225886.422
 124655110.550 7  97133785.01844  23721045.047                    23721053.770
 112414850.690 8  87596184.500 7  21391851.195                    21391859.477
 128546604.928 6 100166255.609 6  24461610.656                    24461620.207
 118549377.285 7  92376216.928 7  22559171.172                    22559179.582
 121968910.716 7  95040755.907 7  23209913.469                    23209925.828
 107310172.757 8  83618370.173 8  20420448.109                    20420456.539
 121926724.752 6  95007947.88544  23201862.148                    23201869.633
 123722230.414 7  96406999.87544  23543563.031                    23543572.813
 122026193.060 7  95085505.04744  23220832.656                    23220841.070
 11  8 29  3 12 30.0000000  0 10G26G21G15G12G05G25G29G02G30G18
 111521547.241 8  86900001.70345  21221835.031                    21221843.465
 124595144.675 7  97087058.41244  23709634.227                    23709642.512
 112348375.684 8  87544385.814 7  21379201.781                    21379209.813
 128637695.067 6 100237234.924 6  24478943.961                    24478954.480
 118633128.044 7  92441477.228 7  22575108.391                    22575117.043
 122044730.969 7  95099836.601 7  23224342.305                    23224353.754
 107278506.895 8  83593695.474 8  20414422.352                    20414430.984
 121982472.639 6  95051387.76144  23212470.961                    23212477.672
 123798365.239 7  96466325.70344  23558051.086                    23558061.414
 121958293.264 7  95032596.14644  23207911.242                    23207920.719
 11  8 29  3 13  0.0000000  0 10G26G21G15G12G05G25G29G02G30G18
 111500958.289 8  86883958.39245  21217917.070                    21217925.609
 124535130.006 7  97040293.78544  23698214.148                    23698222.488
 112282325.296 8  87492918.010 7  21366632.227                    21366641.059
 128728677.051 6 100308129.912 6  24496258.633                    24496268.020
 118716972.827 7  92506810.806 7  22591064.188                    22591072.371
 122120705.819 7  95159037.782 7  23238799.320                    23238811.906
 107247321.703 8  83569395.330 8  20408488.438                    20408496.531
 122038364.655 6  95094939.97644  23223106.867                    23223113.008
 123874631.883 7  96525754.25144  23572564.039                    23572574.035
 121890644.570 7  94979882.92244  23195038.617                    23195046.691
 11  8 29  3 13 30.0000000  0 10G26G21G15G12G05G25G29G02G30G18
 111481028.324 8  86868428.56745  21214124.570                    21214132.695
 124475066.240 7  96993490.89044  23686784.875                    23686792.355
 112216701.965 8  87441782.962 7  21354145.148                    21354153.297
 128819548.040 6 100378938.462 6  24513551.211                    24513560.047
 118800909.687 7  92572216.132 7  22607036.328                    22607044.555
 122196832.100 7  95218356.946 7  23253285.578                    23253297.750
 107216618.507 8  83545470.754 8  20402645.688                    20402653.527
 122094401.087 7  95138604.71744  23233769.797                    23233776.609
 123951027.146 7  96585283.02044  23587101.328                    23587111.996
 121823247.462 7  94927365.71544  23182213.109                    23182221.504
